<?xml version="1.0" encoding="UTF-8" standalone="no" ?>
<gpx xmlns="http://www.topografix.com/GPX/1/1" xmlns:xsi="http://www.w3.org/2001/XMLSchema-instance" xsi:schemaLocation="http://www.topografix.com/GPX/1/1 http://www.topografix.com/GPX/1/1/gpx.xsd" version="1.1" creator="VisuGPX - https://www.visugpx.com">
  <metadata>
    <name>Colombis par Viere retour par Theus</name>
    <desc><![CDATA[Le dénivelé est de 1300m . Circuit fait au départ d'Espinasse à e-VTT très bien adapté peut se faire à VTC malgré un passage plus chameauteux pour traverser la centrale photovoltaïque vers les Fraches . Sinon, pistes forestières roulantes et petites routes . La descente sur route par Theus permet  de visiter la belvédère des demoiselles coiffées et le curieux village de Theus. Splendide vue à 360° au sommet]]></desc>
  </metadata>
  <trk>
    <name><![CDATA[2019-09-01 14-22-39]]></name>
    <trkseg>
      <trkpt lat="44.46502" lon="6.22943">
        <ele>666.2</ele>
        <time>2019-09-01T08:28:09Z</time>
      </trkpt>
      <trkpt lat="44.46503" lon="6.22942">
        <ele>666.2</ele>
        <time>2019-09-01T08:28:10Z</time>
      </trkpt>
      <trkpt lat="44.46504" lon="6.22944">
        <ele>666.5</ele>
        <time>2019-09-01T08:28:38Z</time>
      </trkpt>
      <trkpt lat="44.46496" lon="6.22942">
        <ele>665.8</ele>
        <time>2019-09-01T08:29:50Z</time>
      </trkpt>
      <trkpt lat="44.46489" lon="6.22941">
        <ele>665.5</ele>
        <time>2019-09-01T08:29:54Z</time>
      </trkpt>
      <trkpt lat="44.46486" lon="6.22946">
        <ele>665.5</ele>
        <time>2019-09-01T08:29:56Z</time>
      </trkpt>
      <trkpt lat="44.46486" lon="6.2295">
        <ele>665.6</ele>
        <time>2019-09-01T08:29:57Z</time>
      </trkpt>
      <trkpt lat="44.46486" lon="6.22954">
        <ele>665.7</ele>
        <time>2019-09-01T08:29:58Z</time>
      </trkpt>
      <trkpt lat="44.46487" lon="6.22959">
        <ele>665.8</ele>
        <time>2019-09-01T08:29:59Z</time>
      </trkpt>
      <trkpt lat="44.46493" lon="6.2301">
        <ele>665.7</ele>
        <time>2019-09-01T08:30:12Z</time>
      </trkpt>
      <trkpt lat="44.46501" lon="6.23077">
        <ele>666.1</ele>
        <time>2019-09-01T08:30:28Z</time>
      </trkpt>
      <trkpt lat="44.46509" lon="6.23148">
        <ele>667.3</ele>
        <time>2019-09-01T08:30:45Z</time>
      </trkpt>
      <trkpt lat="44.46517" lon="6.23222">
        <ele>664.3</ele>
        <time>2019-09-01T08:31:03Z</time>
      </trkpt>
      <trkpt lat="44.46528" lon="6.23323">
        <ele>665.4</ele>
        <time>2019-09-01T08:31:21Z</time>
      </trkpt>
      <trkpt lat="44.4653" lon="6.23373">
        <ele>664.1</ele>
        <time>2019-09-01T08:31:29Z</time>
      </trkpt>
      <trkpt lat="44.46526" lon="6.23452">
        <ele>663</ele>
        <time>2019-09-01T08:31:42Z</time>
      </trkpt>
      <trkpt lat="44.46525" lon="6.23458">
        <ele>662.9</ele>
        <time>2019-09-01T08:31:43Z</time>
      </trkpt>
      <trkpt lat="44.46522" lon="6.23464">
        <ele>662.9</ele>
        <time>2019-09-01T08:31:44Z</time>
      </trkpt>
      <trkpt lat="44.46519" lon="6.23469">
        <ele>662.7</ele>
        <time>2019-09-01T08:31:45Z</time>
      </trkpt>
      <trkpt lat="44.46516" lon="6.23474">
        <ele>662.5</ele>
        <time>2019-09-01T08:31:46Z</time>
      </trkpt>
      <trkpt lat="44.4651" lon="6.23484">
        <ele>662.2</ele>
        <time>2019-09-01T08:31:48Z</time>
      </trkpt>
      <trkpt lat="44.46508" lon="6.2349">
        <ele>662.1</ele>
        <time>2019-09-01T08:31:49Z</time>
      </trkpt>
      <trkpt lat="44.46508" lon="6.23496">
        <ele>662</ele>
        <time>2019-09-01T08:31:50Z</time>
      </trkpt>
      <trkpt lat="44.4651" lon="6.23502">
        <ele>662</ele>
        <time>2019-09-01T08:31:51Z</time>
      </trkpt>
      <trkpt lat="44.46513" lon="6.23506">
        <ele>661.9</ele>
        <time>2019-09-01T08:31:52Z</time>
      </trkpt>
      <trkpt lat="44.46517" lon="6.2351">
        <ele>661.9</ele>
        <time>2019-09-01T08:31:53Z</time>
      </trkpt>
      <trkpt lat="44.46521" lon="6.23513">
        <ele>661.9</ele>
        <time>2019-09-01T08:31:54Z</time>
      </trkpt>
      <trkpt lat="44.46524" lon="6.23518">
        <ele>661.9</ele>
        <time>2019-09-01T08:31:55Z</time>
      </trkpt>
      <trkpt lat="44.46528" lon="6.23523">
        <ele>662</ele>
        <time>2019-09-01T08:31:56Z</time>
      </trkpt>
      <trkpt lat="44.4653" lon="6.23529">
        <ele>662</ele>
        <time>2019-09-01T08:31:57Z</time>
      </trkpt>
      <trkpt lat="44.46532" lon="6.23535">
        <ele>661.9</ele>
        <time>2019-09-01T08:31:58Z</time>
      </trkpt>
      <trkpt lat="44.46534" lon="6.23542">
        <ele>661.7</ele>
        <time>2019-09-01T08:31:59Z</time>
      </trkpt>
      <trkpt lat="44.46561" lon="6.2368">
        <ele>660.2</ele>
        <time>2019-09-01T08:32:18Z</time>
      </trkpt>
      <trkpt lat="44.46583" lon="6.23788">
        <ele>659.9</ele>
        <time>2019-09-01T08:32:34Z</time>
      </trkpt>
      <trkpt lat="44.4661" lon="6.23905">
        <ele>659.8</ele>
        <time>2019-09-01T08:32:52Z</time>
      </trkpt>
      <trkpt lat="44.46613" lon="6.23918">
        <ele>660.7</ele>
        <time>2019-09-01T08:32:54Z</time>
      </trkpt>
      <trkpt lat="44.46615" lon="6.23924">
        <ele>660.8</ele>
        <time>2019-09-01T08:32:55Z</time>
      </trkpt>
      <trkpt lat="44.46617" lon="6.2393">
        <ele>660.9</ele>
        <time>2019-09-01T08:32:56Z</time>
      </trkpt>
      <trkpt lat="44.46647" lon="6.2405">
        <ele>663.7</ele>
        <time>2019-09-01T08:33:15Z</time>
      </trkpt>
      <trkpt lat="44.4665" lon="6.24164">
        <ele>660.5</ele>
        <time>2019-09-01T08:33:32Z</time>
      </trkpt>
      <trkpt lat="44.46646" lon="6.24213">
        <ele>662.4</ele>
        <time>2019-09-01T08:33:40Z</time>
      </trkpt>
      <trkpt lat="44.46638" lon="6.24298">
        <ele>663.5</ele>
        <time>2019-09-01T08:33:55Z</time>
      </trkpt>
      <trkpt lat="44.46638" lon="6.24304">
        <ele>663.6</ele>
        <time>2019-09-01T08:33:56Z</time>
      </trkpt>
      <trkpt lat="44.46637" lon="6.2431">
        <ele>664.3</ele>
        <time>2019-09-01T08:33:57Z</time>
      </trkpt>
      <trkpt lat="44.46635" lon="6.24338">
        <ele>667.8</ele>
        <time>2019-09-01T08:34:02Z</time>
      </trkpt>
      <trkpt lat="44.46634" lon="6.24344">
        <ele>667</ele>
        <time>2019-09-01T08:34:03Z</time>
      </trkpt>
      <trkpt lat="44.46626" lon="6.24463">
        <ele>671.8</ele>
        <time>2019-09-01T08:34:22Z</time>
      </trkpt>
      <trkpt lat="44.46617" lon="6.24557">
        <ele>666.7</ele>
        <time>2019-09-01T08:34:35Z</time>
      </trkpt>
      <trkpt lat="44.46616" lon="6.24564">
        <ele>666</ele>
        <time>2019-09-01T08:34:36Z</time>
      </trkpt>
      <trkpt lat="44.46616" lon="6.24571">
        <ele>665.6</ele>
        <time>2019-09-01T08:34:37Z</time>
      </trkpt>
      <trkpt lat="44.46615" lon="6.24586">
        <ele>665.3</ele>
        <time>2019-09-01T08:34:39Z</time>
      </trkpt>
      <trkpt lat="44.46614" lon="6.24593">
        <ele>665</ele>
        <time>2019-09-01T08:34:40Z</time>
      </trkpt>
      <trkpt lat="44.46615" lon="6.24696">
        <ele>662.4</ele>
        <time>2019-09-01T08:34:54Z</time>
      </trkpt>
      <trkpt lat="44.46621" lon="6.24733">
        <ele>660.6</ele>
        <time>2019-09-01T08:34:59Z</time>
      </trkpt>
      <trkpt lat="44.46631" lon="6.24781">
        <ele>659.6</ele>
        <time>2019-09-01T08:35:06Z</time>
      </trkpt>
      <trkpt lat="44.46632" lon="6.24787">
        <ele>659.8</ele>
        <time>2019-09-01T08:35:07Z</time>
      </trkpt>
      <trkpt lat="44.46638" lon="6.2482">
        <ele>660.8</ele>
        <time>2019-09-01T08:35:12Z</time>
      </trkpt>
      <trkpt lat="44.46646" lon="6.24858">
        <ele>661.1</ele>
        <time>2019-09-01T08:35:18Z</time>
      </trkpt>
      <trkpt lat="44.46647" lon="6.24865">
        <ele>661</ele>
        <time>2019-09-01T08:35:19Z</time>
      </trkpt>
      <trkpt lat="44.46648" lon="6.24871">
        <ele>660.9</ele>
        <time>2019-09-01T08:35:20Z</time>
      </trkpt>
      <trkpt lat="44.46649" lon="6.24878">
        <ele>660.9</ele>
        <time>2019-09-01T08:35:21Z</time>
      </trkpt>
      <trkpt lat="44.4665" lon="6.24885">
        <ele>661</ele>
        <time>2019-09-01T08:35:22Z</time>
      </trkpt>
      <trkpt lat="44.46673" lon="6.24995">
        <ele>663.4</ele>
        <time>2019-09-01T08:35:39Z</time>
      </trkpt>
      <trkpt lat="44.46713" lon="6.25117">
        <ele>661.4</ele>
        <time>2019-09-01T08:35:58Z</time>
      </trkpt>
      <trkpt lat="44.46726" lon="6.25166">
        <ele>663.6</ele>
        <time>2019-09-01T08:36:05Z</time>
      </trkpt>
      <trkpt lat="44.46728" lon="6.25173">
        <ele>664.5</ele>
        <time>2019-09-01T08:36:06Z</time>
      </trkpt>
      <trkpt lat="44.46739" lon="6.25235">
        <ele>670.5</ele>
        <time>2019-09-01T08:36:15Z</time>
      </trkpt>
      <trkpt lat="44.46748" lon="6.2531">
        <ele>662.2</ele>
        <time>2019-09-01T08:36:26Z</time>
      </trkpt>
      <trkpt lat="44.46748" lon="6.25317">
        <ele>662.1</ele>
        <time>2019-09-01T08:36:27Z</time>
      </trkpt>
      <trkpt lat="44.46749" lon="6.25324">
        <ele>662.1</ele>
        <time>2019-09-01T08:36:28Z</time>
      </trkpt>
      <trkpt lat="44.4676" lon="6.25415">
        <ele>667.8</ele>
        <time>2019-09-01T08:36:42Z</time>
      </trkpt>
      <trkpt lat="44.46762" lon="6.25431">
        <ele>667.9</ele>
        <time>2019-09-01T08:36:45Z</time>
      </trkpt>
      <trkpt lat="44.46763" lon="6.25436">
        <ele>667.6</ele>
        <time>2019-09-01T08:36:46Z</time>
      </trkpt>
      <trkpt lat="44.4677" lon="6.25505">
        <ele>664.7</ele>
        <time>2019-09-01T08:36:59Z</time>
      </trkpt>
      <trkpt lat="44.46782" lon="6.25608">
        <ele>666.9</ele>
        <time>2019-09-01T08:37:15Z</time>
      </trkpt>
      <trkpt lat="44.46784" lon="6.25621">
        <ele>668.8</ele>
        <time>2019-09-01T08:37:17Z</time>
      </trkpt>
      <trkpt lat="44.46785" lon="6.25627">
        <ele>670.4</ele>
        <time>2019-09-01T08:37:18Z</time>
      </trkpt>
      <trkpt lat="44.46809" lon="6.25734">
        <ele>665.7</ele>
        <time>2019-09-01T08:37:35Z</time>
      </trkpt>
      <trkpt lat="44.46824" lon="6.2579">
        <ele>664.9</ele>
        <time>2019-09-01T08:37:44Z</time>
      </trkpt>
      <trkpt lat="44.46825" lon="6.25796">
        <ele>664.6</ele>
        <time>2019-09-01T08:37:45Z</time>
      </trkpt>
      <trkpt lat="44.46827" lon="6.25802">
        <ele>664.4</ele>
        <time>2019-09-01T08:37:46Z</time>
      </trkpt>
      <trkpt lat="44.46851" lon="6.25908">
        <ele>667.3</ele>
        <time>2019-09-01T08:38:03Z</time>
      </trkpt>
      <trkpt lat="44.46859" lon="6.25987">
        <ele>666.4</ele>
        <time>2019-09-01T08:38:15Z</time>
      </trkpt>
      <trkpt lat="44.46864" lon="6.26086">
        <ele>668.3</ele>
        <time>2019-09-01T08:38:29Z</time>
      </trkpt>
      <trkpt lat="44.46865" lon="6.26183">
        <ele>671.9</ele>
        <time>2019-09-01T08:38:45Z</time>
      </trkpt>
      <trkpt lat="44.46874" lon="6.26221">
        <ele>674.2</ele>
        <time>2019-09-01T08:38:53Z</time>
      </trkpt>
      <trkpt lat="44.46889" lon="6.26259">
        <ele>675.4</ele>
        <time>2019-09-01T08:39:02Z</time>
      </trkpt>
      <trkpt lat="44.46904" lon="6.26301">
        <ele>678.8</ele>
        <time>2019-09-01T08:39:12Z</time>
      </trkpt>
      <trkpt lat="44.46909" lon="6.26351">
        <ele>685.2</ele>
        <time>2019-09-01T08:39:23Z</time>
      </trkpt>
      <trkpt lat="44.46901" lon="6.26403">
        <ele>690.9</ele>
        <time>2019-09-01T08:39:35Z</time>
      </trkpt>
      <trkpt lat="44.46891" lon="6.26455">
        <ele>693.9</ele>
        <time>2019-09-01T08:39:48Z</time>
      </trkpt>
      <trkpt lat="44.46883" lon="6.26504">
        <ele>694.8</ele>
        <time>2019-09-01T08:40:00Z</time>
      </trkpt>
      <trkpt lat="44.46881" lon="6.26549">
        <ele>698.5</ele>
        <time>2019-09-01T08:40:11Z</time>
      </trkpt>
      <trkpt lat="44.46887" lon="6.26603">
        <ele>698</ele>
        <time>2019-09-01T08:40:24Z</time>
      </trkpt>
      <trkpt lat="44.46896" lon="6.26655">
        <ele>700.2</ele>
        <time>2019-09-01T08:40:37Z</time>
      </trkpt>
      <trkpt lat="44.46906" lon="6.26702">
        <ele>698.1</ele>
        <time>2019-09-01T08:40:49Z</time>
      </trkpt>
      <trkpt lat="44.46931" lon="6.26702">
        <ele>695.7</ele>
        <time>2019-09-01T08:40:58Z</time>
      </trkpt>
      <trkpt lat="44.46972" lon="6.26651">
        <ele>699.3</ele>
        <time>2019-09-01T08:41:14Z</time>
      </trkpt>
      <trkpt lat="44.47016" lon="6.26631">
        <ele>704.3</ele>
        <time>2019-09-01T08:41:28Z</time>
      </trkpt>
      <trkpt lat="44.47046" lon="6.26613">
        <ele>711.6</ele>
        <time>2019-09-01T08:41:39Z</time>
      </trkpt>
      <trkpt lat="44.47084" lon="6.26607">
        <ele>716.9</ele>
        <time>2019-09-01T08:41:52Z</time>
      </trkpt>
      <trkpt lat="44.4711" lon="6.2658">
        <ele>721.6</ele>
        <time>2019-09-01T08:42:02Z</time>
      </trkpt>
      <trkpt lat="44.47135" lon="6.26547">
        <ele>720.5</ele>
        <time>2019-09-01T08:42:13Z</time>
      </trkpt>
      <trkpt lat="44.47146" lon="6.26506">
        <ele>724.2</ele>
        <time>2019-09-01T08:42:24Z</time>
      </trkpt>
      <trkpt lat="44.47117" lon="6.2649">
        <ele>729.1</ele>
        <time>2019-09-01T08:42:34Z</time>
      </trkpt>
      <trkpt lat="44.47098" lon="6.26527">
        <ele>732.9</ele>
        <time>2019-09-01T08:42:44Z</time>
      </trkpt>
      <trkpt lat="44.47074" lon="6.26564">
        <ele>734.3</ele>
        <time>2019-09-01T08:42:56Z</time>
      </trkpt>
      <trkpt lat="44.47045" lon="6.26573">
        <ele>738.1</ele>
        <time>2019-09-01T08:43:06Z</time>
      </trkpt>
      <trkpt lat="44.47012" lon="6.26582">
        <ele>740.5</ele>
        <time>2019-09-01T08:43:18Z</time>
      </trkpt>
      <trkpt lat="44.46976" lon="6.26571">
        <ele>743</ele>
        <time>2019-09-01T08:43:32Z</time>
      </trkpt>
      <trkpt lat="44.46966" lon="6.26533">
        <ele>745.9</ele>
        <time>2019-09-01T08:43:43Z</time>
      </trkpt>
      <trkpt lat="44.46988" lon="6.26494">
        <ele>751.1</ele>
        <time>2019-09-01T08:43:56Z</time>
      </trkpt>
      <trkpt lat="44.4702" lon="6.26457">
        <ele>754.5</ele>
        <time>2019-09-01T08:44:10Z</time>
      </trkpt>
      <trkpt lat="44.47053" lon="6.26422">
        <ele>754.7</ele>
        <time>2019-09-01T08:44:25Z</time>
      </trkpt>
      <trkpt lat="44.47078" lon="6.26395">
        <ele>755.4</ele>
        <time>2019-09-01T08:44:36Z</time>
      </trkpt>
      <trkpt lat="44.47115" lon="6.26353">
        <ele>760</ele>
        <time>2019-09-01T08:44:53Z</time>
      </trkpt>
      <trkpt lat="44.47124" lon="6.26304">
        <ele>767.6</ele>
        <time>2019-09-01T08:45:06Z</time>
      </trkpt>
      <trkpt lat="44.47113" lon="6.26248">
        <ele>769.5</ele>
        <time>2019-09-01T08:45:21Z</time>
      </trkpt>
      <trkpt lat="44.47106" lon="6.26209">
        <ele>770.1</ele>
        <time>2019-09-01T08:45:32Z</time>
      </trkpt>
      <trkpt lat="44.47108" lon="6.26207">
        <ele>770.7</ele>
        <time>2019-09-01T08:45:33Z</time>
      </trkpt>
      <trkpt lat="44.47111" lon="6.26206">
        <ele>771.1</ele>
        <time>2019-09-01T08:45:34Z</time>
      </trkpt>
      <trkpt lat="44.47114" lon="6.26207">
        <ele>773.3</ele>
        <time>2019-09-01T08:45:35Z</time>
      </trkpt>
      <trkpt lat="44.47116" lon="6.2621">
        <ele>774.8</ele>
        <time>2019-09-01T08:45:36Z</time>
      </trkpt>
      <trkpt lat="44.47118" lon="6.26214">
        <ele>775.6</ele>
        <time>2019-09-01T08:45:37Z</time>
      </trkpt>
      <trkpt lat="44.47119" lon="6.26218">
        <ele>775.8</ele>
        <time>2019-09-01T08:45:38Z</time>
      </trkpt>
      <trkpt lat="44.4712" lon="6.26223">
        <ele>775.7</ele>
        <time>2019-09-01T08:45:39Z</time>
      </trkpt>
      <trkpt lat="44.47121" lon="6.26227">
        <ele>775.8</ele>
        <time>2019-09-01T08:45:40Z</time>
      </trkpt>
      <trkpt lat="44.47134" lon="6.26282">
        <ele>777.1</ele>
        <time>2019-09-01T08:45:54Z</time>
      </trkpt>
      <trkpt lat="44.47163" lon="6.26329">
        <ele>779</ele>
        <time>2019-09-01T08:46:09Z</time>
      </trkpt>
      <trkpt lat="44.47192" lon="6.26356">
        <ele>782.7</ele>
        <time>2019-09-01T08:46:22Z</time>
      </trkpt>
      <trkpt lat="44.47208" lon="6.26393">
        <ele>783.7</ele>
        <time>2019-09-01T08:46:33Z</time>
      </trkpt>
      <trkpt lat="44.47238" lon="6.26435">
        <ele>786.4</ele>
        <time>2019-09-01T08:46:48Z</time>
      </trkpt>
      <trkpt lat="44.47265" lon="6.26454">
        <ele>789.7</ele>
        <time>2019-09-01T08:46:59Z</time>
      </trkpt>
      <trkpt lat="44.47291" lon="6.26441">
        <ele>799.4</ele>
        <time>2019-09-01T08:47:11Z</time>
      </trkpt>
      <trkpt lat="44.47291" lon="6.26437">
        <ele>800</ele>
        <time>2019-09-01T08:47:12Z</time>
      </trkpt>
      <trkpt lat="44.47289" lon="6.26433">
        <ele>800.2</ele>
        <time>2019-09-01T08:47:13Z</time>
      </trkpt>
      <trkpt lat="44.47288" lon="6.26429">
        <ele>800.1</ele>
        <time>2019-09-01T08:47:14Z</time>
      </trkpt>
      <trkpt lat="44.47286" lon="6.26425">
        <ele>799.7</ele>
        <time>2019-09-01T08:47:15Z</time>
      </trkpt>
      <trkpt lat="44.47284" lon="6.26422">
        <ele>799.1</ele>
        <time>2019-09-01T08:47:16Z</time>
      </trkpt>
      <trkpt lat="44.47257" lon="6.26383">
        <ele>800.4</ele>
        <time>2019-09-01T08:47:29Z</time>
      </trkpt>
      <trkpt lat="44.47233" lon="6.26347">
        <ele>800.9</ele>
        <time>2019-09-01T08:47:42Z</time>
      </trkpt>
      <trkpt lat="44.47215" lon="6.26297">
        <ele>806</ele>
        <time>2019-09-01T08:47:57Z</time>
      </trkpt>
      <trkpt lat="44.47238" lon="6.26297">
        <ele>808.2</ele>
        <time>2019-09-01T08:48:06Z</time>
      </trkpt>
      <trkpt lat="44.47265" lon="6.26318">
        <ele>810.9</ele>
        <time>2019-09-01T08:48:17Z</time>
      </trkpt>
      <trkpt lat="44.47293" lon="6.26358">
        <ele>814.9</ele>
        <time>2019-09-01T08:48:31Z</time>
      </trkpt>
      <trkpt lat="44.47309" lon="6.26391">
        <ele>818.7</ele>
        <time>2019-09-01T08:48:41Z</time>
      </trkpt>
      <trkpt lat="44.47332" lon="6.26436">
        <ele>821.1</ele>
        <time>2019-09-01T08:48:55Z</time>
      </trkpt>
      <trkpt lat="44.47356" lon="6.2647">
        <ele>823.3</ele>
        <time>2019-09-01T08:49:07Z</time>
      </trkpt>
      <trkpt lat="44.47389" lon="6.26506">
        <ele>828.9</ele>
        <time>2019-09-01T08:49:22Z</time>
      </trkpt>
      <trkpt lat="44.4739" lon="6.26553">
        <ele>833.3</ele>
        <time>2019-09-01T08:49:34Z</time>
      </trkpt>
      <trkpt lat="44.474" lon="6.26603">
        <ele>835.2</ele>
        <time>2019-09-01T08:49:47Z</time>
      </trkpt>
      <trkpt lat="44.4742" lon="6.26636">
        <ele>838.8</ele>
        <time>2019-09-01T08:49:58Z</time>
      </trkpt>
      <trkpt lat="44.47439" lon="6.26685">
        <ele>840.7</ele>
        <time>2019-09-01T08:50:12Z</time>
      </trkpt>
      <trkpt lat="44.4745" lon="6.2672">
        <ele>847.2</ele>
        <time>2019-09-01T08:50:22Z</time>
      </trkpt>
      <trkpt lat="44.47458" lon="6.26772">
        <ele>850.1</ele>
        <time>2019-09-01T08:50:36Z</time>
      </trkpt>
      <trkpt lat="44.47459" lon="6.26818">
        <ele>852</ele>
        <time>2019-09-01T08:50:48Z</time>
      </trkpt>
      <trkpt lat="44.47468" lon="6.26864">
        <ele>853</ele>
        <time>2019-09-01T08:51:00Z</time>
      </trkpt>
      <trkpt lat="44.4749" lon="6.26908">
        <ele>856.6</ele>
        <time>2019-09-01T08:51:14Z</time>
      </trkpt>
      <trkpt lat="44.47509" lon="6.26943">
        <ele>859.4</ele>
        <time>2019-09-01T08:51:25Z</time>
      </trkpt>
      <trkpt lat="44.47512" lon="6.26955">
        <ele>858.8</ele>
        <time>2019-09-01T08:51:29Z</time>
      </trkpt>
      <trkpt lat="44.47511" lon="6.26958">
        <ele>858.2</ele>
        <time>2019-09-01T08:51:30Z</time>
      </trkpt>
      <trkpt lat="44.47503" lon="6.26957">
        <ele>856.2</ele>
        <time>2019-09-01T08:51:34Z</time>
      </trkpt>
      <trkpt lat="44.475" lon="6.26953">
        <ele>855.9</ele>
        <time>2019-09-01T08:51:36Z</time>
      </trkpt>
      <trkpt lat="44.47498" lon="6.26952">
        <ele>855.2</ele>
        <time>2019-09-01T08:51:37Z</time>
      </trkpt>
      <trkpt lat="44.47496" lon="6.26951">
        <ele>854.4</ele>
        <time>2019-09-01T08:51:38Z</time>
      </trkpt>
      <trkpt lat="44.47488" lon="6.26962">
        <ele>848.6</ele>
        <time>2019-09-01T08:51:45Z</time>
      </trkpt>
      <trkpt lat="44.47488" lon="6.26965">
        <ele>848.3</ele>
        <time>2019-09-01T08:51:51Z</time>
      </trkpt>
      <trkpt lat="44.47494" lon="6.26954">
        <ele>852.9</ele>
        <time>2019-09-01T08:53:01Z</time>
      </trkpt>
      <trkpt lat="44.47502" lon="6.26954">
        <ele>856.1</ele>
        <time>2019-09-01T08:53:04Z</time>
      </trkpt>
      <trkpt lat="44.47505" lon="6.26956">
        <ele>856.7</ele>
        <time>2019-09-01T08:53:05Z</time>
      </trkpt>
      <trkpt lat="44.47507" lon="6.26958">
        <ele>857.1</ele>
        <time>2019-09-01T08:53:06Z</time>
      </trkpt>
      <trkpt lat="44.4751" lon="6.26961">
        <ele>857.6</ele>
        <time>2019-09-01T08:53:07Z</time>
      </trkpt>
      <trkpt lat="44.47542" lon="6.27022">
        <ele>862.8</ele>
        <time>2019-09-01T08:53:23Z</time>
      </trkpt>
      <trkpt lat="44.47576" lon="6.27091">
        <ele>864</ele>
        <time>2019-09-01T08:53:41Z</time>
      </trkpt>
      <trkpt lat="44.47614" lon="6.27068">
        <ele>867.2</ele>
        <time>2019-09-01T08:53:55Z</time>
      </trkpt>
      <trkpt lat="44.47637" lon="6.27037">
        <ele>870.3</ele>
        <time>2019-09-01T08:54:06Z</time>
      </trkpt>
      <trkpt lat="44.4764" lon="6.2699">
        <ele>873.7</ele>
        <time>2019-09-01T08:54:19Z</time>
      </trkpt>
      <trkpt lat="44.47614" lon="6.26951">
        <ele>875.8</ele>
        <time>2019-09-01T08:54:34Z</time>
      </trkpt>
      <trkpt lat="44.47633" lon="6.26929">
        <ele>877.4</ele>
        <time>2019-09-01T08:54:44Z</time>
      </trkpt>
      <trkpt lat="44.47661" lon="6.26892">
        <ele>878</ele>
        <time>2019-09-01T08:54:57Z</time>
      </trkpt>
      <trkpt lat="44.47666" lon="6.26836">
        <ele>878.9</ele>
        <time>2019-09-01T08:55:10Z</time>
      </trkpt>
      <trkpt lat="44.47678" lon="6.26778">
        <ele>883.8</ele>
        <time>2019-09-01T08:55:24Z</time>
      </trkpt>
      <trkpt lat="44.47684" lon="6.26705">
        <ele>886.5</ele>
        <time>2019-09-01T08:55:40Z</time>
      </trkpt>
      <trkpt lat="44.47669" lon="6.26631">
        <ele>885.5</ele>
        <time>2019-09-01T08:55:57Z</time>
      </trkpt>
      <trkpt lat="44.47675" lon="6.2658">
        <ele>890.3</ele>
        <time>2019-09-01T08:56:11Z</time>
      </trkpt>
      <trkpt lat="44.47698" lon="6.26557">
        <ele>892.4</ele>
        <time>2019-09-01T08:56:21Z</time>
      </trkpt>
      <trkpt lat="44.4771" lon="6.26521">
        <ele>893.7</ele>
        <time>2019-09-01T08:56:32Z</time>
      </trkpt>
      <trkpt lat="44.47707" lon="6.26475">
        <ele>896.9</ele>
        <time>2019-09-01T08:56:46Z</time>
      </trkpt>
      <trkpt lat="44.47704" lon="6.2647">
        <ele>897.9</ele>
        <time>2019-09-01T08:56:48Z</time>
      </trkpt>
      <trkpt lat="44.47685" lon="6.26442">
        <ele>902.5</ele>
        <time>2019-09-01T08:57:00Z</time>
      </trkpt>
      <trkpt lat="44.47677" lon="6.26405">
        <ele>905.6</ele>
        <time>2019-09-01T08:57:12Z</time>
      </trkpt>
      <trkpt lat="44.47693" lon="6.26369">
        <ele>908.5</ele>
        <time>2019-09-01T08:57:25Z</time>
      </trkpt>
      <trkpt lat="44.47698" lon="6.2634">
        <ele>911</ele>
        <time>2019-09-01T08:57:34Z</time>
      </trkpt>
      <trkpt lat="44.47696" lon="6.26327">
        <ele>912.5</ele>
        <time>2019-09-01T08:57:43Z</time>
      </trkpt>
      <trkpt lat="44.47693" lon="6.2631">
        <ele>914.5</ele>
        <time>2019-09-01T08:59:55Z</time>
      </trkpt>
      <trkpt lat="44.47692" lon="6.26309">
        <ele>914.7</ele>
        <time>2019-09-01T08:59:56Z</time>
      </trkpt>
      <trkpt lat="44.47688" lon="6.26299">
        <ele>915.9</ele>
        <time>2019-09-01T09:00:08Z</time>
      </trkpt>
      <trkpt lat="44.47679" lon="6.26289">
        <ele>917</ele>
        <time>2019-09-01T09:03:51Z</time>
      </trkpt>
      <trkpt lat="44.47654" lon="6.26261">
        <ele>919.1</ele>
        <time>2019-09-01T09:04:02Z</time>
      </trkpt>
      <trkpt lat="44.47637" lon="6.2621">
        <ele>923.3</ele>
        <time>2019-09-01T09:04:15Z</time>
      </trkpt>
      <trkpt lat="44.47617" lon="6.2615">
        <ele>925.5</ele>
        <time>2019-09-01T09:04:29Z</time>
      </trkpt>
      <trkpt lat="44.47587" lon="6.26091">
        <ele>926.4</ele>
        <time>2019-09-01T09:04:44Z</time>
      </trkpt>
      <trkpt lat="44.47579" lon="6.26056">
        <ele>930.1</ele>
        <time>2019-09-01T09:04:52Z</time>
      </trkpt>
      <trkpt lat="44.4758" lon="6.26053">
        <ele>930.5</ele>
        <time>2019-09-01T09:04:53Z</time>
      </trkpt>
      <trkpt lat="44.47583" lon="6.26049">
        <ele>930.9</ele>
        <time>2019-09-01T09:04:54Z</time>
      </trkpt>
      <trkpt lat="44.47585" lon="6.26046">
        <ele>931.3</ele>
        <time>2019-09-01T09:04:55Z</time>
      </trkpt>
      <trkpt lat="44.47588" lon="6.26043">
        <ele>931.6</ele>
        <time>2019-09-01T09:04:56Z</time>
      </trkpt>
      <trkpt lat="44.47591" lon="6.26041">
        <ele>931.8</ele>
        <time>2019-09-01T09:04:57Z</time>
      </trkpt>
      <trkpt lat="44.47594" lon="6.26038">
        <ele>932.1</ele>
        <time>2019-09-01T09:04:58Z</time>
      </trkpt>
      <trkpt lat="44.47596" lon="6.26035">
        <ele>932.3</ele>
        <time>2019-09-01T09:04:59Z</time>
      </trkpt>
      <trkpt lat="44.47598" lon="6.26031">
        <ele>932.6</ele>
        <time>2019-09-01T09:05:00Z</time>
      </trkpt>
      <trkpt lat="44.47613" lon="6.26011">
        <ele>934.6</ele>
        <time>2019-09-01T09:05:06Z</time>
      </trkpt>
      <trkpt lat="44.47631" lon="6.25983">
        <ele>935.6</ele>
        <time>2019-09-01T09:05:14Z</time>
      </trkpt>
      <trkpt lat="44.4765" lon="6.25935">
        <ele>941.2</ele>
        <time>2019-09-01T09:05:25Z</time>
      </trkpt>
      <trkpt lat="44.4767" lon="6.2589">
        <ele>944.4</ele>
        <time>2019-09-01T09:05:37Z</time>
      </trkpt>
      <trkpt lat="44.47674" lon="6.25851">
        <ele>948.5</ele>
        <time>2019-09-01T09:05:46Z</time>
      </trkpt>
      <trkpt lat="44.47693" lon="6.25823">
        <ele>950.9</ele>
        <time>2019-09-01T09:05:56Z</time>
      </trkpt>
      <trkpt lat="44.47722" lon="6.25808">
        <ele>953.6</ele>
        <time>2019-09-01T09:06:06Z</time>
      </trkpt>
      <trkpt lat="44.4774" lon="6.25783">
        <ele>955.6</ele>
        <time>2019-09-01T09:06:14Z</time>
      </trkpt>
      <trkpt lat="44.47751" lon="6.2573">
        <ele>959.6</ele>
        <time>2019-09-01T09:06:27Z</time>
      </trkpt>
      <trkpt lat="44.47746" lon="6.25687">
        <ele>962.8</ele>
        <time>2019-09-01T09:06:37Z</time>
      </trkpt>
      <trkpt lat="44.47741" lon="6.25631">
        <ele>965.1</ele>
        <time>2019-09-01T09:06:50Z</time>
      </trkpt>
      <trkpt lat="44.47745" lon="6.25563">
        <ele>971</ele>
        <time>2019-09-01T09:07:06Z</time>
      </trkpt>
      <trkpt lat="44.4775" lon="6.25528">
        <ele>973</ele>
        <time>2019-09-01T09:07:15Z</time>
      </trkpt>
      <trkpt lat="44.47765" lon="6.25495">
        <ele>976.5</ele>
        <time>2019-09-01T09:07:25Z</time>
      </trkpt>
      <trkpt lat="44.47791" lon="6.2546">
        <ele>980.1</ele>
        <time>2019-09-01T09:07:38Z</time>
      </trkpt>
      <trkpt lat="44.47813" lon="6.2543">
        <ele>983.4</ele>
        <time>2019-09-01T09:07:49Z</time>
      </trkpt>
      <trkpt lat="44.47834" lon="6.254">
        <ele>987.4</ele>
        <time>2019-09-01T09:08:00Z</time>
      </trkpt>
      <trkpt lat="44.47855" lon="6.25379">
        <ele>989.1</ele>
        <time>2019-09-01T09:08:10Z</time>
      </trkpt>
      <trkpt lat="44.47882" lon="6.2536">
        <ele>990.7</ele>
        <time>2019-09-01T09:08:21Z</time>
      </trkpt>
      <trkpt lat="44.47886" lon="6.25333">
        <ele>994.4</ele>
        <time>2019-09-01T09:08:29Z</time>
      </trkpt>
      <trkpt lat="44.47883" lon="6.25331">
        <ele>995</ele>
        <time>2019-09-01T09:08:30Z</time>
      </trkpt>
      <trkpt lat="44.47879" lon="6.25331">
        <ele>995.5</ele>
        <time>2019-09-01T09:08:31Z</time>
      </trkpt>
      <trkpt lat="44.47876" lon="6.25331">
        <ele>995.9</ele>
        <time>2019-09-01T09:08:32Z</time>
      </trkpt>
      <trkpt lat="44.47873" lon="6.25331">
        <ele>996.2</ele>
        <time>2019-09-01T09:08:33Z</time>
      </trkpt>
      <trkpt lat="44.4787" lon="6.25331">
        <ele>996.5</ele>
        <time>2019-09-01T09:08:34Z</time>
      </trkpt>
      <trkpt lat="44.47867" lon="6.25331">
        <ele>996.8</ele>
        <time>2019-09-01T09:08:35Z</time>
      </trkpt>
      <trkpt lat="44.47864" lon="6.2533">
        <ele>997.2</ele>
        <time>2019-09-01T09:08:36Z</time>
      </trkpt>
      <trkpt lat="44.47847" lon="6.25309">
        <ele>1001.4</ele>
        <time>2019-09-01T09:08:45Z</time>
      </trkpt>
      <trkpt lat="44.47848" lon="6.25305">
        <ele>1002.1</ele>
        <time>2019-09-01T09:08:46Z</time>
      </trkpt>
      <trkpt lat="44.47854" lon="6.25267">
        <ele>1005.3</ele>
        <time>2019-09-01T09:08:56Z</time>
      </trkpt>
      <trkpt lat="44.4786" lon="6.25243">
        <ele>1007.7</ele>
        <time>2019-09-01T09:09:03Z</time>
      </trkpt>
      <trkpt lat="44.47856" lon="6.25203">
        <ele>1011.7</ele>
        <time>2019-09-01T09:09:14Z</time>
      </trkpt>
      <trkpt lat="44.47838" lon="6.25172">
        <ele>1012.5</ele>
        <time>2019-09-01T09:09:24Z</time>
      </trkpt>
      <trkpt lat="44.47821" lon="6.25117">
        <ele>1012.7</ele>
        <time>2019-09-01T09:09:40Z</time>
      </trkpt>
      <trkpt lat="44.4782" lon="6.25115">
        <ele>1012.4</ele>
        <time>2019-09-01T09:09:45Z</time>
      </trkpt>
      <trkpt lat="44.47815" lon="6.25104">
        <ele>1012</ele>
        <time>2019-09-01T09:10:59Z</time>
      </trkpt>
      <trkpt lat="44.47813" lon="6.251">
        <ele>1012.1</ele>
        <time>2019-09-01T09:11:00Z</time>
      </trkpt>
      <trkpt lat="44.47791" lon="6.25046">
        <ele>1014.2</ele>
        <time>2019-09-01T09:11:13Z</time>
      </trkpt>
      <trkpt lat="44.47769" lon="6.24992">
        <ele>1018</ele>
        <time>2019-09-01T09:11:26Z</time>
      </trkpt>
      <trkpt lat="44.47763" lon="6.2496">
        <ele>1019.9</ele>
        <time>2019-09-01T09:11:33Z</time>
      </trkpt>
      <trkpt lat="44.47762" lon="6.24915">
        <ele>1023.3</ele>
        <time>2019-09-01T09:11:43Z</time>
      </trkpt>
      <trkpt lat="44.47779" lon="6.24853">
        <ele>1023.5</ele>
        <time>2019-09-01T09:11:57Z</time>
      </trkpt>
      <trkpt lat="44.47803" lon="6.24799">
        <ele>1024.3</ele>
        <time>2019-09-01T09:12:10Z</time>
      </trkpt>
      <trkpt lat="44.47804" lon="6.24794">
        <ele>1024.2</ele>
        <time>2019-09-01T09:12:11Z</time>
      </trkpt>
      <trkpt lat="44.47804" lon="6.24788">
        <ele>1023.9</ele>
        <time>2019-09-01T09:12:12Z</time>
      </trkpt>
      <trkpt lat="44.47802" lon="6.24782">
        <ele>1023.3</ele>
        <time>2019-09-01T09:12:13Z</time>
      </trkpt>
      <trkpt lat="44.478" lon="6.24777">
        <ele>1022.6</ele>
        <time>2019-09-01T09:12:14Z</time>
      </trkpt>
      <trkpt lat="44.47798" lon="6.24772">
        <ele>1023.1</ele>
        <time>2019-09-01T09:12:15Z</time>
      </trkpt>
      <trkpt lat="44.47789" lon="6.24705">
        <ele>1031.6</ele>
        <time>2019-09-01T09:12:28Z</time>
      </trkpt>
      <trkpt lat="44.4779" lon="6.24665">
        <ele>1035.3</ele>
        <time>2019-09-01T09:12:36Z</time>
      </trkpt>
      <trkpt lat="44.47803" lon="6.24632">
        <ele>1037.7</ele>
        <time>2019-09-01T09:12:43Z</time>
      </trkpt>
      <trkpt lat="44.47813" lon="6.24605">
        <ele>1039.2</ele>
        <time>2019-09-01T09:12:49Z</time>
      </trkpt>
      <trkpt lat="44.47823" lon="6.24572">
        <ele>1040.9</ele>
        <time>2019-09-01T09:12:56Z</time>
      </trkpt>
      <trkpt lat="44.47863" lon="6.24524">
        <ele>1043.8</ele>
        <time>2019-09-01T09:13:09Z</time>
      </trkpt>
      <trkpt lat="44.4789" lon="6.24499">
        <ele>1048.4</ele>
        <time>2019-09-01T09:13:20Z</time>
      </trkpt>
      <trkpt lat="44.47895" lon="6.2449">
        <ele>1050.2</ele>
        <time>2019-09-01T09:13:23Z</time>
      </trkpt>
      <trkpt lat="44.47895" lon="6.24486">
        <ele>1050.5</ele>
        <time>2019-09-01T09:13:24Z</time>
      </trkpt>
      <trkpt lat="44.47894" lon="6.24484">
        <ele>1050.7</ele>
        <time>2019-09-01T09:13:25Z</time>
      </trkpt>
      <trkpt lat="44.47892" lon="6.24482">
        <ele>1050.7</ele>
        <time>2019-09-01T09:13:26Z</time>
      </trkpt>
      <trkpt lat="44.47889" lon="6.24482">
        <ele>1050.5</ele>
        <time>2019-09-01T09:13:27Z</time>
      </trkpt>
      <trkpt lat="44.47886" lon="6.24483">
        <ele>1050.4</ele>
        <time>2019-09-01T09:13:28Z</time>
      </trkpt>
      <trkpt lat="44.47882" lon="6.24484">
        <ele>1050.2</ele>
        <time>2019-09-01T09:13:29Z</time>
      </trkpt>
      <trkpt lat="44.47879" lon="6.24485">
        <ele>1050</ele>
        <time>2019-09-01T09:13:30Z</time>
      </trkpt>
      <trkpt lat="44.47876" lon="6.24485">
        <ele>1049.9</ele>
        <time>2019-09-01T09:13:31Z</time>
      </trkpt>
      <trkpt lat="44.47873" lon="6.24485">
        <ele>1050</ele>
        <time>2019-09-01T09:13:32Z</time>
      </trkpt>
      <trkpt lat="44.4787" lon="6.24483">
        <ele>1050.1</ele>
        <time>2019-09-01T09:13:33Z</time>
      </trkpt>
      <trkpt lat="44.47867" lon="6.24482">
        <ele>1050.3</ele>
        <time>2019-09-01T09:13:34Z</time>
      </trkpt>
      <trkpt lat="44.47864" lon="6.2448">
        <ele>1050.6</ele>
        <time>2019-09-01T09:13:35Z</time>
      </trkpt>
      <trkpt lat="44.47861" lon="6.24478">
        <ele>1050.9</ele>
        <time>2019-09-01T09:13:36Z</time>
      </trkpt>
      <trkpt lat="44.47859" lon="6.24476">
        <ele>1051.1</ele>
        <time>2019-09-01T09:13:37Z</time>
      </trkpt>
      <trkpt lat="44.47829" lon="6.24424">
        <ele>1056.1</ele>
        <time>2019-09-01T09:13:52Z</time>
      </trkpt>
      <trkpt lat="44.47821" lon="6.24381">
        <ele>1060.8</ele>
        <time>2019-09-01T09:14:03Z</time>
      </trkpt>
      <trkpt lat="44.47814" lon="6.24352">
        <ele>1062.3</ele>
        <time>2019-09-01T09:14:11Z</time>
      </trkpt>
      <trkpt lat="44.47772" lon="6.24317">
        <ele>1062.8</ele>
        <time>2019-09-01T09:14:25Z</time>
      </trkpt>
      <trkpt lat="44.4776" lon="6.24305">
        <ele>1063.5</ele>
        <time>2019-09-01T09:14:29Z</time>
      </trkpt>
      <trkpt lat="44.47757" lon="6.243">
        <ele>1063.6</ele>
        <time>2019-09-01T09:14:30Z</time>
      </trkpt>
      <trkpt lat="44.47755" lon="6.24296">
        <ele>1063.6</ele>
        <time>2019-09-01T09:14:31Z</time>
      </trkpt>
      <trkpt lat="44.47753" lon="6.24291">
        <ele>1063.6</ele>
        <time>2019-09-01T09:14:32Z</time>
      </trkpt>
      <trkpt lat="44.47751" lon="6.24286">
        <ele>1063.5</ele>
        <time>2019-09-01T09:14:33Z</time>
      </trkpt>
      <trkpt lat="44.47751" lon="6.24214">
        <ele>1064.8</ele>
        <time>2019-09-01T09:14:47Z</time>
      </trkpt>
      <trkpt lat="44.47753" lon="6.24209">
        <ele>1065</ele>
        <time>2019-09-01T09:14:48Z</time>
      </trkpt>
      <trkpt lat="44.47756" lon="6.24205">
        <ele>1065.1</ele>
        <time>2019-09-01T09:14:49Z</time>
      </trkpt>
      <trkpt lat="44.47758" lon="6.24201">
        <ele>1065</ele>
        <time>2019-09-01T09:14:50Z</time>
      </trkpt>
      <trkpt lat="44.47761" lon="6.24197">
        <ele>1064.7</ele>
        <time>2019-09-01T09:14:51Z</time>
      </trkpt>
      <trkpt lat="44.47765" lon="6.24194">
        <ele>1064.4</ele>
        <time>2019-09-01T09:14:52Z</time>
      </trkpt>
      <trkpt lat="44.47768" lon="6.24191">
        <ele>1064.2</ele>
        <time>2019-09-01T09:14:53Z</time>
      </trkpt>
      <trkpt lat="44.47817" lon="6.24167">
        <ele>1064.3</ele>
        <time>2019-09-01T09:15:06Z</time>
      </trkpt>
      <trkpt lat="44.47843" lon="6.24112">
        <ele>1065.5</ele>
        <time>2019-09-01T09:15:18Z</time>
      </trkpt>
      <trkpt lat="44.47844" lon="6.24107">
        <ele>1065.4</ele>
        <time>2019-09-01T09:15:19Z</time>
      </trkpt>
      <trkpt lat="44.47845" lon="6.24101">
        <ele>1065.4</ele>
        <time>2019-09-01T09:15:20Z</time>
      </trkpt>
      <trkpt lat="44.47841" lon="6.24004">
        <ele>1065.5</ele>
        <time>2019-09-01T09:15:34Z</time>
      </trkpt>
      <trkpt lat="44.47843" lon="6.23982">
        <ele>1066.6</ele>
        <time>2019-09-01T09:15:37Z</time>
      </trkpt>
      <trkpt lat="44.47844" lon="6.23975">
        <ele>1066.8</ele>
        <time>2019-09-01T09:15:38Z</time>
      </trkpt>
      <trkpt lat="44.47846" lon="6.23924">
        <ele>1070.5</ele>
        <time>2019-09-01T09:15:48Z</time>
      </trkpt>
      <trkpt lat="44.4784" lon="6.23907">
        <ele>1070</ele>
        <time>2019-09-01T09:15:54Z</time>
      </trkpt>
      <trkpt lat="44.4784" lon="6.23906">
        <ele>1069.9</ele>
        <time>2019-09-01T09:15:59Z</time>
      </trkpt>
      <trkpt lat="44.47862" lon="6.23887">
        <ele>1070</ele>
        <time>2019-09-01T09:20:05Z</time>
      </trkpt>
      <trkpt lat="44.47864" lon="6.23883">
        <ele>1070</ele>
        <time>2019-09-01T09:20:06Z</time>
      </trkpt>
      <trkpt lat="44.47866" lon="6.23878">
        <ele>1070.1</ele>
        <time>2019-09-01T09:20:07Z</time>
      </trkpt>
      <trkpt lat="44.47877" lon="6.23859">
        <ele>1071.8</ele>
        <time>2019-09-01T09:20:11Z</time>
      </trkpt>
      <trkpt lat="44.47881" lon="6.23855">
        <ele>1072.4</ele>
        <time>2019-09-01T09:20:12Z</time>
      </trkpt>
      <trkpt lat="44.47917" lon="6.23819">
        <ele>1076</ele>
        <time>2019-09-01T09:20:25Z</time>
      </trkpt>
      <trkpt lat="44.47938" lon="6.23831">
        <ele>1075.9</ele>
        <time>2019-09-01T09:20:31Z</time>
      </trkpt>
      <trkpt lat="44.47978" lon="6.23833">
        <ele>1081.1</ele>
        <time>2019-09-01T09:20:43Z</time>
      </trkpt>
      <trkpt lat="44.47992" lon="6.23818">
        <ele>1083.7</ele>
        <time>2019-09-01T09:20:51Z</time>
      </trkpt>
      <trkpt lat="44.47993" lon="6.23819">
        <ele>1084.4</ele>
        <time>2019-09-01T09:20:52Z</time>
      </trkpt>
      <trkpt lat="44.47995" lon="6.23821">
        <ele>1085.2</ele>
        <time>2019-09-01T09:20:53Z</time>
      </trkpt>
      <trkpt lat="44.47996" lon="6.23824">
        <ele>1085.9</ele>
        <time>2019-09-01T09:20:54Z</time>
      </trkpt>
      <trkpt lat="44.47995" lon="6.23827">
        <ele>1086.4</ele>
        <time>2019-09-01T09:20:55Z</time>
      </trkpt>
      <trkpt lat="44.47995" lon="6.23831">
        <ele>1086.6</ele>
        <time>2019-09-01T09:20:56Z</time>
      </trkpt>
      <trkpt lat="44.47991" lon="6.23854">
        <ele>1087.3</ele>
        <time>2019-09-01T09:21:03Z</time>
      </trkpt>
      <trkpt lat="44.47991" lon="6.23857">
        <ele>1087.7</ele>
        <time>2019-09-01T09:21:04Z</time>
      </trkpt>
      <trkpt lat="44.4799" lon="6.23874">
        <ele>1088.6</ele>
        <time>2019-09-01T09:21:09Z</time>
      </trkpt>
      <trkpt lat="44.48002" lon="6.2391">
        <ele>1091.6</ele>
        <time>2019-09-01T09:21:19Z</time>
      </trkpt>
      <trkpt lat="44.48017" lon="6.23932">
        <ele>1093</ele>
        <time>2019-09-01T09:21:28Z</time>
      </trkpt>
      <trkpt lat="44.48028" lon="6.23943">
        <ele>1094.4</ele>
        <time>2019-09-01T09:21:33Z</time>
      </trkpt>
      <trkpt lat="44.48031" lon="6.23945">
        <ele>1094.9</ele>
        <time>2019-09-01T09:21:34Z</time>
      </trkpt>
      <trkpt lat="44.48034" lon="6.23947">
        <ele>1095.3</ele>
        <time>2019-09-01T09:21:35Z</time>
      </trkpt>
      <trkpt lat="44.48037" lon="6.23949">
        <ele>1095.7</ele>
        <time>2019-09-01T09:21:36Z</time>
      </trkpt>
      <trkpt lat="44.4804" lon="6.23951">
        <ele>1096</ele>
        <time>2019-09-01T09:21:37Z</time>
      </trkpt>
      <trkpt lat="44.48072" lon="6.23969">
        <ele>1099.4</ele>
        <time>2019-09-01T09:21:49Z</time>
      </trkpt>
      <trkpt lat="44.48094" lon="6.2398">
        <ele>1103.2</ele>
        <time>2019-09-01T09:21:59Z</time>
      </trkpt>
      <trkpt lat="44.48098" lon="6.23979">
        <ele>1104.8</ele>
        <time>2019-09-01T09:22:01Z</time>
      </trkpt>
      <trkpt lat="44.48098" lon="6.23976">
        <ele>1105.5</ele>
        <time>2019-09-01T09:22:02Z</time>
      </trkpt>
      <trkpt lat="44.48098" lon="6.23974">
        <ele>1105.9</ele>
        <time>2019-09-01T09:22:03Z</time>
      </trkpt>
      <trkpt lat="44.48096" lon="6.23971">
        <ele>1106.1</ele>
        <time>2019-09-01T09:22:04Z</time>
      </trkpt>
      <trkpt lat="44.48094" lon="6.23968">
        <ele>1106.2</ele>
        <time>2019-09-01T09:22:05Z</time>
      </trkpt>
      <trkpt lat="44.48092" lon="6.23966">
        <ele>1106</ele>
        <time>2019-09-01T09:22:06Z</time>
      </trkpt>
      <trkpt lat="44.4809" lon="6.23964">
        <ele>1105.8</ele>
        <time>2019-09-01T09:22:07Z</time>
      </trkpt>
      <trkpt lat="44.48068" lon="6.23934">
        <ele>1108.5</ele>
        <time>2019-09-01T09:22:19Z</time>
      </trkpt>
      <trkpt lat="44.48059" lon="6.23914">
        <ele>1111.9</ele>
        <time>2019-09-01T09:22:26Z</time>
      </trkpt>
      <trkpt lat="44.48058" lon="6.23898">
        <ele>1113.3</ele>
        <time>2019-09-01T09:22:32Z</time>
      </trkpt>
      <trkpt lat="44.48059" lon="6.23896">
        <ele>1113.6</ele>
        <time>2019-09-01T09:22:33Z</time>
      </trkpt>
      <trkpt lat="44.48061" lon="6.23895">
        <ele>1113.9</ele>
        <time>2019-09-01T09:22:34Z</time>
      </trkpt>
      <trkpt lat="44.48063" lon="6.23895">
        <ele>1114</ele>
        <time>2019-09-01T09:22:35Z</time>
      </trkpt>
      <trkpt lat="44.48065" lon="6.23896">
        <ele>1114.2</ele>
        <time>2019-09-01T09:22:36Z</time>
      </trkpt>
      <trkpt lat="44.48067" lon="6.23897">
        <ele>1114.3</ele>
        <time>2019-09-01T09:22:37Z</time>
      </trkpt>
      <trkpt lat="44.48069" lon="6.23899">
        <ele>1114.5</ele>
        <time>2019-09-01T09:22:38Z</time>
      </trkpt>
      <trkpt lat="44.48072" lon="6.239">
        <ele>1114.6</ele>
        <time>2019-09-01T09:22:39Z</time>
      </trkpt>
      <trkpt lat="44.48096" lon="6.23914">
        <ele>1119</ele>
        <time>2019-09-01T09:22:50Z</time>
      </trkpt>
      <trkpt lat="44.48113" lon="6.2393">
        <ele>1121.5</ele>
        <time>2019-09-01T09:22:59Z</time>
      </trkpt>
      <trkpt lat="44.48134" lon="6.23957">
        <ele>1124.9</ele>
        <time>2019-09-01T09:23:10Z</time>
      </trkpt>
      <trkpt lat="44.48151" lon="6.23988">
        <ele>1126.6</ele>
        <time>2019-09-01T09:23:21Z</time>
      </trkpt>
      <trkpt lat="44.48167" lon="6.24034">
        <ele>1133.1</ele>
        <time>2019-09-01T09:23:34Z</time>
      </trkpt>
      <trkpt lat="44.48176" lon="6.24073">
        <ele>1135.3</ele>
        <time>2019-09-01T09:23:45Z</time>
      </trkpt>
      <trkpt lat="44.48184" lon="6.24097">
        <ele>1138.8</ele>
        <time>2019-09-01T09:23:53Z</time>
      </trkpt>
      <trkpt lat="44.4819" lon="6.24123">
        <ele>1141.4</ele>
        <time>2019-09-01T09:24:01Z</time>
      </trkpt>
      <trkpt lat="44.4821" lon="6.24143">
        <ele>1143.8</ele>
        <time>2019-09-01T09:24:12Z</time>
      </trkpt>
      <trkpt lat="44.48247" lon="6.24186">
        <ele>1149.9</ele>
        <time>2019-09-01T09:24:29Z</time>
      </trkpt>
      <trkpt lat="44.48262" lon="6.24227">
        <ele>1151.1</ele>
        <time>2019-09-01T09:24:41Z</time>
      </trkpt>
      <trkpt lat="44.48291" lon="6.24263">
        <ele>1151.6</ele>
        <time>2019-09-01T09:24:55Z</time>
      </trkpt>
      <trkpt lat="44.48328" lon="6.24285">
        <ele>1159.2</ele>
        <time>2019-09-01T09:25:08Z</time>
      </trkpt>
      <trkpt lat="44.48339" lon="6.24321">
        <ele>1161.8</ele>
        <time>2019-09-01T09:25:18Z</time>
      </trkpt>
      <trkpt lat="44.48344" lon="6.24324">
        <ele>1164</ele>
        <time>2019-09-01T09:25:21Z</time>
      </trkpt>
      <trkpt lat="44.48346" lon="6.24322">
        <ele>1164.6</ele>
        <time>2019-09-01T09:25:22Z</time>
      </trkpt>
      <trkpt lat="44.48347" lon="6.24319">
        <ele>1165.1</ele>
        <time>2019-09-01T09:25:23Z</time>
      </trkpt>
      <trkpt lat="44.48348" lon="6.24316">
        <ele>1165.3</ele>
        <time>2019-09-01T09:25:24Z</time>
      </trkpt>
      <trkpt lat="44.48349" lon="6.24313">
        <ele>1165.3</ele>
        <time>2019-09-01T09:25:25Z</time>
      </trkpt>
      <trkpt lat="44.48348" lon="6.24309">
        <ele>1164.8</ele>
        <time>2019-09-01T09:25:26Z</time>
      </trkpt>
      <trkpt lat="44.48347" lon="6.24306">
        <ele>1164.5</ele>
        <time>2019-09-01T09:25:27Z</time>
      </trkpt>
      <trkpt lat="44.48347" lon="6.24263">
        <ele>1164.3</ele>
        <time>2019-09-01T09:25:38Z</time>
      </trkpt>
      <trkpt lat="44.48361" lon="6.24228">
        <ele>1166.2</ele>
        <time>2019-09-01T09:25:50Z</time>
      </trkpt>
      <trkpt lat="44.48386" lon="6.24237">
        <ele>1166.6</ele>
        <time>2019-09-01T09:26:00Z</time>
      </trkpt>
      <trkpt lat="44.48413" lon="6.24257">
        <ele>1166.6</ele>
        <time>2019-09-01T09:26:11Z</time>
      </trkpt>
      <trkpt lat="44.48438" lon="6.24284">
        <ele>1166.5</ele>
        <time>2019-09-01T09:26:21Z</time>
      </trkpt>
      <trkpt lat="44.48445" lon="6.24321">
        <ele>1171.4</ele>
        <time>2019-09-01T09:26:31Z</time>
      </trkpt>
      <trkpt lat="44.48457" lon="6.24363">
        <ele>1175.5</ele>
        <time>2019-09-01T09:26:42Z</time>
      </trkpt>
      <trkpt lat="44.48471" lon="6.24372">
        <ele>1172.3</ele>
        <time>2019-09-01T09:26:46Z</time>
      </trkpt>
      <trkpt lat="44.48476" lon="6.24373">
        <ele>1171.7</ele>
        <time>2019-09-01T09:26:47Z</time>
      </trkpt>
      <trkpt lat="44.48524" lon="6.2437">
        <ele>1173.2</ele>
        <time>2019-09-01T09:26:59Z</time>
      </trkpt>
      <trkpt lat="44.4855" lon="6.24342">
        <ele>1166.7</ele>
        <time>2019-09-01T09:27:11Z</time>
      </trkpt>
      <trkpt lat="44.48576" lon="6.24354">
        <ele>1178.8</ele>
        <time>2019-09-01T09:27:20Z</time>
      </trkpt>
      <trkpt lat="44.486" lon="6.24323">
        <ele>1170.2</ele>
        <time>2019-09-01T09:27:30Z</time>
      </trkpt>
      <trkpt lat="44.48631" lon="6.24318">
        <ele>1171.4</ele>
        <time>2019-09-01T09:27:42Z</time>
      </trkpt>
      <trkpt lat="44.48665" lon="6.24348">
        <ele>1179.7</ele>
        <time>2019-09-01T09:27:55Z</time>
      </trkpt>
      <trkpt lat="44.48692" lon="6.24374">
        <ele>1181.8</ele>
        <time>2019-09-01T09:28:07Z</time>
      </trkpt>
      <trkpt lat="44.48715" lon="6.24402">
        <ele>1186.2</ele>
        <time>2019-09-01T09:28:19Z</time>
      </trkpt>
      <trkpt lat="44.48729" lon="6.24422">
        <ele>1189.9</ele>
        <time>2019-09-01T09:28:28Z</time>
      </trkpt>
      <trkpt lat="44.48747" lon="6.24441">
        <ele>1190.3</ele>
        <time>2019-09-01T09:28:39Z</time>
      </trkpt>
      <trkpt lat="44.48766" lon="6.24473">
        <ele>1195.7</ele>
        <time>2019-09-01T09:28:51Z</time>
      </trkpt>
      <trkpt lat="44.48791" lon="6.24501">
        <ele>1196.1</ele>
        <time>2019-09-01T09:29:05Z</time>
      </trkpt>
      <trkpt lat="44.48816" lon="6.24541">
        <ele>1199.8</ele>
        <time>2019-09-01T09:29:22Z</time>
      </trkpt>
      <trkpt lat="44.48841" lon="6.24574">
        <ele>1201.3</ele>
        <time>2019-09-01T09:29:35Z</time>
      </trkpt>
      <trkpt lat="44.48871" lon="6.24608">
        <ele>1203.5</ele>
        <time>2019-09-01T09:29:48Z</time>
      </trkpt>
      <trkpt lat="44.48896" lon="6.24631">
        <ele>1203.8</ele>
        <time>2019-09-01T09:30:00Z</time>
      </trkpt>
      <trkpt lat="44.48922" lon="6.24662">
        <ele>1207.5</ele>
        <time>2019-09-01T09:30:13Z</time>
      </trkpt>
      <trkpt lat="44.48945" lon="6.24683">
        <ele>1208.9</ele>
        <time>2019-09-01T09:30:23Z</time>
      </trkpt>
      <trkpt lat="44.48972" lon="6.247">
        <ele>1209.3</ele>
        <time>2019-09-01T09:30:35Z</time>
      </trkpt>
      <trkpt lat="44.48999" lon="6.24729">
        <ele>1215.9</ele>
        <time>2019-09-01T09:30:48Z</time>
      </trkpt>
      <trkpt lat="44.49025" lon="6.24751">
        <ele>1219.9</ele>
        <time>2019-09-01T09:31:01Z</time>
      </trkpt>
      <trkpt lat="44.49059" lon="6.24764">
        <ele>1218.3</ele>
        <time>2019-09-01T09:31:14Z</time>
      </trkpt>
      <trkpt lat="44.49083" lon="6.24796">
        <ele>1218.4</ele>
        <time>2019-09-01T09:31:22Z</time>
      </trkpt>
      <trkpt lat="44.49101" lon="6.24846">
        <ele>1218.8</ele>
        <time>2019-09-01T09:31:32Z</time>
      </trkpt>
      <trkpt lat="44.49112" lon="6.24895">
        <ele>1216.2</ele>
        <time>2019-09-01T09:31:44Z</time>
      </trkpt>
      <trkpt lat="44.49114" lon="6.24907">
        <ele>1215.9</ele>
        <time>2019-09-01T09:31:46Z</time>
      </trkpt>
      <trkpt lat="44.49117" lon="6.24919">
        <ele>1215.3</ele>
        <time>2019-09-01T09:31:48Z</time>
      </trkpt>
      <trkpt lat="44.49129" lon="6.24993">
        <ele>1211.8</ele>
        <time>2019-09-01T09:31:59Z</time>
      </trkpt>
      <trkpt lat="44.49124" lon="6.25057">
        <ele>1213.2</ele>
        <time>2019-09-01T09:32:12Z</time>
      </trkpt>
      <trkpt lat="44.49102" lon="6.25115">
        <ele>1214.4</ele>
        <time>2019-09-01T09:32:25Z</time>
      </trkpt>
      <trkpt lat="44.49084" lon="6.25177">
        <ele>1215.6</ele>
        <time>2019-09-01T09:32:41Z</time>
      </trkpt>
      <trkpt lat="44.49064" lon="6.25231">
        <ele>1221.5</ele>
        <time>2019-09-01T09:32:57Z</time>
      </trkpt>
      <trkpt lat="44.49065" lon="6.25279">
        <ele>1221.8</ele>
        <time>2019-09-01T09:33:09Z</time>
      </trkpt>
      <trkpt lat="44.49078" lon="6.25331">
        <ele>1223.5</ele>
        <time>2019-09-01T09:33:23Z</time>
      </trkpt>
      <trkpt lat="44.49085" lon="6.25374">
        <ele>1229.3</ele>
        <time>2019-09-01T09:33:36Z</time>
      </trkpt>
      <trkpt lat="44.49108" lon="6.25395">
        <ele>1229.5</ele>
        <time>2019-09-01T09:33:48Z</time>
      </trkpt>
      <trkpt lat="44.4914" lon="6.25415">
        <ele>1230.5</ele>
        <time>2019-09-01T09:34:01Z</time>
      </trkpt>
      <trkpt lat="44.49175" lon="6.25413">
        <ele>1228.4</ele>
        <time>2019-09-01T09:34:11Z</time>
      </trkpt>
      <trkpt lat="44.49179" lon="6.25411">
        <ele>1228</ele>
        <time>2019-09-01T09:34:12Z</time>
      </trkpt>
      <trkpt lat="44.49183" lon="6.25408">
        <ele>1227.5</ele>
        <time>2019-09-01T09:34:13Z</time>
      </trkpt>
      <trkpt lat="44.49186" lon="6.25406">
        <ele>1227</ele>
        <time>2019-09-01T09:34:14Z</time>
      </trkpt>
      <trkpt lat="44.49188" lon="6.25403">
        <ele>1226.6</ele>
        <time>2019-09-01T09:34:15Z</time>
      </trkpt>
      <trkpt lat="44.49233" lon="6.25369">
        <ele>1226.9</ele>
        <time>2019-09-01T09:34:31Z</time>
      </trkpt>
      <trkpt lat="44.49236" lon="6.25367">
        <ele>1227.3</ele>
        <time>2019-09-01T09:34:32Z</time>
      </trkpt>
      <trkpt lat="44.49239" lon="6.25365">
        <ele>1227.5</ele>
        <time>2019-09-01T09:34:33Z</time>
      </trkpt>
      <trkpt lat="44.49269" lon="6.25316">
        <ele>1227.7</ele>
        <time>2019-09-01T09:34:47Z</time>
      </trkpt>
      <trkpt lat="44.49301" lon="6.25262">
        <ele>1229.6</ele>
        <time>2019-09-01T09:35:03Z</time>
      </trkpt>
      <trkpt lat="44.49343" lon="6.25205">
        <ele>1231.9</ele>
        <time>2019-09-01T09:35:21Z</time>
      </trkpt>
      <trkpt lat="44.49369" lon="6.2516">
        <ele>1236.4</ele>
        <time>2019-09-01T09:35:35Z</time>
      </trkpt>
      <trkpt lat="44.49384" lon="6.25139">
        <ele>1239.4</ele>
        <time>2019-09-01T09:35:44Z</time>
      </trkpt>
      <trkpt lat="44.49403" lon="6.25131">
        <ele>1243.1</ele>
        <time>2019-09-01T09:35:53Z</time>
      </trkpt>
      <trkpt lat="44.49419" lon="6.25138">
        <ele>1247</ele>
        <time>2019-09-01T09:36:00Z</time>
      </trkpt>
      <trkpt lat="44.4945" lon="6.25143">
        <ele>1249.6</ele>
        <time>2019-09-01T09:36:14Z</time>
      </trkpt>
      <trkpt lat="44.4946" lon="6.25151">
        <ele>1250.7</ele>
        <time>2019-09-01T09:36:20Z</time>
      </trkpt>
      <trkpt lat="44.4946" lon="6.25154">
        <ele>1251.2</ele>
        <time>2019-09-01T09:36:21Z</time>
      </trkpt>
      <trkpt lat="44.4946" lon="6.25157">
        <ele>1251.6</ele>
        <time>2019-09-01T09:36:22Z</time>
      </trkpt>
      <trkpt lat="44.49459" lon="6.25159">
        <ele>1252</ele>
        <time>2019-09-01T09:36:23Z</time>
      </trkpt>
      <trkpt lat="44.49458" lon="6.25162">
        <ele>1252.3</ele>
        <time>2019-09-01T09:36:24Z</time>
      </trkpt>
      <trkpt lat="44.49456" lon="6.25164">
        <ele>1252.6</ele>
        <time>2019-09-01T09:36:25Z</time>
      </trkpt>
      <trkpt lat="44.49455" lon="6.25167">
        <ele>1253</ele>
        <time>2019-09-01T09:36:26Z</time>
      </trkpt>
      <trkpt lat="44.49453" lon="6.25169">
        <ele>1253.3</ele>
        <time>2019-09-01T09:36:27Z</time>
      </trkpt>
      <trkpt lat="44.49452" lon="6.25172">
        <ele>1253.7</ele>
        <time>2019-09-01T09:36:28Z</time>
      </trkpt>
      <trkpt lat="44.49441" lon="6.25199">
        <ele>1257.4</ele>
        <time>2019-09-01T09:36:38Z</time>
      </trkpt>
      <trkpt lat="44.49435" lon="6.25222">
        <ele>1260.3</ele>
        <time>2019-09-01T09:36:46Z</time>
      </trkpt>
      <trkpt lat="44.49431" lon="6.25242">
        <ele>1262.8</ele>
        <time>2019-09-01T09:36:53Z</time>
      </trkpt>
      <trkpt lat="44.49431" lon="6.25259">
        <ele>1265.2</ele>
        <time>2019-09-01T09:36:59Z</time>
      </trkpt>
      <trkpt lat="44.49435" lon="6.25282">
        <ele>1268.6</ele>
        <time>2019-09-01T09:37:07Z</time>
      </trkpt>
      <trkpt lat="44.49437" lon="6.253">
        <ele>1271</ele>
        <time>2019-09-01T09:37:13Z</time>
      </trkpt>
      <trkpt lat="44.49438" lon="6.25327">
        <ele>1274.3</ele>
        <time>2019-09-01T09:37:22Z</time>
      </trkpt>
      <trkpt lat="44.49431" lon="6.25364">
        <ele>1279.3</ele>
        <time>2019-09-01T09:37:35Z</time>
      </trkpt>
      <trkpt lat="44.49422" lon="6.2538">
        <ele>1282.1</ele>
        <time>2019-09-01T09:37:42Z</time>
      </trkpt>
      <trkpt lat="44.49415" lon="6.25398">
        <ele>1284.9</ele>
        <time>2019-09-01T09:37:49Z</time>
      </trkpt>
      <trkpt lat="44.49411" lon="6.25418">
        <ele>1286.9</ele>
        <time>2019-09-01T09:37:56Z</time>
      </trkpt>
      <trkpt lat="44.49409" lon="6.25446">
        <ele>1289.1</ele>
        <time>2019-09-01T09:38:05Z</time>
      </trkpt>
      <trkpt lat="44.49403" lon="6.25485">
        <ele>1292.9</ele>
        <time>2019-09-01T09:38:18Z</time>
      </trkpt>
      <trkpt lat="44.49407" lon="6.25509">
        <ele>1296.8</ele>
        <time>2019-09-01T09:38:27Z</time>
      </trkpt>
      <trkpt lat="44.49425" lon="6.25531">
        <ele>1300.3</ele>
        <time>2019-09-01T09:38:38Z</time>
      </trkpt>
      <trkpt lat="44.49442" lon="6.25555">
        <ele>1303.2</ele>
        <time>2019-09-01T09:38:49Z</time>
      </trkpt>
      <trkpt lat="44.49449" lon="6.25564">
        <ele>1304.2</ele>
        <time>2019-09-01T09:38:54Z</time>
      </trkpt>
      <trkpt lat="44.49451" lon="6.25566">
        <ele>1304.3</ele>
        <time>2019-09-01T09:38:55Z</time>
      </trkpt>
      <trkpt lat="44.49465" lon="6.2559">
        <ele>1306.3</ele>
        <time>2019-09-01T09:39:06Z</time>
      </trkpt>
      <trkpt lat="44.49471" lon="6.25609">
        <ele>1309.7</ele>
        <time>2019-09-01T09:39:13Z</time>
      </trkpt>
      <trkpt lat="44.49471" lon="6.25611">
        <ele>1310.2</ele>
        <time>2019-09-01T09:39:14Z</time>
      </trkpt>
      <trkpt lat="44.49473" lon="6.25614">
        <ele>1310.8</ele>
        <time>2019-09-01T09:39:15Z</time>
      </trkpt>
      <trkpt lat="44.49474" lon="6.25617">
        <ele>1311.2</ele>
        <time>2019-09-01T09:39:16Z</time>
      </trkpt>
      <trkpt lat="44.49476" lon="6.25619">
        <ele>1311.7</ele>
        <time>2019-09-01T09:39:17Z</time>
      </trkpt>
      <trkpt lat="44.49497" lon="6.2564">
        <ele>1314</ele>
        <time>2019-09-01T09:39:29Z</time>
      </trkpt>
      <trkpt lat="44.49522" lon="6.25663">
        <ele>1316.1</ele>
        <time>2019-09-01T09:39:43Z</time>
      </trkpt>
      <trkpt lat="44.49544" lon="6.25688">
        <ele>1318.4</ele>
        <time>2019-09-01T09:39:56Z</time>
      </trkpt>
      <trkpt lat="44.49569" lon="6.25717">
        <ele>1320.7</ele>
        <time>2019-09-01T09:40:09Z</time>
      </trkpt>
      <trkpt lat="44.49594" lon="6.25743">
        <ele>1321.6</ele>
        <time>2019-09-01T09:40:21Z</time>
      </trkpt>
      <trkpt lat="44.49613" lon="6.25767">
        <ele>1323.4</ele>
        <time>2019-09-01T09:40:32Z</time>
      </trkpt>
      <trkpt lat="44.49635" lon="6.25784">
        <ele>1321.8</ele>
        <time>2019-09-01T09:40:44Z</time>
      </trkpt>
      <trkpt lat="44.49662" lon="6.25807">
        <ele>1319.6</ele>
        <time>2019-09-01T09:40:54Z</time>
      </trkpt>
      <trkpt lat="44.49671" lon="6.25816">
        <ele>1319</ele>
        <time>2019-09-01T09:40:56Z</time>
      </trkpt>
      <trkpt lat="44.49674" lon="6.2582">
        <ele>1318.5</ele>
        <time>2019-09-01T09:40:57Z</time>
      </trkpt>
      <trkpt lat="44.49678" lon="6.25823">
        <ele>1318.3</ele>
        <time>2019-09-01T09:40:58Z</time>
      </trkpt>
      <trkpt lat="44.49683" lon="6.25829">
        <ele>1317.8</ele>
        <time>2019-09-01T09:41:00Z</time>
      </trkpt>
      <trkpt lat="44.49707" lon="6.25853">
        <ele>1315.2</ele>
        <time>2019-09-01T09:41:10Z</time>
      </trkpt>
      <trkpt lat="44.49736" lon="6.25879">
        <ele>1311.3</ele>
        <time>2019-09-01T09:41:19Z</time>
      </trkpt>
      <trkpt lat="44.49757" lon="6.2591">
        <ele>1310.9</ele>
        <time>2019-09-01T09:41:29Z</time>
      </trkpt>
      <trkpt lat="44.4978" lon="6.25946">
        <ele>1309.6</ele>
        <time>2019-09-01T09:41:40Z</time>
      </trkpt>
      <trkpt lat="44.49783" lon="6.2595">
        <ele>1309.4</ele>
        <time>2019-09-01T09:41:41Z</time>
      </trkpt>
      <trkpt lat="44.49785" lon="6.25954">
        <ele>1309.2</ele>
        <time>2019-09-01T09:41:42Z</time>
      </trkpt>
      <trkpt lat="44.49788" lon="6.25957">
        <ele>1309.1</ele>
        <time>2019-09-01T09:41:43Z</time>
      </trkpt>
      <trkpt lat="44.49789" lon="6.25961">
        <ele>1309.2</ele>
        <time>2019-09-01T09:41:44Z</time>
      </trkpt>
      <trkpt lat="44.49791" lon="6.25964">
        <ele>1309.3</ele>
        <time>2019-09-01T09:41:45Z</time>
      </trkpt>
      <trkpt lat="44.49801" lon="6.25985">
        <ele>1309.2</ele>
        <time>2019-09-01T09:41:50Z</time>
      </trkpt>
      <trkpt lat="44.49805" lon="6.2599">
        <ele>1308.9</ele>
        <time>2019-09-01T09:41:51Z</time>
      </trkpt>
      <trkpt lat="44.49808" lon="6.25995">
        <ele>1308.6</ele>
        <time>2019-09-01T09:41:52Z</time>
      </trkpt>
      <trkpt lat="44.49812" lon="6.25999">
        <ele>1308.3</ele>
        <time>2019-09-01T09:41:53Z</time>
      </trkpt>
      <trkpt lat="44.49815" lon="6.26003">
        <ele>1308</ele>
        <time>2019-09-01T09:41:54Z</time>
      </trkpt>
      <trkpt lat="44.4984" lon="6.26044">
        <ele>1307.4</ele>
        <time>2019-09-01T09:42:04Z</time>
      </trkpt>
      <trkpt lat="44.49841" lon="6.26048">
        <ele>1307.5</ele>
        <time>2019-09-01T09:42:05Z</time>
      </trkpt>
      <trkpt lat="44.49844" lon="6.26053">
        <ele>1307.5</ele>
        <time>2019-09-01T09:42:06Z</time>
      </trkpt>
      <trkpt lat="44.49845" lon="6.26057">
        <ele>1307.5</ele>
        <time>2019-09-01T09:42:07Z</time>
      </trkpt>
      <trkpt lat="44.49847" lon="6.26061">
        <ele>1307.5</ele>
        <time>2019-09-01T09:42:08Z</time>
      </trkpt>
      <trkpt lat="44.49849" lon="6.26066">
        <ele>1307.5</ele>
        <time>2019-09-01T09:42:09Z</time>
      </trkpt>
      <trkpt lat="44.49851" lon="6.26071">
        <ele>1307.5</ele>
        <time>2019-09-01T09:42:10Z</time>
      </trkpt>
      <trkpt lat="44.49853" lon="6.26077">
        <ele>1307.5</ele>
        <time>2019-09-01T09:42:11Z</time>
      </trkpt>
      <trkpt lat="44.49856" lon="6.26083">
        <ele>1307.3</ele>
        <time>2019-09-01T09:42:12Z</time>
      </trkpt>
      <trkpt lat="44.49873" lon="6.26132">
        <ele>1307.6</ele>
        <time>2019-09-01T09:42:23Z</time>
      </trkpt>
      <trkpt lat="44.49878" lon="6.26164">
        <ele>1306.8</ele>
        <time>2019-09-01T09:42:30Z</time>
      </trkpt>
      <trkpt lat="44.49885" lon="6.26215">
        <ele>1300.9</ele>
        <time>2019-09-01T09:42:42Z</time>
      </trkpt>
      <trkpt lat="44.49899" lon="6.26244">
        <ele>1296.1</ele>
        <time>2019-09-01T09:42:51Z</time>
      </trkpt>
      <trkpt lat="44.49925" lon="6.26239">
        <ele>1294</ele>
        <time>2019-09-01T09:43:00Z</time>
      </trkpt>
      <trkpt lat="44.49964" lon="6.26226">
        <ele>1297.4</ele>
        <time>2019-09-01T09:43:12Z</time>
      </trkpt>
      <trkpt lat="44.49991" lon="6.2622">
        <ele>1299.5</ele>
        <time>2019-09-01T09:43:21Z</time>
      </trkpt>
      <trkpt lat="44.50027" lon="6.26228">
        <ele>1294.9</ele>
        <time>2019-09-01T09:43:31Z</time>
      </trkpt>
      <trkpt lat="44.50066" lon="6.26226">
        <ele>1291.2</ele>
        <time>2019-09-01T09:43:42Z</time>
      </trkpt>
      <trkpt lat="44.50071" lon="6.26225">
        <ele>1291</ele>
        <time>2019-09-01T09:43:43Z</time>
      </trkpt>
      <trkpt lat="44.50075" lon="6.26223">
        <ele>1291.1</ele>
        <time>2019-09-01T09:43:44Z</time>
      </trkpt>
      <trkpt lat="44.50088" lon="6.26215">
        <ele>1291.1</ele>
        <time>2019-09-01T09:43:47Z</time>
      </trkpt>
      <trkpt lat="44.50092" lon="6.26211">
        <ele>1291.4</ele>
        <time>2019-09-01T09:43:48Z</time>
      </trkpt>
      <trkpt lat="44.50123" lon="6.26168">
        <ele>1294.5</ele>
        <time>2019-09-01T09:44:01Z</time>
      </trkpt>
      <trkpt lat="44.50148" lon="6.26119">
        <ele>1298.4</ele>
        <time>2019-09-01T09:44:14Z</time>
      </trkpt>
      <trkpt lat="44.50165" lon="6.26076">
        <ele>1301.9</ele>
        <time>2019-09-01T09:44:24Z</time>
      </trkpt>
      <trkpt lat="44.50172" lon="6.26033">
        <ele>1302.3</ele>
        <time>2019-09-01T09:44:34Z</time>
      </trkpt>
      <trkpt lat="44.50183" lon="6.25963">
        <ele>1300.6</ele>
        <time>2019-09-01T09:44:48Z</time>
      </trkpt>
      <trkpt lat="44.5019" lon="6.25925">
        <ele>1297.2</ele>
        <time>2019-09-01T09:44:57Z</time>
      </trkpt>
      <trkpt lat="44.50192" lon="6.25923">
        <ele>1297.4</ele>
        <time>2019-09-01T09:44:58Z</time>
      </trkpt>
      <trkpt lat="44.50195" lon="6.25922">
        <ele>1297.9</ele>
        <time>2019-09-01T09:44:59Z</time>
      </trkpt>
      <trkpt lat="44.50197" lon="6.25921">
        <ele>1298.4</ele>
        <time>2019-09-01T09:45:00Z</time>
      </trkpt>
      <trkpt lat="44.502" lon="6.25919">
        <ele>1299</ele>
        <time>2019-09-01T09:45:01Z</time>
      </trkpt>
      <trkpt lat="44.50205" lon="6.25915">
        <ele>1299.8</ele>
        <time>2019-09-01T09:45:03Z</time>
      </trkpt>
      <trkpt lat="44.50207" lon="6.25911">
        <ele>1299.6</ele>
        <time>2019-09-01T09:45:04Z</time>
      </trkpt>
      <trkpt lat="44.50208" lon="6.25906">
        <ele>1299.2</ele>
        <time>2019-09-01T09:45:05Z</time>
      </trkpt>
      <trkpt lat="44.50209" lon="6.25901">
        <ele>1298.7</ele>
        <time>2019-09-01T09:45:06Z</time>
      </trkpt>
      <trkpt lat="44.50209" lon="6.25896">
        <ele>1297.9</ele>
        <time>2019-09-01T09:45:07Z</time>
      </trkpt>
      <trkpt lat="44.5021" lon="6.25891">
        <ele>1297.3</ele>
        <time>2019-09-01T09:45:08Z</time>
      </trkpt>
      <trkpt lat="44.50211" lon="6.25887">
        <ele>1296.7</ele>
        <time>2019-09-01T09:45:09Z</time>
      </trkpt>
      <trkpt lat="44.50212" lon="6.25882">
        <ele>1296.4</ele>
        <time>2019-09-01T09:45:10Z</time>
      </trkpt>
      <trkpt lat="44.50214" lon="6.25879">
        <ele>1296.4</ele>
        <time>2019-09-01T09:45:11Z</time>
      </trkpt>
      <trkpt lat="44.50217" lon="6.25877">
        <ele>1296.7</ele>
        <time>2019-09-01T09:45:12Z</time>
      </trkpt>
      <trkpt lat="44.5022" lon="6.25875">
        <ele>1297.3</ele>
        <time>2019-09-01T09:45:13Z</time>
      </trkpt>
      <trkpt lat="44.50238" lon="6.2587">
        <ele>1301.7</ele>
        <time>2019-09-01T09:45:19Z</time>
      </trkpt>
      <trkpt lat="44.5024" lon="6.25868">
        <ele>1302</ele>
        <time>2019-09-01T09:45:20Z</time>
      </trkpt>
      <trkpt lat="44.50241" lon="6.25866">
        <ele>1302</ele>
        <time>2019-09-01T09:45:21Z</time>
      </trkpt>
      <trkpt lat="44.50241" lon="6.25863">
        <ele>1301.7</ele>
        <time>2019-09-01T09:45:22Z</time>
      </trkpt>
      <trkpt lat="44.50241" lon="6.25861">
        <ele>1301.5</ele>
        <time>2019-09-01T09:45:23Z</time>
      </trkpt>
      <trkpt lat="44.50241" lon="6.25857">
        <ele>1301.4</ele>
        <time>2019-09-01T09:45:24Z</time>
      </trkpt>
      <trkpt lat="44.50241" lon="6.25853">
        <ele>1301.1</ele>
        <time>2019-09-01T09:45:25Z</time>
      </trkpt>
      <trkpt lat="44.5024" lon="6.25849">
        <ele>1300.7</ele>
        <time>2019-09-01T09:45:26Z</time>
      </trkpt>
      <trkpt lat="44.50239" lon="6.25846">
        <ele>1300.2</ele>
        <time>2019-09-01T09:45:27Z</time>
      </trkpt>
      <trkpt lat="44.50239" lon="6.25843">
        <ele>1300</ele>
        <time>2019-09-01T09:45:28Z</time>
      </trkpt>
      <trkpt lat="44.50239" lon="6.2584">
        <ele>1300</ele>
        <time>2019-09-01T09:45:29Z</time>
      </trkpt>
      <trkpt lat="44.50239" lon="6.25836">
        <ele>1300</ele>
        <time>2019-09-01T09:45:30Z</time>
      </trkpt>
      <trkpt lat="44.50236" lon="6.25784">
        <ele>1296.8</ele>
        <time>2019-09-01T09:45:41Z</time>
      </trkpt>
      <trkpt lat="44.5022" lon="6.25748">
        <ele>1293</ele>
        <time>2019-09-01T09:45:51Z</time>
      </trkpt>
      <trkpt lat="44.50208" lon="6.25691">
        <ele>1291.8</ele>
        <time>2019-09-01T09:46:02Z</time>
      </trkpt>
      <trkpt lat="44.50213" lon="6.25677">
        <ele>1292.1</ele>
        <time>2019-09-01T09:46:05Z</time>
      </trkpt>
      <trkpt lat="44.50216" lon="6.25672">
        <ele>1292.7</ele>
        <time>2019-09-01T09:46:06Z</time>
      </trkpt>
      <trkpt lat="44.50219" lon="6.25668">
        <ele>1293.6</ele>
        <time>2019-09-01T09:46:07Z</time>
      </trkpt>
      <trkpt lat="44.50222" lon="6.25665">
        <ele>1294.3</ele>
        <time>2019-09-01T09:46:08Z</time>
      </trkpt>
      <trkpt lat="44.50226" lon="6.25661">
        <ele>1294.3</ele>
        <time>2019-09-01T09:46:09Z</time>
      </trkpt>
      <trkpt lat="44.5023" lon="6.25658">
        <ele>1294.5</ele>
        <time>2019-09-01T09:46:10Z</time>
      </trkpt>
      <trkpt lat="44.50259" lon="6.25631">
        <ele>1295.7</ele>
        <time>2019-09-01T09:46:18Z</time>
      </trkpt>
      <trkpt lat="44.50261" lon="6.25627">
        <ele>1295.2</ele>
        <time>2019-09-01T09:46:19Z</time>
      </trkpt>
      <trkpt lat="44.50263" lon="6.25623">
        <ele>1294.5</ele>
        <time>2019-09-01T09:46:20Z</time>
      </trkpt>
      <trkpt lat="44.50265" lon="6.25618">
        <ele>1293.3</ele>
        <time>2019-09-01T09:46:21Z</time>
      </trkpt>
      <trkpt lat="44.50266" lon="6.25614">
        <ele>1292.2</ele>
        <time>2019-09-01T09:46:22Z</time>
      </trkpt>
      <trkpt lat="44.50266" lon="6.2561">
        <ele>1291</ele>
        <time>2019-09-01T09:46:23Z</time>
      </trkpt>
      <trkpt lat="44.50265" lon="6.25607">
        <ele>1290.5</ele>
        <time>2019-09-01T09:46:24Z</time>
      </trkpt>
      <trkpt lat="44.50263" lon="6.25604">
        <ele>1289.8</ele>
        <time>2019-09-01T09:46:25Z</time>
      </trkpt>
      <trkpt lat="44.50262" lon="6.25602">
        <ele>1289</ele>
        <time>2019-09-01T09:46:26Z</time>
      </trkpt>
      <trkpt lat="44.5026" lon="6.256">
        <ele>1288.2</ele>
        <time>2019-09-01T09:46:27Z</time>
      </trkpt>
      <trkpt lat="44.50257" lon="6.25597">
        <ele>1287.1</ele>
        <time>2019-09-01T09:46:28Z</time>
      </trkpt>
      <trkpt lat="44.50256" lon="6.25595">
        <ele>1286.4</ele>
        <time>2019-09-01T09:46:29Z</time>
      </trkpt>
      <trkpt lat="44.50255" lon="6.25592">
        <ele>1285.8</ele>
        <time>2019-09-01T09:46:30Z</time>
      </trkpt>
      <trkpt lat="44.50254" lon="6.2559">
        <ele>1285.4</ele>
        <time>2019-09-01T09:46:31Z</time>
      </trkpt>
      <trkpt lat="44.50255" lon="6.25589">
        <ele>1285.3</ele>
        <time>2019-09-01T09:46:36Z</time>
      </trkpt>
      <trkpt lat="44.50259" lon="6.25581">
        <ele>1286.2</ele>
        <time>2019-09-01T09:46:53Z</time>
      </trkpt>
      <trkpt lat="44.5026" lon="6.2558">
        <ele>1286.6</ele>
        <time>2019-09-01T09:46:54Z</time>
      </trkpt>
      <trkpt lat="44.50262" lon="6.25579">
        <ele>1287.3</ele>
        <time>2019-09-01T09:46:55Z</time>
      </trkpt>
      <trkpt lat="44.50264" lon="6.25579">
        <ele>1288</ele>
        <time>2019-09-01T09:46:56Z</time>
      </trkpt>
      <trkpt lat="44.50266" lon="6.25578">
        <ele>1288.7</ele>
        <time>2019-09-01T09:46:57Z</time>
      </trkpt>
      <trkpt lat="44.50268" lon="6.25577">
        <ele>1289.5</ele>
        <time>2019-09-01T09:46:58Z</time>
      </trkpt>
      <trkpt lat="44.5027" lon="6.25575">
        <ele>1290</ele>
        <time>2019-09-01T09:46:59Z</time>
      </trkpt>
      <trkpt lat="44.50272" lon="6.25573">
        <ele>1290.4</ele>
        <time>2019-09-01T09:47:00Z</time>
      </trkpt>
      <trkpt lat="44.50273" lon="6.25571">
        <ele>1290.5</ele>
        <time>2019-09-01T09:47:01Z</time>
      </trkpt>
      <trkpt lat="44.50274" lon="6.25562">
        <ele>1289.5</ele>
        <time>2019-09-01T09:47:05Z</time>
      </trkpt>
      <trkpt lat="44.50273" lon="6.2556">
        <ele>1288.8</ele>
        <time>2019-09-01T09:47:06Z</time>
      </trkpt>
      <trkpt lat="44.50271" lon="6.25557">
        <ele>1288</ele>
        <time>2019-09-01T09:47:07Z</time>
      </trkpt>
      <trkpt lat="44.50269" lon="6.25556">
        <ele>1287.3</ele>
        <time>2019-09-01T09:47:08Z</time>
      </trkpt>
      <trkpt lat="44.50267" lon="6.25554">
        <ele>1286.7</ele>
        <time>2019-09-01T09:47:09Z</time>
      </trkpt>
      <trkpt lat="44.50265" lon="6.25553">
        <ele>1286.1</ele>
        <time>2019-09-01T09:47:10Z</time>
      </trkpt>
      <trkpt lat="44.50263" lon="6.25551">
        <ele>1285.7</ele>
        <time>2019-09-01T09:47:11Z</time>
      </trkpt>
      <trkpt lat="44.50261" lon="6.25548">
        <ele>1285.4</ele>
        <time>2019-09-01T09:47:12Z</time>
      </trkpt>
      <trkpt lat="44.50259" lon="6.25546">
        <ele>1285.1</ele>
        <time>2019-09-01T09:47:13Z</time>
      </trkpt>
      <trkpt lat="44.50258" lon="6.25543">
        <ele>1285</ele>
        <time>2019-09-01T09:47:14Z</time>
      </trkpt>
      <trkpt lat="44.50257" lon="6.2554">
        <ele>1285.2</ele>
        <time>2019-09-01T09:47:15Z</time>
      </trkpt>
      <trkpt lat="44.50257" lon="6.25536">
        <ele>1285.7</ele>
        <time>2019-09-01T09:47:16Z</time>
      </trkpt>
      <trkpt lat="44.50257" lon="6.25532">
        <ele>1286.2</ele>
        <time>2019-09-01T09:47:17Z</time>
      </trkpt>
      <trkpt lat="44.50256" lon="6.25528">
        <ele>1286.5</ele>
        <time>2019-09-01T09:47:18Z</time>
      </trkpt>
      <trkpt lat="44.50254" lon="6.25523">
        <ele>1287.3</ele>
        <time>2019-09-01T09:47:19Z</time>
      </trkpt>
      <trkpt lat="44.50252" lon="6.25519">
        <ele>1288</ele>
        <time>2019-09-01T09:47:20Z</time>
      </trkpt>
      <trkpt lat="44.50249" lon="6.25516">
        <ele>1288.1</ele>
        <time>2019-09-01T09:47:21Z</time>
      </trkpt>
      <trkpt lat="44.50246" lon="6.25515">
        <ele>1287.8</ele>
        <time>2019-09-01T09:47:22Z</time>
      </trkpt>
      <trkpt lat="44.50244" lon="6.25514">
        <ele>1287.5</ele>
        <time>2019-09-01T09:47:23Z</time>
      </trkpt>
      <trkpt lat="44.50241" lon="6.25513">
        <ele>1287</ele>
        <time>2019-09-01T09:47:24Z</time>
      </trkpt>
      <trkpt lat="44.50222" lon="6.25498">
        <ele>1286.4</ele>
        <time>2019-09-01T09:47:30Z</time>
      </trkpt>
      <trkpt lat="44.50214" lon="6.25494">
        <ele>1286.1</ele>
        <time>2019-09-01T09:47:32Z</time>
      </trkpt>
      <trkpt lat="44.50171" lon="6.25485">
        <ele>1279.9</ele>
        <time>2019-09-01T09:47:45Z</time>
      </trkpt>
      <trkpt lat="44.50131" lon="6.25451">
        <ele>1279</ele>
        <time>2019-09-01T09:47:57Z</time>
      </trkpt>
      <trkpt lat="44.50081" lon="6.25386">
        <ele>1280.5</ele>
        <time>2019-09-01T09:48:14Z</time>
      </trkpt>
      <trkpt lat="44.50095" lon="6.25345">
        <ele>1284.2</ele>
        <time>2019-09-01T09:48:24Z</time>
      </trkpt>
      <trkpt lat="44.50115" lon="6.25295">
        <ele>1279.3</ele>
        <time>2019-09-01T09:48:35Z</time>
      </trkpt>
      <trkpt lat="44.50133" lon="6.25276">
        <ele>1275.3</ele>
        <time>2019-09-01T09:48:47Z</time>
      </trkpt>
      <trkpt lat="44.50159" lon="6.25273">
        <ele>1277.5</ele>
        <time>2019-09-01T09:49:01Z</time>
      </trkpt>
      <trkpt lat="44.5016" lon="6.2527">
        <ele>1276.9</ele>
        <time>2019-09-01T09:49:06Z</time>
      </trkpt>
      <trkpt lat="44.50154" lon="6.25246">
        <ele>1270.7</ele>
        <time>2019-09-01T09:49:58Z</time>
      </trkpt>
      <trkpt lat="44.50148" lon="6.25233">
        <ele>1269.3</ele>
        <time>2019-09-01T09:50:04Z</time>
      </trkpt>
      <trkpt lat="44.50146" lon="6.25231">
        <ele>1268.9</ele>
        <time>2019-09-01T09:50:05Z</time>
      </trkpt>
      <trkpt lat="44.50146" lon="6.25228">
        <ele>1268.5</ele>
        <time>2019-09-01T09:50:06Z</time>
      </trkpt>
      <trkpt lat="44.50145" lon="6.25226">
        <ele>1268.1</ele>
        <time>2019-09-01T09:50:07Z</time>
      </trkpt>
      <trkpt lat="44.50144" lon="6.25223">
        <ele>1267.7</ele>
        <time>2019-09-01T09:50:08Z</time>
      </trkpt>
      <trkpt lat="44.50143" lon="6.25221">
        <ele>1267.1</ele>
        <time>2019-09-01T09:50:09Z</time>
      </trkpt>
      <trkpt lat="44.50136" lon="6.25206">
        <ele>1264.4</ele>
        <time>2019-09-01T09:50:19Z</time>
      </trkpt>
      <trkpt lat="44.50136" lon="6.25206">
        <ele>1264.3</ele>
        <time>2019-09-01T09:50:20Z</time>
      </trkpt>
      <trkpt lat="44.50127" lon="6.25192">
        <ele>1261.5</ele>
        <time>2019-09-01T09:51:05Z</time>
      </trkpt>
      <trkpt lat="44.50125" lon="6.2519">
        <ele>1260.9</ele>
        <time>2019-09-01T09:51:07Z</time>
      </trkpt>
      <trkpt lat="44.50124" lon="6.25189">
        <ele>1260.5</ele>
        <time>2019-09-01T09:51:08Z</time>
      </trkpt>
      <trkpt lat="44.50123" lon="6.25187">
        <ele>1260.2</ele>
        <time>2019-09-01T09:51:09Z</time>
      </trkpt>
      <trkpt lat="44.50122" lon="6.25182">
        <ele>1259.3</ele>
        <time>2019-09-01T09:51:16Z</time>
      </trkpt>
      <trkpt lat="44.50141" lon="6.25168">
        <ele>1259.5</ele>
        <time>2019-09-01T09:52:03Z</time>
      </trkpt>
      <trkpt lat="44.50143" lon="6.25166">
        <ele>1259.3</ele>
        <time>2019-09-01T09:52:04Z</time>
      </trkpt>
      <trkpt lat="44.50162" lon="6.25138">
        <ele>1254.7</ele>
        <time>2019-09-01T09:52:15Z</time>
      </trkpt>
      <trkpt lat="44.50166" lon="6.25106">
        <ele>1249.4</ele>
        <time>2019-09-01T09:52:25Z</time>
      </trkpt>
      <trkpt lat="44.50154" lon="6.25067">
        <ele>1245.9</ele>
        <time>2019-09-01T09:52:39Z</time>
      </trkpt>
      <trkpt lat="44.50156" lon="6.25019">
        <ele>1240.2</ele>
        <time>2019-09-01T09:52:52Z</time>
      </trkpt>
      <trkpt lat="44.5017" lon="6.25013">
        <ele>1242.1</ele>
        <time>2019-09-01T09:53:02Z</time>
      </trkpt>
      <trkpt lat="44.50198" lon="6.25024">
        <ele>1247.4</ele>
        <time>2019-09-01T09:53:14Z</time>
      </trkpt>
      <trkpt lat="44.50214" lon="6.25025">
        <ele>1247.4</ele>
        <time>2019-09-01T09:53:22Z</time>
      </trkpt>
      <trkpt lat="44.50215" lon="6.25023">
        <ele>1247</ele>
        <time>2019-09-01T09:53:23Z</time>
      </trkpt>
      <trkpt lat="44.50217" lon="6.25022">
        <ele>1246.6</ele>
        <time>2019-09-01T09:53:24Z</time>
      </trkpt>
      <trkpt lat="44.50219" lon="6.2502">
        <ele>1246</ele>
        <time>2019-09-01T09:53:25Z</time>
      </trkpt>
      <trkpt lat="44.5022" lon="6.25018">
        <ele>1245.4</ele>
        <time>2019-09-01T09:53:26Z</time>
      </trkpt>
      <trkpt lat="44.50222" lon="6.25012">
        <ele>1243.9</ele>
        <time>2019-09-01T09:53:28Z</time>
      </trkpt>
      <trkpt lat="44.50222" lon="6.25008">
        <ele>1243</ele>
        <time>2019-09-01T09:53:29Z</time>
      </trkpt>
      <trkpt lat="44.50222" lon="6.25004">
        <ele>1241.9</ele>
        <time>2019-09-01T09:53:30Z</time>
      </trkpt>
      <trkpt lat="44.50221" lon="6.25">
        <ele>1240.9</ele>
        <time>2019-09-01T09:53:31Z</time>
      </trkpt>
      <trkpt lat="44.5022" lon="6.24996">
        <ele>1240.9</ele>
        <time>2019-09-01T09:53:32Z</time>
      </trkpt>
      <trkpt lat="44.50219" lon="6.24993">
        <ele>1240.8</ele>
        <time>2019-09-01T09:53:33Z</time>
      </trkpt>
      <trkpt lat="44.50219" lon="6.2499">
        <ele>1240.7</ele>
        <time>2019-09-01T09:53:34Z</time>
      </trkpt>
      <trkpt lat="44.50218" lon="6.24987">
        <ele>1240.4</ele>
        <time>2019-09-01T09:53:35Z</time>
      </trkpt>
      <trkpt lat="44.50216" lon="6.24984">
        <ele>1239.8</ele>
        <time>2019-09-01T09:53:36Z</time>
      </trkpt>
      <trkpt lat="44.50214" lon="6.2498">
        <ele>1239</ele>
        <time>2019-09-01T09:53:37Z</time>
      </trkpt>
      <trkpt lat="44.50194" lon="6.24936">
        <ele>1228.3</ele>
        <time>2019-09-01T09:53:49Z</time>
      </trkpt>
      <trkpt lat="44.50193" lon="6.24901">
        <ele>1226.1</ele>
        <time>2019-09-01T09:54:01Z</time>
      </trkpt>
      <trkpt lat="44.50209" lon="6.24864">
        <ele>1224.7</ele>
        <time>2019-09-01T09:54:14Z</time>
      </trkpt>
      <trkpt lat="44.50229" lon="6.24847">
        <ele>1225.9</ele>
        <time>2019-09-01T09:54:24Z</time>
      </trkpt>
      <trkpt lat="44.50248" lon="6.24825">
        <ele>1223.3</ele>
        <time>2019-09-01T09:54:33Z</time>
      </trkpt>
      <trkpt lat="44.50263" lon="6.24817">
        <ele>1222.9</ele>
        <time>2019-09-01T09:54:41Z</time>
      </trkpt>
      <trkpt lat="44.50263" lon="6.24815">
        <ele>1221.8</ele>
        <time>2019-09-01T09:54:42Z</time>
      </trkpt>
      <trkpt lat="44.50262" lon="6.24812">
        <ele>1220.4</ele>
        <time>2019-09-01T09:54:43Z</time>
      </trkpt>
      <trkpt lat="44.50261" lon="6.24809">
        <ele>1219</ele>
        <time>2019-09-01T09:54:44Z</time>
      </trkpt>
      <trkpt lat="44.5026" lon="6.24807">
        <ele>1217.7</ele>
        <time>2019-09-01T09:54:45Z</time>
      </trkpt>
      <trkpt lat="44.50259" lon="6.24805">
        <ele>1216.7</ele>
        <time>2019-09-01T09:54:46Z</time>
      </trkpt>
      <trkpt lat="44.50257" lon="6.24804">
        <ele>1215.9</ele>
        <time>2019-09-01T09:54:47Z</time>
      </trkpt>
      <trkpt lat="44.50256" lon="6.24803">
        <ele>1215.4</ele>
        <time>2019-09-01T09:54:48Z</time>
      </trkpt>
      <trkpt lat="44.50227" lon="6.24815">
        <ele>1214.7</ele>
        <time>2019-09-01T09:54:59Z</time>
      </trkpt>
      <trkpt lat="44.50198" lon="6.24826">
        <ele>1210.3</ele>
        <time>2019-09-01T09:55:07Z</time>
      </trkpt>
      <trkpt lat="44.50176" lon="6.24843">
        <ele>1207.3</ele>
        <time>2019-09-01T09:55:16Z</time>
      </trkpt>
      <trkpt lat="44.50159" lon="6.2486">
        <ele>1203.5</ele>
        <time>2019-09-01T09:55:27Z</time>
      </trkpt>
      <trkpt lat="44.50158" lon="6.24857">
        <ele>1202.7</ele>
        <time>2019-09-01T09:55:29Z</time>
      </trkpt>
      <trkpt lat="44.50157" lon="6.24855">
        <ele>1202.3</ele>
        <time>2019-09-01T09:55:30Z</time>
      </trkpt>
      <trkpt lat="44.50157" lon="6.24852">
        <ele>1201.9</ele>
        <time>2019-09-01T09:55:31Z</time>
      </trkpt>
      <trkpt lat="44.50157" lon="6.2485">
        <ele>1201.7</ele>
        <time>2019-09-01T09:55:32Z</time>
      </trkpt>
      <trkpt lat="44.50157" lon="6.24848">
        <ele>1201.6</ele>
        <time>2019-09-01T09:55:33Z</time>
      </trkpt>
      <trkpt lat="44.50158" lon="6.24845">
        <ele>1201.6</ele>
        <time>2019-09-01T09:55:34Z</time>
      </trkpt>
      <trkpt lat="44.50159" lon="6.24843">
        <ele>1201.8</ele>
        <time>2019-09-01T09:55:35Z</time>
      </trkpt>
      <trkpt lat="44.50161" lon="6.2484">
        <ele>1202</ele>
        <time>2019-09-01T09:55:36Z</time>
      </trkpt>
      <trkpt lat="44.50163" lon="6.24836">
        <ele>1202.2</ele>
        <time>2019-09-01T09:55:37Z</time>
      </trkpt>
      <trkpt lat="44.50181" lon="6.24807">
        <ele>1202.4</ele>
        <time>2019-09-01T09:55:48Z</time>
      </trkpt>
      <trkpt lat="44.50191" lon="6.24796">
        <ele>1202.7</ele>
        <time>2019-09-01T09:55:51Z</time>
      </trkpt>
      <trkpt lat="44.50195" lon="6.24791">
        <ele>1202.4</ele>
        <time>2019-09-01T09:55:52Z</time>
      </trkpt>
      <trkpt lat="44.50197" lon="6.24786">
        <ele>1202</ele>
        <time>2019-09-01T09:55:53Z</time>
      </trkpt>
      <trkpt lat="44.50228" lon="6.24731">
        <ele>1195.1</ele>
        <time>2019-09-01T09:56:07Z</time>
      </trkpt>
      <trkpt lat="44.5023" lon="6.24732">
        <ele>1194.8</ele>
        <time>2019-09-01T09:56:08Z</time>
      </trkpt>
      <trkpt lat="44.50232" lon="6.24734">
        <ele>1194.7</ele>
        <time>2019-09-01T09:56:09Z</time>
      </trkpt>
      <trkpt lat="44.50234" lon="6.24736">
        <ele>1194.9</ele>
        <time>2019-09-01T09:56:10Z</time>
      </trkpt>
      <trkpt lat="44.50236" lon="6.2474">
        <ele>1195.4</ele>
        <time>2019-09-01T09:56:11Z</time>
      </trkpt>
      <trkpt lat="44.50237" lon="6.24744">
        <ele>1196.1</ele>
        <time>2019-09-01T09:56:12Z</time>
      </trkpt>
      <trkpt lat="44.50238" lon="6.24748">
        <ele>1197</ele>
        <time>2019-09-01T09:56:13Z</time>
      </trkpt>
      <trkpt lat="44.5026" lon="6.24775">
        <ele>1203.7</ele>
        <time>2019-09-01T09:56:23Z</time>
      </trkpt>
      <trkpt lat="44.5029" lon="6.24776">
        <ele>1203.9</ele>
        <time>2019-09-01T09:56:32Z</time>
      </trkpt>
      <trkpt lat="44.50307" lon="6.24775">
        <ele>1204.8</ele>
        <time>2019-09-01T09:56:42Z</time>
      </trkpt>
      <trkpt lat="44.50308" lon="6.24775">
        <ele>1205.3</ele>
        <time>2019-09-01T09:56:47Z</time>
      </trkpt>
      <trkpt lat="44.50315" lon="6.2476">
        <ele>1205.4</ele>
        <time>2019-09-01T09:57:09Z</time>
      </trkpt>
      <trkpt lat="44.50316" lon="6.24756">
        <ele>1204.9</ele>
        <time>2019-09-01T09:57:10Z</time>
      </trkpt>
      <trkpt lat="44.50315" lon="6.24751">
        <ele>1204</ele>
        <time>2019-09-01T09:57:11Z</time>
      </trkpt>
      <trkpt lat="44.50315" lon="6.24747">
        <ele>1203.4</ele>
        <time>2019-09-01T09:57:12Z</time>
      </trkpt>
      <trkpt lat="44.50313" lon="6.24743">
        <ele>1202.8</ele>
        <time>2019-09-01T09:57:13Z</time>
      </trkpt>
      <trkpt lat="44.50312" lon="6.2474">
        <ele>1202.1</ele>
        <time>2019-09-01T09:57:14Z</time>
      </trkpt>
      <trkpt lat="44.50306" lon="6.24685">
        <ele>1197.5</ele>
        <time>2019-09-01T09:57:28Z</time>
      </trkpt>
      <trkpt lat="44.50325" lon="6.24644">
        <ele>1195.5</ele>
        <time>2019-09-01T09:57:42Z</time>
      </trkpt>
      <trkpt lat="44.50331" lon="6.24618">
        <ele>1191.1</ele>
        <time>2019-09-01T09:57:54Z</time>
      </trkpt>
      <trkpt lat="44.50329" lon="6.24592">
        <ele>1185.8</ele>
        <time>2019-09-01T09:58:03Z</time>
      </trkpt>
      <trkpt lat="44.50326" lon="6.24585">
        <ele>1184.4</ele>
        <time>2019-09-01T09:58:06Z</time>
      </trkpt>
      <trkpt lat="44.50313" lon="6.24578">
        <ele>1183</ele>
        <time>2019-09-01T09:58:14Z</time>
      </trkpt>
      <trkpt lat="44.503" lon="6.24577">
        <ele>1182.5</ele>
        <time>2019-09-01T09:58:24Z</time>
      </trkpt>
      <trkpt lat="44.503" lon="6.24577">
        <ele>1182.5</ele>
        <time>2019-09-01T09:58:26Z</time>
      </trkpt>
      <trkpt lat="44.50295" lon="6.24575">
        <ele>1181.8</ele>
        <time>2019-09-01T09:58:45Z</time>
      </trkpt>
      <trkpt lat="44.50294" lon="6.24574">
        <ele>1181.6</ele>
        <time>2019-09-01T09:58:46Z</time>
      </trkpt>
      <trkpt lat="44.50292" lon="6.24574">
        <ele>1181.5</ele>
        <time>2019-09-01T09:58:47Z</time>
      </trkpt>
      <trkpt lat="44.5029" lon="6.24573">
        <ele>1181.3</ele>
        <time>2019-09-01T09:58:48Z</time>
      </trkpt>
      <trkpt lat="44.50288" lon="6.24571">
        <ele>1181</ele>
        <time>2019-09-01T09:58:49Z</time>
      </trkpt>
      <trkpt lat="44.50286" lon="6.2457">
        <ele>1180.8</ele>
        <time>2019-09-01T09:58:50Z</time>
      </trkpt>
      <trkpt lat="44.50271" lon="6.24541">
        <ele>1178.4</ele>
        <time>2019-09-01T09:59:04Z</time>
      </trkpt>
      <trkpt lat="44.50266" lon="6.24535">
        <ele>1178.1</ele>
        <time>2019-09-01T09:59:13Z</time>
      </trkpt>
      <trkpt lat="44.50262" lon="6.24528">
        <ele>1178.1</ele>
        <time>2019-09-01T09:59:19Z</time>
      </trkpt>
      <trkpt lat="44.50261" lon="6.24525">
        <ele>1178</ele>
        <time>2019-09-01T09:59:20Z</time>
      </trkpt>
      <trkpt lat="44.50259" lon="6.24524">
        <ele>1177.9</ele>
        <time>2019-09-01T09:59:21Z</time>
      </trkpt>
      <trkpt lat="44.50259" lon="6.24522">
        <ele>1177.8</ele>
        <time>2019-09-01T09:59:26Z</time>
      </trkpt>
      <trkpt lat="44.50261" lon="6.24527">
        <ele>1178.1</ele>
        <time>2019-09-01T10:07:56Z</time>
      </trkpt>
      <trkpt lat="44.50271" lon="6.24541">
        <ele>1178.4</ele>
        <time>2019-09-01T10:08:13Z</time>
      </trkpt>
      <trkpt lat="44.50284" lon="6.24559">
        <ele>1180</ele>
        <time>2019-09-01T10:08:31Z</time>
      </trkpt>
      <trkpt lat="44.50285" lon="6.24561">
        <ele>1180.2</ele>
        <time>2019-09-01T10:08:33Z</time>
      </trkpt>
      <trkpt lat="44.50296" lon="6.24576">
        <ele>1182</ele>
        <time>2019-09-01T10:08:52Z</time>
      </trkpt>
      <trkpt lat="44.50302" lon="6.24575">
        <ele>1182.2</ele>
        <time>2019-09-01T10:09:02Z</time>
      </trkpt>
      <trkpt lat="44.50307" lon="6.24564">
        <ele>1180.4</ele>
        <time>2019-09-01T10:11:23Z</time>
      </trkpt>
      <trkpt lat="44.50309" lon="6.24563">
        <ele>1180.3</ele>
        <time>2019-09-01T10:11:24Z</time>
      </trkpt>
      <trkpt lat="44.50311" lon="6.24562">
        <ele>1180.2</ele>
        <time>2019-09-01T10:11:25Z</time>
      </trkpt>
      <trkpt lat="44.50314" lon="6.24562">
        <ele>1180.1</ele>
        <time>2019-09-01T10:11:26Z</time>
      </trkpt>
      <trkpt lat="44.50315" lon="6.24562">
        <ele>1180.1</ele>
        <time>2019-09-01T10:11:27Z</time>
      </trkpt>
      <trkpt lat="44.50317" lon="6.24562">
        <ele>1180.2</ele>
        <time>2019-09-01T10:11:28Z</time>
      </trkpt>
      <trkpt lat="44.5032" lon="6.24563">
        <ele>1180.3</ele>
        <time>2019-09-01T10:11:29Z</time>
      </trkpt>
      <trkpt lat="44.50343" lon="6.24591">
        <ele>1185.8</ele>
        <time>2019-09-01T10:11:41Z</time>
      </trkpt>
      <trkpt lat="44.50347" lon="6.24611">
        <ele>1189.4</ele>
        <time>2019-09-01T10:11:47Z</time>
      </trkpt>
      <trkpt lat="44.50349" lon="6.24612">
        <ele>1189.6</ele>
        <time>2019-09-01T10:11:48Z</time>
      </trkpt>
      <trkpt lat="44.50351" lon="6.24613">
        <ele>1189.7</ele>
        <time>2019-09-01T10:11:49Z</time>
      </trkpt>
      <trkpt lat="44.50354" lon="6.24614">
        <ele>1189.7</ele>
        <time>2019-09-01T10:11:50Z</time>
      </trkpt>
      <trkpt lat="44.50356" lon="6.24614">
        <ele>1189.6</ele>
        <time>2019-09-01T10:11:51Z</time>
      </trkpt>
      <trkpt lat="44.50359" lon="6.24611">
        <ele>1189</ele>
        <time>2019-09-01T10:11:53Z</time>
      </trkpt>
      <trkpt lat="44.5036" lon="6.24609">
        <ele>1188.7</ele>
        <time>2019-09-01T10:11:54Z</time>
      </trkpt>
      <trkpt lat="44.5036" lon="6.24606">
        <ele>1188.2</ele>
        <time>2019-09-01T10:11:55Z</time>
      </trkpt>
      <trkpt lat="44.50362" lon="6.24602">
        <ele>1187.7</ele>
        <time>2019-09-01T10:11:56Z</time>
      </trkpt>
      <trkpt lat="44.50363" lon="6.24597">
        <ele>1187.6</ele>
        <time>2019-09-01T10:11:57Z</time>
      </trkpt>
      <trkpt lat="44.50364" lon="6.24593">
        <ele>1187.2</ele>
        <time>2019-09-01T10:11:58Z</time>
      </trkpt>
      <trkpt lat="44.50365" lon="6.24588">
        <ele>1187</ele>
        <time>2019-09-01T10:11:59Z</time>
      </trkpt>
      <trkpt lat="44.50365" lon="6.24584">
        <ele>1186.7</ele>
        <time>2019-09-01T10:12:00Z</time>
      </trkpt>
      <trkpt lat="44.50367" lon="6.24564">
        <ele>1188</ele>
        <time>2019-09-01T10:12:06Z</time>
      </trkpt>
      <trkpt lat="44.50367" lon="6.24562">
        <ele>1187.9</ele>
        <time>2019-09-01T10:12:07Z</time>
      </trkpt>
      <trkpt lat="44.50353" lon="6.24522">
        <ele>1186.3</ele>
        <time>2019-09-01T10:12:19Z</time>
      </trkpt>
      <trkpt lat="44.50342" lon="6.24478">
        <ele>1183.8</ele>
        <time>2019-09-01T10:12:33Z</time>
      </trkpt>
      <trkpt lat="44.50343" lon="6.24475">
        <ele>1184.1</ele>
        <time>2019-09-01T10:12:34Z</time>
      </trkpt>
      <trkpt lat="44.50343" lon="6.24472">
        <ele>1184.5</ele>
        <time>2019-09-01T10:12:35Z</time>
      </trkpt>
      <trkpt lat="44.50343" lon="6.24469">
        <ele>1184.5</ele>
        <time>2019-09-01T10:12:36Z</time>
      </trkpt>
      <trkpt lat="44.50343" lon="6.24466">
        <ele>1184.6</ele>
        <time>2019-09-01T10:12:37Z</time>
      </trkpt>
      <trkpt lat="44.50344" lon="6.24463">
        <ele>1184.6</ele>
        <time>2019-09-01T10:12:38Z</time>
      </trkpt>
      <trkpt lat="44.50356" lon="6.24424">
        <ele>1187</ele>
        <time>2019-09-01T10:12:52Z</time>
      </trkpt>
      <trkpt lat="44.50357" lon="6.24418">
        <ele>1186.4</ele>
        <time>2019-09-01T10:12:59Z</time>
      </trkpt>
      <trkpt lat="44.50351" lon="6.2443">
        <ele>1185.8</ele>
        <time>2019-09-01T10:13:26Z</time>
      </trkpt>
      <trkpt lat="44.5035" lon="6.24434">
        <ele>1186.1</ele>
        <time>2019-09-01T10:13:27Z</time>
      </trkpt>
      <trkpt lat="44.5035" lon="6.24438">
        <ele>1186.4</ele>
        <time>2019-09-01T10:13:28Z</time>
      </trkpt>
      <trkpt lat="44.50349" lon="6.24443">
        <ele>1186.9</ele>
        <time>2019-09-01T10:13:29Z</time>
      </trkpt>
      <trkpt lat="44.50354" lon="6.24469">
        <ele>1190.6</ele>
        <time>2019-09-01T10:13:36Z</time>
      </trkpt>
      <trkpt lat="44.50356" lon="6.2447">
        <ele>1192</ele>
        <time>2019-09-01T10:13:37Z</time>
      </trkpt>
      <trkpt lat="44.50358" lon="6.2447">
        <ele>1193.2</ele>
        <time>2019-09-01T10:13:38Z</time>
      </trkpt>
      <trkpt lat="44.5036" lon="6.24468">
        <ele>1194.1</ele>
        <time>2019-09-01T10:13:39Z</time>
      </trkpt>
      <trkpt lat="44.50361" lon="6.24464">
        <ele>1194.6</ele>
        <time>2019-09-01T10:13:40Z</time>
      </trkpt>
      <trkpt lat="44.50362" lon="6.24461">
        <ele>1195</ele>
        <time>2019-09-01T10:13:41Z</time>
      </trkpt>
      <trkpt lat="44.50369" lon="6.24446">
        <ele>1197.6</ele>
        <time>2019-09-01T10:13:46Z</time>
      </trkpt>
      <trkpt lat="44.50373" lon="6.24438">
        <ele>1198.4</ele>
        <time>2019-09-01T10:13:49Z</time>
      </trkpt>
      <trkpt lat="44.50395" lon="6.24412">
        <ele>1202</ele>
        <time>2019-09-01T10:14:00Z</time>
      </trkpt>
      <trkpt lat="44.50413" lon="6.24395">
        <ele>1205.3</ele>
        <time>2019-09-01T10:14:09Z</time>
      </trkpt>
      <trkpt lat="44.50444" lon="6.24366">
        <ele>1207.6</ele>
        <time>2019-09-01T10:14:24Z</time>
      </trkpt>
      <trkpt lat="44.50473" lon="6.24344">
        <ele>1210.4</ele>
        <time>2019-09-01T10:14:38Z</time>
      </trkpt>
      <trkpt lat="44.50494" lon="6.2432">
        <ele>1211.3</ele>
        <time>2019-09-01T10:14:49Z</time>
      </trkpt>
      <trkpt lat="44.50513" lon="6.24287">
        <ele>1210.2</ele>
        <time>2019-09-01T10:15:01Z</time>
      </trkpt>
      <trkpt lat="44.5054" lon="6.24276">
        <ele>1214.4</ele>
        <time>2019-09-01T10:15:12Z</time>
      </trkpt>
      <trkpt lat="44.50555" lon="6.24254">
        <ele>1212.1</ele>
        <time>2019-09-01T10:15:21Z</time>
      </trkpt>
      <trkpt lat="44.50557" lon="6.24251">
        <ele>1211.7</ele>
        <time>2019-09-01T10:15:22Z</time>
      </trkpt>
      <trkpt lat="44.50559" lon="6.24248">
        <ele>1211.4</ele>
        <time>2019-09-01T10:15:23Z</time>
      </trkpt>
      <trkpt lat="44.5056" lon="6.24246">
        <ele>1211.3</ele>
        <time>2019-09-01T10:15:24Z</time>
      </trkpt>
      <trkpt lat="44.50562" lon="6.24243">
        <ele>1211.2</ele>
        <time>2019-09-01T10:15:25Z</time>
      </trkpt>
      <trkpt lat="44.50563" lon="6.24241">
        <ele>1211.1</ele>
        <time>2019-09-01T10:15:26Z</time>
      </trkpt>
      <trkpt lat="44.50565" lon="6.24239">
        <ele>1211.2</ele>
        <time>2019-09-01T10:15:27Z</time>
      </trkpt>
      <trkpt lat="44.50591" lon="6.24231">
        <ele>1217.5</ele>
        <time>2019-09-01T10:15:38Z</time>
      </trkpt>
      <trkpt lat="44.50606" lon="6.24216">
        <ele>1220.7</ele>
        <time>2019-09-01T10:15:45Z</time>
      </trkpt>
      <trkpt lat="44.50607" lon="6.24206">
        <ele>1220.4</ele>
        <time>2019-09-01T10:15:48Z</time>
      </trkpt>
      <trkpt lat="44.50607" lon="6.24203">
        <ele>1220</ele>
        <time>2019-09-01T10:15:49Z</time>
      </trkpt>
      <trkpt lat="44.50607" lon="6.24199">
        <ele>1219.6</ele>
        <time>2019-09-01T10:15:50Z</time>
      </trkpt>
      <trkpt lat="44.50607" lon="6.24196">
        <ele>1219.5</ele>
        <time>2019-09-01T10:15:51Z</time>
      </trkpt>
      <trkpt lat="44.50607" lon="6.24193">
        <ele>1219.4</ele>
        <time>2019-09-01T10:15:52Z</time>
      </trkpt>
      <trkpt lat="44.50608" lon="6.24189">
        <ele>1219.5</ele>
        <time>2019-09-01T10:15:53Z</time>
      </trkpt>
      <trkpt lat="44.5061" lon="6.24186">
        <ele>1219.8</ele>
        <time>2019-09-01T10:15:54Z</time>
      </trkpt>
      <trkpt lat="44.50611" lon="6.24183">
        <ele>1220.2</ele>
        <time>2019-09-01T10:15:55Z</time>
      </trkpt>
      <trkpt lat="44.50613" lon="6.2418">
        <ele>1220.9</ele>
        <time>2019-09-01T10:15:56Z</time>
      </trkpt>
      <trkpt lat="44.50632" lon="6.24155">
        <ele>1225.6</ele>
        <time>2019-09-01T10:16:06Z</time>
      </trkpt>
      <trkpt lat="44.50644" lon="6.24145">
        <ele>1227.4</ele>
        <time>2019-09-01T10:16:11Z</time>
      </trkpt>
      <trkpt lat="44.50674" lon="6.24129">
        <ele>1233.3</ele>
        <time>2019-09-01T10:16:23Z</time>
      </trkpt>
      <trkpt lat="44.50695" lon="6.24093">
        <ele>1233.5</ele>
        <time>2019-09-01T10:16:35Z</time>
      </trkpt>
      <trkpt lat="44.50713" lon="6.24063">
        <ele>1234.1</ele>
        <time>2019-09-01T10:16:46Z</time>
      </trkpt>
      <trkpt lat="44.50738" lon="6.24053">
        <ele>1236.6</ele>
        <time>2019-09-01T10:16:56Z</time>
      </trkpt>
      <trkpt lat="44.50763" lon="6.2406">
        <ele>1241.2</ele>
        <time>2019-09-01T10:17:06Z</time>
      </trkpt>
      <trkpt lat="44.50791" lon="6.24068">
        <ele>1246.8</ele>
        <time>2019-09-01T10:17:17Z</time>
      </trkpt>
      <trkpt lat="44.50799" lon="6.24063">
        <ele>1247.3</ele>
        <time>2019-09-01T10:17:20Z</time>
      </trkpt>
      <trkpt lat="44.50801" lon="6.2406">
        <ele>1246.9</ele>
        <time>2019-09-01T10:17:21Z</time>
      </trkpt>
      <trkpt lat="44.50798" lon="6.24023">
        <ele>1244.9</ele>
        <time>2019-09-01T10:17:31Z</time>
      </trkpt>
      <trkpt lat="44.50795" lon="6.23995">
        <ele>1243.9</ele>
        <time>2019-09-01T10:17:40Z</time>
      </trkpt>
      <trkpt lat="44.50797" lon="6.23992">
        <ele>1244.3</ele>
        <time>2019-09-01T10:17:41Z</time>
      </trkpt>
      <trkpt lat="44.50798" lon="6.2399">
        <ele>1244.8</ele>
        <time>2019-09-01T10:17:42Z</time>
      </trkpt>
      <trkpt lat="44.50827" lon="6.23985">
        <ele>1253.4</ele>
        <time>2019-09-01T10:17:54Z</time>
      </trkpt>
      <trkpt lat="44.50831" lon="6.23983">
        <ele>1254.8</ele>
        <time>2019-09-01T10:17:56Z</time>
      </trkpt>
      <trkpt lat="44.50834" lon="6.23982">
        <ele>1255.4</ele>
        <time>2019-09-01T10:17:57Z</time>
      </trkpt>
      <trkpt lat="44.50835" lon="6.2398">
        <ele>1256</ele>
        <time>2019-09-01T10:17:58Z</time>
      </trkpt>
      <trkpt lat="44.50837" lon="6.23977">
        <ele>1256.4</ele>
        <time>2019-09-01T10:17:59Z</time>
      </trkpt>
      <trkpt lat="44.50838" lon="6.23974">
        <ele>1256.6</ele>
        <time>2019-09-01T10:18:00Z</time>
      </trkpt>
      <trkpt lat="44.50838" lon="6.23971">
        <ele>1256.7</ele>
        <time>2019-09-01T10:18:01Z</time>
      </trkpt>
      <trkpt lat="44.50838" lon="6.23967">
        <ele>1256.5</ele>
        <time>2019-09-01T10:18:02Z</time>
      </trkpt>
      <trkpt lat="44.50839" lon="6.23964">
        <ele>1256.4</ele>
        <time>2019-09-01T10:18:03Z</time>
      </trkpt>
      <trkpt lat="44.50839" lon="6.23961">
        <ele>1256.2</ele>
        <time>2019-09-01T10:18:04Z</time>
      </trkpt>
      <trkpt lat="44.50845" lon="6.23925">
        <ele>1254.8</ele>
        <time>2019-09-01T10:18:17Z</time>
      </trkpt>
      <trkpt lat="44.50864" lon="6.23912">
        <ele>1258.9</ele>
        <time>2019-09-01T10:18:28Z</time>
      </trkpt>
      <trkpt lat="44.50875" lon="6.23903">
        <ele>1260</ele>
        <time>2019-09-01T10:18:34Z</time>
      </trkpt>
      <trkpt lat="44.50877" lon="6.23902">
        <ele>1260.4</ele>
        <time>2019-09-01T10:18:35Z</time>
      </trkpt>
      <trkpt lat="44.50897" lon="6.23879">
        <ele>1266</ele>
        <time>2019-09-01T10:18:46Z</time>
      </trkpt>
      <trkpt lat="44.5089" lon="6.23852">
        <ele>1264.4</ele>
        <time>2019-09-01T10:18:57Z</time>
      </trkpt>
      <trkpt lat="44.5089" lon="6.23849">
        <ele>1264.4</ele>
        <time>2019-09-01T10:18:58Z</time>
      </trkpt>
      <trkpt lat="44.50889" lon="6.23846">
        <ele>1264.4</ele>
        <time>2019-09-01T10:18:59Z</time>
      </trkpt>
      <trkpt lat="44.50897" lon="6.23807">
        <ele>1269.3</ele>
        <time>2019-09-01T10:19:12Z</time>
      </trkpt>
      <trkpt lat="44.50908" lon="6.23782">
        <ele>1272.9</ele>
        <time>2019-09-01T10:19:22Z</time>
      </trkpt>
      <trkpt lat="44.50923" lon="6.23743">
        <ele>1274.6</ele>
        <time>2019-09-01T10:19:37Z</time>
      </trkpt>
      <trkpt lat="44.50941" lon="6.23716">
        <ele>1276.9</ele>
        <time>2019-09-01T10:19:50Z</time>
      </trkpt>
      <trkpt lat="44.50964" lon="6.23696">
        <ele>1283</ele>
        <time>2019-09-01T10:20:03Z</time>
      </trkpt>
      <trkpt lat="44.50964" lon="6.23687">
        <ele>1282</ele>
        <time>2019-09-01T10:20:06Z</time>
      </trkpt>
      <trkpt lat="44.50963" lon="6.23684">
        <ele>1281.4</ele>
        <time>2019-09-01T10:20:07Z</time>
      </trkpt>
      <trkpt lat="44.50963" lon="6.23681">
        <ele>1280.9</ele>
        <time>2019-09-01T10:20:08Z</time>
      </trkpt>
      <trkpt lat="44.50964" lon="6.23648">
        <ele>1279.5</ele>
        <time>2019-09-01T10:20:20Z</time>
      </trkpt>
      <trkpt lat="44.50966" lon="6.23647">
        <ele>1280.1</ele>
        <time>2019-09-01T10:20:21Z</time>
      </trkpt>
      <trkpt lat="44.50968" lon="6.23647">
        <ele>1280.8</ele>
        <time>2019-09-01T10:20:22Z</time>
      </trkpt>
      <trkpt lat="44.5097" lon="6.23647">
        <ele>1281.5</ele>
        <time>2019-09-01T10:20:23Z</time>
      </trkpt>
      <trkpt lat="44.50972" lon="6.23647">
        <ele>1282.2</ele>
        <time>2019-09-01T10:20:24Z</time>
      </trkpt>
      <trkpt lat="44.50974" lon="6.23647">
        <ele>1282.9</ele>
        <time>2019-09-01T10:20:25Z</time>
      </trkpt>
      <trkpt lat="44.50975" lon="6.23647">
        <ele>1283.4</ele>
        <time>2019-09-01T10:20:26Z</time>
      </trkpt>
      <trkpt lat="44.50977" lon="6.23647">
        <ele>1284.2</ele>
        <time>2019-09-01T10:20:27Z</time>
      </trkpt>
      <trkpt lat="44.50979" lon="6.23647">
        <ele>1285</ele>
        <time>2019-09-01T10:20:28Z</time>
      </trkpt>
      <trkpt lat="44.50991" lon="6.23643">
        <ele>1290</ele>
        <time>2019-09-01T10:20:34Z</time>
      </trkpt>
      <trkpt lat="44.50992" lon="6.2364">
        <ele>1290.5</ele>
        <time>2019-09-01T10:20:35Z</time>
      </trkpt>
      <trkpt lat="44.50993" lon="6.23637">
        <ele>1290.8</ele>
        <time>2019-09-01T10:20:36Z</time>
      </trkpt>
      <trkpt lat="44.50993" lon="6.23634">
        <ele>1291</ele>
        <time>2019-09-01T10:20:37Z</time>
      </trkpt>
      <trkpt lat="44.50993" lon="6.23631">
        <ele>1291.2</ele>
        <time>2019-09-01T10:20:38Z</time>
      </trkpt>
      <trkpt lat="44.51004" lon="6.2359">
        <ele>1297</ele>
        <time>2019-09-01T10:20:52Z</time>
      </trkpt>
      <trkpt lat="44.50996" lon="6.23562">
        <ele>1296.7</ele>
        <time>2019-09-01T10:21:02Z</time>
      </trkpt>
      <trkpt lat="44.50984" lon="6.23539">
        <ele>1295.1</ele>
        <time>2019-09-01T10:21:12Z</time>
      </trkpt>
      <trkpt lat="44.50982" lon="6.23531">
        <ele>1295.4</ele>
        <time>2019-09-01T10:21:15Z</time>
      </trkpt>
      <trkpt lat="44.50982" lon="6.23528">
        <ele>1295.9</ele>
        <time>2019-09-01T10:21:16Z</time>
      </trkpt>
      <trkpt lat="44.50983" lon="6.23526">
        <ele>1296.1</ele>
        <time>2019-09-01T10:21:17Z</time>
      </trkpt>
      <trkpt lat="44.50983" lon="6.23523">
        <ele>1296.2</ele>
        <time>2019-09-01T10:21:18Z</time>
      </trkpt>
      <trkpt lat="44.50984" lon="6.23521">
        <ele>1296.4</ele>
        <time>2019-09-01T10:21:19Z</time>
      </trkpt>
      <trkpt lat="44.50985" lon="6.2352">
        <ele>1296.8</ele>
        <time>2019-09-01T10:21:20Z</time>
      </trkpt>
      <trkpt lat="44.50986" lon="6.23518">
        <ele>1297.4</ele>
        <time>2019-09-01T10:21:21Z</time>
      </trkpt>
      <trkpt lat="44.50988" lon="6.23517">
        <ele>1298</ele>
        <time>2019-09-01T10:21:22Z</time>
      </trkpt>
      <trkpt lat="44.5099" lon="6.23517">
        <ele>1298.9</ele>
        <time>2019-09-01T10:21:23Z</time>
      </trkpt>
      <trkpt lat="44.50992" lon="6.23518">
        <ele>1299.7</ele>
        <time>2019-09-01T10:21:24Z</time>
      </trkpt>
      <trkpt lat="44.50993" lon="6.23519">
        <ele>1300.3</ele>
        <time>2019-09-01T10:21:25Z</time>
      </trkpt>
      <trkpt lat="44.50995" lon="6.23521">
        <ele>1301</ele>
        <time>2019-09-01T10:21:26Z</time>
      </trkpt>
      <trkpt lat="44.50996" lon="6.23524">
        <ele>1301.5</ele>
        <time>2019-09-01T10:21:27Z</time>
      </trkpt>
      <trkpt lat="44.50997" lon="6.23527">
        <ele>1301.8</ele>
        <time>2019-09-01T10:21:28Z</time>
      </trkpt>
      <trkpt lat="44.50998" lon="6.23529">
        <ele>1301.8</ele>
        <time>2019-09-01T10:21:29Z</time>
      </trkpt>
      <trkpt lat="44.50998" lon="6.23532">
        <ele>1301.6</ele>
        <time>2019-09-01T10:21:30Z</time>
      </trkpt>
      <trkpt lat="44.51012" lon="6.23538">
        <ele>1307.5</ele>
        <time>2019-09-01T10:21:40Z</time>
      </trkpt>
      <trkpt lat="44.51013" lon="6.23535">
        <ele>1308.3</ele>
        <time>2019-09-01T10:21:41Z</time>
      </trkpt>
      <trkpt lat="44.51014" lon="6.23533">
        <ele>1309.1</ele>
        <time>2019-09-01T10:21:42Z</time>
      </trkpt>
      <trkpt lat="44.51015" lon="6.2353">
        <ele>1309.7</ele>
        <time>2019-09-01T10:21:43Z</time>
      </trkpt>
      <trkpt lat="44.51016" lon="6.23527">
        <ele>1310.3</ele>
        <time>2019-09-01T10:21:44Z</time>
      </trkpt>
      <trkpt lat="44.51016" lon="6.23525">
        <ele>1310.7</ele>
        <time>2019-09-01T10:21:45Z</time>
      </trkpt>
      <trkpt lat="44.51024" lon="6.23501">
        <ele>1314.4</ele>
        <time>2019-09-01T10:21:54Z</time>
      </trkpt>
      <trkpt lat="44.51028" lon="6.23466">
        <ele>1316.1</ele>
        <time>2019-09-01T10:22:06Z</time>
      </trkpt>
      <trkpt lat="44.51033" lon="6.23439">
        <ele>1319.2</ele>
        <time>2019-09-01T10:22:16Z</time>
      </trkpt>
      <trkpt lat="44.51034" lon="6.23408">
        <ele>1322.3</ele>
        <time>2019-09-01T10:22:27Z</time>
      </trkpt>
      <trkpt lat="44.51028" lon="6.23379">
        <ele>1324.1</ele>
        <time>2019-09-01T10:22:38Z</time>
      </trkpt>
      <trkpt lat="44.51022" lon="6.23347">
        <ele>1325.7</ele>
        <time>2019-09-01T10:22:50Z</time>
      </trkpt>
      <trkpt lat="44.51021" lon="6.23313">
        <ele>1327.1</ele>
        <time>2019-09-01T10:23:03Z</time>
      </trkpt>
      <trkpt lat="44.51037" lon="6.23279">
        <ele>1334.1</ele>
        <time>2019-09-01T10:23:18Z</time>
      </trkpt>
      <trkpt lat="44.51042" lon="6.23261">
        <ele>1335.9</ele>
        <time>2019-09-01T10:23:25Z</time>
      </trkpt>
      <trkpt lat="44.51042" lon="6.23259">
        <ele>1335.9</ele>
        <time>2019-09-01T10:23:26Z</time>
      </trkpt>
      <trkpt lat="44.51043" lon="6.23256">
        <ele>1336</ele>
        <time>2019-09-01T10:23:27Z</time>
      </trkpt>
      <trkpt lat="44.51043" lon="6.23254">
        <ele>1336</ele>
        <time>2019-09-01T10:23:28Z</time>
      </trkpt>
      <trkpt lat="44.51044" lon="6.23251">
        <ele>1336.1</ele>
        <time>2019-09-01T10:23:29Z</time>
      </trkpt>
      <trkpt lat="44.51048" lon="6.23229">
        <ele>1338.4</ele>
        <time>2019-09-01T10:23:38Z</time>
      </trkpt>
      <trkpt lat="44.51049" lon="6.23226">
        <ele>1338.8</ele>
        <time>2019-09-01T10:23:39Z</time>
      </trkpt>
      <trkpt lat="44.5105" lon="6.23224">
        <ele>1339</ele>
        <time>2019-09-01T10:23:40Z</time>
      </trkpt>
      <trkpt lat="44.51054" lon="6.23192">
        <ele>1343.5</ele>
        <time>2019-09-01T10:23:51Z</time>
      </trkpt>
      <trkpt lat="44.51058" lon="6.23181">
        <ele>1346.9</ele>
        <time>2019-09-01T10:23:56Z</time>
      </trkpt>
      <trkpt lat="44.51059" lon="6.23181">
        <ele>1347.5</ele>
        <time>2019-09-01T10:23:57Z</time>
      </trkpt>
      <trkpt lat="44.51061" lon="6.23182">
        <ele>1348</ele>
        <time>2019-09-01T10:23:58Z</time>
      </trkpt>
      <trkpt lat="44.51063" lon="6.23184">
        <ele>1348.2</ele>
        <time>2019-09-01T10:23:59Z</time>
      </trkpt>
      <trkpt lat="44.51065" lon="6.23186">
        <ele>1348.3</ele>
        <time>2019-09-01T10:24:00Z</time>
      </trkpt>
      <trkpt lat="44.51066" lon="6.23189">
        <ele>1348.2</ele>
        <time>2019-09-01T10:24:01Z</time>
      </trkpt>
      <trkpt lat="44.51067" lon="6.23192">
        <ele>1347.9</ele>
        <time>2019-09-01T10:24:02Z</time>
      </trkpt>
      <trkpt lat="44.51067" lon="6.23195">
        <ele>1347.5</ele>
        <time>2019-09-01T10:24:03Z</time>
      </trkpt>
      <trkpt lat="44.51067" lon="6.23198">
        <ele>1347.5</ele>
        <time>2019-09-01T10:24:04Z</time>
      </trkpt>
      <trkpt lat="44.51068" lon="6.23228">
        <ele>1347.9</ele>
        <time>2019-09-01T10:24:14Z</time>
      </trkpt>
      <trkpt lat="44.51076" lon="6.23254">
        <ele>1354.4</ele>
        <time>2019-09-01T10:24:24Z</time>
      </trkpt>
      <trkpt lat="44.51073" lon="6.23284">
        <ele>1355.6</ele>
        <time>2019-09-01T10:24:35Z</time>
      </trkpt>
      <trkpt lat="44.51072" lon="6.23306">
        <ele>1356.5</ele>
        <time>2019-09-01T10:24:43Z</time>
      </trkpt>
      <trkpt lat="44.51072" lon="6.23317">
        <ele>1355.8</ele>
        <time>2019-09-01T10:24:47Z</time>
      </trkpt>
      <trkpt lat="44.51072" lon="6.2332">
        <ele>1356</ele>
        <time>2019-09-01T10:24:48Z</time>
      </trkpt>
      <trkpt lat="44.51079" lon="6.2333">
        <ele>1358.8</ele>
        <time>2019-09-01T10:24:53Z</time>
      </trkpt>
      <trkpt lat="44.5108" lon="6.23331">
        <ele>1359.7</ele>
        <time>2019-09-01T10:24:54Z</time>
      </trkpt>
      <trkpt lat="44.51082" lon="6.23331">
        <ele>1360.7</ele>
        <time>2019-09-01T10:24:55Z</time>
      </trkpt>
      <trkpt lat="44.51084" lon="6.23329">
        <ele>1361.5</ele>
        <time>2019-09-01T10:24:56Z</time>
      </trkpt>
      <trkpt lat="44.51085" lon="6.23327">
        <ele>1362.2</ele>
        <time>2019-09-01T10:24:57Z</time>
      </trkpt>
      <trkpt lat="44.51086" lon="6.23325">
        <ele>1362.8</ele>
        <time>2019-09-01T10:24:58Z</time>
      </trkpt>
      <trkpt lat="44.51087" lon="6.23322">
        <ele>1363.3</ele>
        <time>2019-09-01T10:24:59Z</time>
      </trkpt>
      <trkpt lat="44.51087" lon="6.2332">
        <ele>1363.7</ele>
        <time>2019-09-01T10:25:00Z</time>
      </trkpt>
      <trkpt lat="44.5109" lon="6.23295">
        <ele>1365.5</ele>
        <time>2019-09-01T10:25:09Z</time>
      </trkpt>
      <trkpt lat="44.51103" lon="6.23274">
        <ele>1370.5</ele>
        <time>2019-09-01T10:25:19Z</time>
      </trkpt>
      <trkpt lat="44.51111" lon="6.23246">
        <ele>1372.4</ele>
        <time>2019-09-01T10:25:30Z</time>
      </trkpt>
      <trkpt lat="44.51112" lon="6.23244">
        <ele>1372.3</ele>
        <time>2019-09-01T10:25:31Z</time>
      </trkpt>
      <trkpt lat="44.51123" lon="6.23222">
        <ele>1373.2</ele>
        <time>2019-09-01T10:25:41Z</time>
      </trkpt>
      <trkpt lat="44.51155" lon="6.23205">
        <ele>1380.1</ele>
        <time>2019-09-01T10:25:57Z</time>
      </trkpt>
      <trkpt lat="44.51189" lon="6.23188">
        <ele>1385.1</ele>
        <time>2019-09-01T10:26:16Z</time>
      </trkpt>
      <trkpt lat="44.51218" lon="6.23174">
        <ele>1387.7</ele>
        <time>2019-09-01T10:26:32Z</time>
      </trkpt>
      <trkpt lat="44.51247" lon="6.23159">
        <ele>1390.6</ele>
        <time>2019-09-01T10:26:48Z</time>
      </trkpt>
      <trkpt lat="44.51259" lon="6.23122">
        <ele>1389.4</ele>
        <time>2019-09-01T10:27:01Z</time>
      </trkpt>
      <trkpt lat="44.51276" lon="6.23069">
        <ele>1389.3</ele>
        <time>2019-09-01T10:27:17Z</time>
      </trkpt>
      <trkpt lat="44.51294" lon="6.23056">
        <ele>1389.6</ele>
        <time>2019-09-01T10:27:30Z</time>
      </trkpt>
      <trkpt lat="44.513" lon="6.23048">
        <ele>1389.6</ele>
        <time>2019-09-01T10:27:50Z</time>
      </trkpt>
      <trkpt lat="44.51302" lon="6.23047">
        <ele>1389.5</ele>
        <time>2019-09-01T10:27:51Z</time>
      </trkpt>
      <trkpt lat="44.51303" lon="6.23045">
        <ele>1389.5</ele>
        <time>2019-09-01T10:27:52Z</time>
      </trkpt>
      <trkpt lat="44.51305" lon="6.23043">
        <ele>1389.5</ele>
        <time>2019-09-01T10:27:53Z</time>
      </trkpt>
      <trkpt lat="44.51306" lon="6.23041">
        <ele>1389.5</ele>
        <time>2019-09-01T10:27:54Z</time>
      </trkpt>
      <trkpt lat="44.51307" lon="6.2304">
        <ele>1389.4</ele>
        <time>2019-09-01T10:27:55Z</time>
      </trkpt>
      <trkpt lat="44.51308" lon="6.23037">
        <ele>1389.3</ele>
        <time>2019-09-01T10:28:01Z</time>
      </trkpt>
      <trkpt lat="44.51306" lon="6.23032">
        <ele>1389.2</ele>
        <time>2019-09-01T10:28:49Z</time>
      </trkpt>
      <trkpt lat="44.51304" lon="6.23032">
        <ele>1389.1</ele>
        <time>2019-09-01T10:28:54Z</time>
      </trkpt>
      <trkpt lat="44.51302" lon="6.23032">
        <ele>1389</ele>
        <time>2019-09-01T10:30:17Z</time>
      </trkpt>
      <trkpt lat="44.51302" lon="6.23032">
        <ele>1389</ele>
        <time>2019-09-01T10:30:20Z</time>
      </trkpt>
      <trkpt lat="44.51298" lon="6.23019">
        <ele>1388.7</ele>
        <time>2019-09-01T10:32:05Z</time>
      </trkpt>
      <trkpt lat="44.51296" lon="6.23016">
        <ele>1388.7</ele>
        <time>2019-09-01T10:32:06Z</time>
      </trkpt>
      <trkpt lat="44.51267" lon="6.22971">
        <ele>1389</ele>
        <time>2019-09-01T10:32:20Z</time>
      </trkpt>
      <trkpt lat="44.51224" lon="6.22927">
        <ele>1393.2</ele>
        <time>2019-09-01T10:32:40Z</time>
      </trkpt>
      <trkpt lat="44.51194" lon="6.22934">
        <ele>1396.3</ele>
        <time>2019-09-01T10:32:53Z</time>
      </trkpt>
      <trkpt lat="44.51173" lon="6.22951">
        <ele>1400.9</ele>
        <time>2019-09-01T10:33:05Z</time>
      </trkpt>
      <trkpt lat="44.51151" lon="6.22978">
        <ele>1403</ele>
        <time>2019-09-01T10:33:18Z</time>
      </trkpt>
      <trkpt lat="44.51131" lon="6.22998">
        <ele>1403.8</ele>
        <time>2019-09-01T10:33:29Z</time>
      </trkpt>
      <trkpt lat="44.51106" lon="6.23014">
        <ele>1405.5</ele>
        <time>2019-09-01T10:33:42Z</time>
      </trkpt>
      <trkpt lat="44.51079" lon="6.2302">
        <ele>1408.2</ele>
        <time>2019-09-01T10:33:54Z</time>
      </trkpt>
      <trkpt lat="44.51047" lon="6.23023">
        <ele>1411.6</ele>
        <time>2019-09-01T10:34:09Z</time>
      </trkpt>
      <trkpt lat="44.51011" lon="6.23026">
        <ele>1414.6</ele>
        <time>2019-09-01T10:34:26Z</time>
      </trkpt>
      <trkpt lat="44.50986" lon="6.23021">
        <ele>1419</ele>
        <time>2019-09-01T10:34:38Z</time>
      </trkpt>
      <trkpt lat="44.5096" lon="6.23019">
        <ele>1422.1</ele>
        <time>2019-09-01T10:34:51Z</time>
      </trkpt>
      <trkpt lat="44.50939" lon="6.23024">
        <ele>1422.2</ele>
        <time>2019-09-01T10:35:03Z</time>
      </trkpt>
      <trkpt lat="44.50911" lon="6.23036">
        <ele>1421.4</ele>
        <time>2019-09-01T10:35:19Z</time>
      </trkpt>
      <trkpt lat="44.50893" lon="6.23038">
        <ele>1421.5</ele>
        <time>2019-09-01T10:35:29Z</time>
      </trkpt>
      <trkpt lat="44.50891" lon="6.23036">
        <ele>1422.2</ele>
        <time>2019-09-01T10:35:30Z</time>
      </trkpt>
      <trkpt lat="44.5089" lon="6.23034">
        <ele>1423.1</ele>
        <time>2019-09-01T10:35:31Z</time>
      </trkpt>
      <trkpt lat="44.5089" lon="6.23031">
        <ele>1424</ele>
        <time>2019-09-01T10:35:32Z</time>
      </trkpt>
      <trkpt lat="44.50891" lon="6.23028">
        <ele>1424.8</ele>
        <time>2019-09-01T10:35:33Z</time>
      </trkpt>
      <trkpt lat="44.50892" lon="6.23026">
        <ele>1425.3</ele>
        <time>2019-09-01T10:35:34Z</time>
      </trkpt>
      <trkpt lat="44.50894" lon="6.23024">
        <ele>1425.8</ele>
        <time>2019-09-01T10:35:35Z</time>
      </trkpt>
      <trkpt lat="44.50895" lon="6.23022">
        <ele>1426.2</ele>
        <time>2019-09-01T10:35:36Z</time>
      </trkpt>
      <trkpt lat="44.50897" lon="6.23021">
        <ele>1426.6</ele>
        <time>2019-09-01T10:35:37Z</time>
      </trkpt>
      <trkpt lat="44.50899" lon="6.23019">
        <ele>1427</ele>
        <time>2019-09-01T10:35:38Z</time>
      </trkpt>
      <trkpt lat="44.50901" lon="6.23018">
        <ele>1427.2</ele>
        <time>2019-09-01T10:35:39Z</time>
      </trkpt>
      <trkpt lat="44.50923" lon="6.23003">
        <ele>1431.7</ele>
        <time>2019-09-01T10:35:51Z</time>
      </trkpt>
      <trkpt lat="44.50951" lon="6.22979">
        <ele>1437.6</ele>
        <time>2019-09-01T10:36:08Z</time>
      </trkpt>
      <trkpt lat="44.50973" lon="6.22968">
        <ele>1440.3</ele>
        <time>2019-09-01T10:36:21Z</time>
      </trkpt>
      <trkpt lat="44.50999" lon="6.22965">
        <ele>1441.7</ele>
        <time>2019-09-01T10:36:35Z</time>
      </trkpt>
      <trkpt lat="44.5102" lon="6.22947">
        <ele>1445.9</ele>
        <time>2019-09-01T10:36:48Z</time>
      </trkpt>
      <trkpt lat="44.51029" lon="6.22915">
        <ele>1451.9</ele>
        <time>2019-09-01T10:37:01Z</time>
      </trkpt>
      <trkpt lat="44.5103" lon="6.22868">
        <ele>1455.4</ele>
        <time>2019-09-01T10:37:18Z</time>
      </trkpt>
      <trkpt lat="44.51029" lon="6.22824">
        <ele>1457</ele>
        <time>2019-09-01T10:37:34Z</time>
      </trkpt>
      <trkpt lat="44.51024" lon="6.22781">
        <ele>1460.1</ele>
        <time>2019-09-01T10:37:50Z</time>
      </trkpt>
      <trkpt lat="44.51026" lon="6.22763">
        <ele>1461.8</ele>
        <time>2019-09-01T10:37:57Z</time>
      </trkpt>
      <trkpt lat="44.51027" lon="6.2276">
        <ele>1462</ele>
        <time>2019-09-01T10:37:58Z</time>
      </trkpt>
      <trkpt lat="44.51033" lon="6.2272">
        <ele>1465.2</ele>
        <time>2019-09-01T10:38:13Z</time>
      </trkpt>
      <trkpt lat="44.51031" lon="6.22683">
        <ele>1469.3</ele>
        <time>2019-09-01T10:38:27Z</time>
      </trkpt>
      <trkpt lat="44.51025" lon="6.22653">
        <ele>1472.1</ele>
        <time>2019-09-01T10:38:39Z</time>
      </trkpt>
      <trkpt lat="44.51022" lon="6.2262">
        <ele>1475</ele>
        <time>2019-09-01T10:38:52Z</time>
      </trkpt>
      <trkpt lat="44.51022" lon="6.22582">
        <ele>1478.2</ele>
        <time>2019-09-01T10:39:07Z</time>
      </trkpt>
      <trkpt lat="44.51023" lon="6.22563">
        <ele>1480</ele>
        <time>2019-09-01T10:39:14Z</time>
      </trkpt>
      <trkpt lat="44.51023" lon="6.22561">
        <ele>1480.3</ele>
        <time>2019-09-01T10:39:15Z</time>
      </trkpt>
      <trkpt lat="44.51023" lon="6.22558">
        <ele>1480.6</ele>
        <time>2019-09-01T10:39:16Z</time>
      </trkpt>
      <trkpt lat="44.51023" lon="6.22555">
        <ele>1480.8</ele>
        <time>2019-09-01T10:39:17Z</time>
      </trkpt>
      <trkpt lat="44.51023" lon="6.22552">
        <ele>1481.2</ele>
        <time>2019-09-01T10:39:18Z</time>
      </trkpt>
      <trkpt lat="44.51024" lon="6.2255">
        <ele>1481.6</ele>
        <time>2019-09-01T10:39:19Z</time>
      </trkpt>
      <trkpt lat="44.51024" lon="6.22547">
        <ele>1481.8</ele>
        <time>2019-09-01T10:39:20Z</time>
      </trkpt>
      <trkpt lat="44.51031" lon="6.22505">
        <ele>1485.5</ele>
        <time>2019-09-01T10:39:36Z</time>
      </trkpt>
      <trkpt lat="44.51033" lon="6.22463">
        <ele>1489</ele>
        <time>2019-09-01T10:39:52Z</time>
      </trkpt>
      <trkpt lat="44.51039" lon="6.22419">
        <ele>1492.6</ele>
        <time>2019-09-01T10:40:09Z</time>
      </trkpt>
      <trkpt lat="44.51051" lon="6.2238">
        <ele>1495.3</ele>
        <time>2019-09-01T10:40:25Z</time>
      </trkpt>
      <trkpt lat="44.51062" lon="6.22342">
        <ele>1498.1</ele>
        <time>2019-09-01T10:40:40Z</time>
      </trkpt>
      <trkpt lat="44.51074" lon="6.22304">
        <ele>1501.4</ele>
        <time>2019-09-01T10:40:56Z</time>
      </trkpt>
      <trkpt lat="44.51085" lon="6.22264">
        <ele>1502.9</ele>
        <time>2019-09-01T10:41:12Z</time>
      </trkpt>
      <trkpt lat="44.51088" lon="6.22249">
        <ele>1503.3</ele>
        <time>2019-09-01T10:41:18Z</time>
      </trkpt>
      <trkpt lat="44.51087" lon="6.22246">
        <ele>1503.6</ele>
        <time>2019-09-01T10:41:19Z</time>
      </trkpt>
      <trkpt lat="44.51085" lon="6.22244">
        <ele>1504.3</ele>
        <time>2019-09-01T10:41:20Z</time>
      </trkpt>
      <trkpt lat="44.51083" lon="6.22242">
        <ele>1505</ele>
        <time>2019-09-01T10:41:21Z</time>
      </trkpt>
      <trkpt lat="44.51081" lon="6.22241">
        <ele>1505.8</ele>
        <time>2019-09-01T10:41:22Z</time>
      </trkpt>
      <trkpt lat="44.51079" lon="6.22241">
        <ele>1506.6</ele>
        <time>2019-09-01T10:41:23Z</time>
      </trkpt>
      <trkpt lat="44.51077" lon="6.22242">
        <ele>1507.4</ele>
        <time>2019-09-01T10:41:24Z</time>
      </trkpt>
      <trkpt lat="44.51076" lon="6.22243">
        <ele>1508.1</ele>
        <time>2019-09-01T10:41:25Z</time>
      </trkpt>
      <trkpt lat="44.51074" lon="6.22245">
        <ele>1508.7</ele>
        <time>2019-09-01T10:41:26Z</time>
      </trkpt>
      <trkpt lat="44.51073" lon="6.22248">
        <ele>1509.1</ele>
        <time>2019-09-01T10:41:27Z</time>
      </trkpt>
      <trkpt lat="44.51072" lon="6.2225">
        <ele>1509.6</ele>
        <time>2019-09-01T10:41:28Z</time>
      </trkpt>
      <trkpt lat="44.51056" lon="6.22279">
        <ele>1510.7</ele>
        <time>2019-09-01T10:41:41Z</time>
      </trkpt>
      <trkpt lat="44.5105" lon="6.22286">
        <ele>1511.6</ele>
        <time>2019-09-01T10:41:45Z</time>
      </trkpt>
      <trkpt lat="44.51049" lon="6.22288">
        <ele>1511.7</ele>
        <time>2019-09-01T10:41:46Z</time>
      </trkpt>
      <trkpt lat="44.51027" lon="6.22313">
        <ele>1514.3</ele>
        <time>2019-09-01T10:42:01Z</time>
      </trkpt>
      <trkpt lat="44.51001" lon="6.22345">
        <ele>1518.4</ele>
        <time>2019-09-01T10:42:19Z</time>
      </trkpt>
      <trkpt lat="44.50977" lon="6.22379">
        <ele>1521.2</ele>
        <time>2019-09-01T10:42:37Z</time>
      </trkpt>
      <trkpt lat="44.50957" lon="6.22406">
        <ele>1523.1</ele>
        <time>2019-09-01T10:42:51Z</time>
      </trkpt>
      <trkpt lat="44.50929" lon="6.2243">
        <ele>1525.1</ele>
        <time>2019-09-01T10:43:09Z</time>
      </trkpt>
      <trkpt lat="44.50909" lon="6.22415">
        <ele>1527.1</ele>
        <time>2019-09-01T10:43:22Z</time>
      </trkpt>
      <trkpt lat="44.50921" lon="6.22384">
        <ele>1530.9</ele>
        <time>2019-09-01T10:43:35Z</time>
      </trkpt>
      <trkpt lat="44.50942" lon="6.22349">
        <ele>1534.6</ele>
        <time>2019-09-01T10:43:52Z</time>
      </trkpt>
      <trkpt lat="44.50958" lon="6.22321">
        <ele>1536.2</ele>
        <time>2019-09-01T10:44:05Z</time>
      </trkpt>
      <trkpt lat="44.50971" lon="6.22279">
        <ele>1538.2</ele>
        <time>2019-09-01T10:44:22Z</time>
      </trkpt>
      <trkpt lat="44.50975" lon="6.22236">
        <ele>1541.4</ele>
        <time>2019-09-01T10:44:38Z</time>
      </trkpt>
      <trkpt lat="44.50974" lon="6.22188">
        <ele>1545.2</ele>
        <time>2019-09-01T10:44:55Z</time>
      </trkpt>
      <trkpt lat="44.5098" lon="6.22143">
        <ele>1548.3</ele>
        <time>2019-09-01T10:45:13Z</time>
      </trkpt>
      <trkpt lat="44.50986" lon="6.221">
        <ele>1552.6</ele>
        <time>2019-09-01T10:45:30Z</time>
      </trkpt>
      <trkpt lat="44.5099" lon="6.22066">
        <ele>1555.1</ele>
        <time>2019-09-01T10:45:43Z</time>
      </trkpt>
      <trkpt lat="44.51" lon="6.22025">
        <ele>1557.4</ele>
        <time>2019-09-01T10:46:00Z</time>
      </trkpt>
      <trkpt lat="44.51012" lon="6.21992">
        <ele>1555.9</ele>
        <time>2019-09-01T10:46:14Z</time>
      </trkpt>
      <trkpt lat="44.51012" lon="6.2199">
        <ele>1556.2</ele>
        <time>2019-09-01T10:46:15Z</time>
      </trkpt>
      <trkpt lat="44.51012" lon="6.21987">
        <ele>1556.4</ele>
        <time>2019-09-01T10:46:16Z</time>
      </trkpt>
      <trkpt lat="44.51012" lon="6.21985">
        <ele>1556.8</ele>
        <time>2019-09-01T10:46:17Z</time>
      </trkpt>
      <trkpt lat="44.51011" lon="6.21983">
        <ele>1557.3</ele>
        <time>2019-09-01T10:46:18Z</time>
      </trkpt>
      <trkpt lat="44.5101" lon="6.21981">
        <ele>1557.8</ele>
        <time>2019-09-01T10:46:19Z</time>
      </trkpt>
      <trkpt lat="44.51009" lon="6.21979">
        <ele>1558.5</ele>
        <time>2019-09-01T10:46:20Z</time>
      </trkpt>
      <trkpt lat="44.51007" lon="6.21978">
        <ele>1559.6</ele>
        <time>2019-09-01T10:46:21Z</time>
      </trkpt>
      <trkpt lat="44.51005" lon="6.21977">
        <ele>1560.6</ele>
        <time>2019-09-01T10:46:22Z</time>
      </trkpt>
      <trkpt lat="44.51003" lon="6.21978">
        <ele>1561.3</ele>
        <time>2019-09-01T10:46:23Z</time>
      </trkpt>
      <trkpt lat="44.51001" lon="6.21979">
        <ele>1562</ele>
        <time>2019-09-01T10:46:24Z</time>
      </trkpt>
      <trkpt lat="44.50999" lon="6.21981">
        <ele>1562.5</ele>
        <time>2019-09-01T10:46:25Z</time>
      </trkpt>
      <trkpt lat="44.50998" lon="6.21983">
        <ele>1562.9</ele>
        <time>2019-09-01T10:46:26Z</time>
      </trkpt>
      <trkpt lat="44.50996" lon="6.21985">
        <ele>1563.2</ele>
        <time>2019-09-01T10:46:27Z</time>
      </trkpt>
      <trkpt lat="44.50995" lon="6.21988">
        <ele>1563.5</ele>
        <time>2019-09-01T10:46:28Z</time>
      </trkpt>
      <trkpt lat="44.50994" lon="6.2199">
        <ele>1563.7</ele>
        <time>2019-09-01T10:46:29Z</time>
      </trkpt>
      <trkpt lat="44.50976" lon="6.22032">
        <ele>1567.3</ele>
        <time>2019-09-01T10:46:46Z</time>
      </trkpt>
      <trkpt lat="44.5095" lon="6.22092">
        <ele>1570.5</ele>
        <time>2019-09-01T10:47:11Z</time>
      </trkpt>
      <trkpt lat="44.50928" lon="6.2214">
        <ele>1570.7</ele>
        <time>2019-09-01T10:47:30Z</time>
      </trkpt>
      <trkpt lat="44.50893" lon="6.22156">
        <ele>1573.8</ele>
        <time>2019-09-01T10:47:48Z</time>
      </trkpt>
      <trkpt lat="44.50864" lon="6.22146">
        <ele>1576</ele>
        <time>2019-09-01T10:48:02Z</time>
      </trkpt>
      <trkpt lat="44.50841" lon="6.22138">
        <ele>1577.5</ele>
        <time>2019-09-01T10:48:13Z</time>
      </trkpt>
      <trkpt lat="44.50814" lon="6.22114">
        <ele>1579</ele>
        <time>2019-09-01T10:48:28Z</time>
      </trkpt>
      <trkpt lat="44.50818" lon="6.22065">
        <ele>1584.9</ele>
        <time>2019-09-01T10:48:43Z</time>
      </trkpt>
      <trkpt lat="44.50824" lon="6.22021">
        <ele>1588.6</ele>
        <time>2019-09-01T10:48:58Z</time>
      </trkpt>
      <trkpt lat="44.50829" lon="6.21989">
        <ele>1590</ele>
        <time>2019-09-01T10:49:10Z</time>
      </trkpt>
      <trkpt lat="44.50849" lon="6.21946">
        <ele>1592.3</ele>
        <time>2019-09-01T10:49:27Z</time>
      </trkpt>
      <trkpt lat="44.50872" lon="6.21914">
        <ele>1593.8</ele>
        <time>2019-09-01T10:49:43Z</time>
      </trkpt>
      <trkpt lat="44.50878" lon="6.21874">
        <ele>1596.1</ele>
        <time>2019-09-01T10:49:58Z</time>
      </trkpt>
      <trkpt lat="44.50861" lon="6.21838">
        <ele>1600</ele>
        <time>2019-09-01T10:50:13Z</time>
      </trkpt>
      <trkpt lat="44.50837" lon="6.21815">
        <ele>1600.6</ele>
        <time>2019-09-01T10:50:26Z</time>
      </trkpt>
      <trkpt lat="44.50819" lon="6.21811">
        <ele>1597.8</ele>
        <time>2019-09-01T10:50:34Z</time>
      </trkpt>
      <trkpt lat="44.50818" lon="6.21809">
        <ele>1597.8</ele>
        <time>2019-09-01T10:50:35Z</time>
      </trkpt>
      <trkpt lat="44.50793" lon="6.21798">
        <ele>1594.2</ele>
        <time>2019-09-01T10:50:46Z</time>
      </trkpt>
      <trkpt lat="44.50793" lon="6.21758">
        <ele>1600.5</ele>
        <time>2019-09-01T10:50:56Z</time>
      </trkpt>
      <trkpt lat="44.50791" lon="6.21754">
        <ele>1600.6</ele>
        <time>2019-09-01T10:50:57Z</time>
      </trkpt>
      <trkpt lat="44.50787" lon="6.21751">
        <ele>1600.6</ele>
        <time>2019-09-01T10:50:58Z</time>
      </trkpt>
      <trkpt lat="44.50783" lon="6.21749">
        <ele>1600.2</ele>
        <time>2019-09-01T10:50:59Z</time>
      </trkpt>
      <trkpt lat="44.50779" lon="6.21749">
        <ele>1599.6</ele>
        <time>2019-09-01T10:51:00Z</time>
      </trkpt>
      <trkpt lat="44.50776" lon="6.21749">
        <ele>1599.1</ele>
        <time>2019-09-01T10:51:01Z</time>
      </trkpt>
      <trkpt lat="44.50772" lon="6.21751">
        <ele>1598.7</ele>
        <time>2019-09-01T10:51:02Z</time>
      </trkpt>
      <trkpt lat="44.50745" lon="6.21762">
        <ele>1595.4</ele>
        <time>2019-09-01T10:51:11Z</time>
      </trkpt>
      <trkpt lat="44.50715" lon="6.21772">
        <ele>1594.9</ele>
        <time>2019-09-01T10:51:23Z</time>
      </trkpt>
      <trkpt lat="44.50691" lon="6.21772">
        <ele>1596.7</ele>
        <time>2019-09-01T10:51:32Z</time>
      </trkpt>
      <trkpt lat="44.5065" lon="6.21793">
        <ele>1598.5</ele>
        <time>2019-09-01T10:51:48Z</time>
      </trkpt>
      <trkpt lat="44.50619" lon="6.21798">
        <ele>1599</ele>
        <time>2019-09-01T10:52:01Z</time>
      </trkpt>
      <trkpt lat="44.5058" lon="6.21782">
        <ele>1598.9</ele>
        <time>2019-09-01T10:52:15Z</time>
      </trkpt>
      <trkpt lat="44.5055" lon="6.21755">
        <ele>1597.3</ele>
        <time>2019-09-01T10:52:25Z</time>
      </trkpt>
      <trkpt lat="44.50535" lon="6.2174">
        <ele>1597</ele>
        <time>2019-09-01T10:52:28Z</time>
      </trkpt>
      <trkpt lat="44.50492" lon="6.21709">
        <ele>1598.7</ele>
        <time>2019-09-01T10:52:40Z</time>
      </trkpt>
      <trkpt lat="44.50457" lon="6.21705">
        <ele>1601.5</ele>
        <time>2019-09-01T10:52:54Z</time>
      </trkpt>
      <trkpt lat="44.50439" lon="6.21703">
        <ele>1603.4</ele>
        <time>2019-09-01T10:53:03Z</time>
      </trkpt>
      <trkpt lat="44.50416" lon="6.21693">
        <ele>1606.2</ele>
        <time>2019-09-01T10:53:15Z</time>
      </trkpt>
      <trkpt lat="44.50384" lon="6.21675">
        <ele>1610</ele>
        <time>2019-09-01T10:53:30Z</time>
      </trkpt>
      <trkpt lat="44.50361" lon="6.21662">
        <ele>1610.8</ele>
        <time>2019-09-01T10:53:42Z</time>
      </trkpt>
      <trkpt lat="44.50333" lon="6.21645">
        <ele>1611.6</ele>
        <time>2019-09-01T10:53:55Z</time>
      </trkpt>
      <trkpt lat="44.50302" lon="6.21618">
        <ele>1616</ele>
        <time>2019-09-01T10:54:11Z</time>
      </trkpt>
      <trkpt lat="44.50271" lon="6.21589">
        <ele>1621.1</ele>
        <time>2019-09-01T10:54:29Z</time>
      </trkpt>
      <trkpt lat="44.50247" lon="6.21581">
        <ele>1623.4</ele>
        <time>2019-09-01T10:54:41Z</time>
      </trkpt>
      <trkpt lat="44.50208" lon="6.21587">
        <ele>1626.4</ele>
        <time>2019-09-01T10:54:59Z</time>
      </trkpt>
      <trkpt lat="44.50184" lon="6.21568">
        <ele>1629.7</ele>
        <time>2019-09-01T10:55:13Z</time>
      </trkpt>
      <trkpt lat="44.50158" lon="6.21546">
        <ele>1632.8</ele>
        <time>2019-09-01T10:55:28Z</time>
      </trkpt>
      <trkpt lat="44.50131" lon="6.21524">
        <ele>1635</ele>
        <time>2019-09-01T10:55:44Z</time>
      </trkpt>
      <trkpt lat="44.50111" lon="6.21519">
        <ele>1637.6</ele>
        <time>2019-09-01T10:55:59Z</time>
      </trkpt>
      <trkpt lat="44.50111" lon="6.21509">
        <ele>1637.3</ele>
        <time>2019-09-01T10:56:58Z</time>
      </trkpt>
      <trkpt lat="44.50112" lon="6.21506">
        <ele>1637.1</ele>
        <time>2019-09-01T10:56:59Z</time>
      </trkpt>
      <trkpt lat="44.50112" lon="6.21504">
        <ele>1637.1</ele>
        <time>2019-09-01T10:57:00Z</time>
      </trkpt>
      <trkpt lat="44.50111" lon="6.21501">
        <ele>1637</ele>
        <time>2019-09-01T10:57:01Z</time>
      </trkpt>
      <trkpt lat="44.50112" lon="6.2149">
        <ele>1636.2</ele>
        <time>2019-09-01T10:57:06Z</time>
      </trkpt>
      <trkpt lat="44.50112" lon="6.21488">
        <ele>1636.1</ele>
        <time>2019-09-01T10:57:07Z</time>
      </trkpt>
      <trkpt lat="44.50111" lon="6.21487">
        <ele>1636.1</ele>
        <time>2019-09-01T10:57:08Z</time>
      </trkpt>
      <trkpt lat="44.50109" lon="6.21486">
        <ele>1636.2</ele>
        <time>2019-09-01T10:57:09Z</time>
      </trkpt>
      <trkpt lat="44.50105" lon="6.21499">
        <ele>1637.6</ele>
        <time>2019-09-01T10:57:15Z</time>
      </trkpt>
      <trkpt lat="44.50105" lon="6.21502">
        <ele>1637.8</ele>
        <time>2019-09-01T10:57:16Z</time>
      </trkpt>
      <trkpt lat="44.50105" lon="6.21505">
        <ele>1637.9</ele>
        <time>2019-09-01T10:57:17Z</time>
      </trkpt>
      <trkpt lat="44.50098" lon="6.21547">
        <ele>1640.1</ele>
        <time>2019-09-01T10:57:32Z</time>
      </trkpt>
      <trkpt lat="44.50076" lon="6.21568">
        <ele>1645.3</ele>
        <time>2019-09-01T10:57:47Z</time>
      </trkpt>
      <trkpt lat="44.50059" lon="6.21567">
        <ele>1648.2</ele>
        <time>2019-09-01T10:57:56Z</time>
      </trkpt>
      <trkpt lat="44.50041" lon="6.21558">
        <ele>1650.8</ele>
        <time>2019-09-01T10:58:06Z</time>
      </trkpt>
      <trkpt lat="44.50015" lon="6.21544">
        <ele>1654.5</ele>
        <time>2019-09-01T10:58:21Z</time>
      </trkpt>
      <trkpt lat="44.4998" lon="6.21527">
        <ele>1658.8</ele>
        <time>2019-09-01T10:58:40Z</time>
      </trkpt>
      <trkpt lat="44.49957" lon="6.21517">
        <ele>1660.7</ele>
        <time>2019-09-01T10:58:54Z</time>
      </trkpt>
      <trkpt lat="44.49937" lon="6.21504">
        <ele>1662.4</ele>
        <time>2019-09-01T10:59:06Z</time>
      </trkpt>
      <trkpt lat="44.49907" lon="6.21502">
        <ele>1666.2</ele>
        <time>2019-09-01T10:59:22Z</time>
      </trkpt>
      <trkpt lat="44.49886" lon="6.21527">
        <ele>1671.3</ele>
        <time>2019-09-01T10:59:37Z</time>
      </trkpt>
      <trkpt lat="44.49873" lon="6.21552">
        <ele>1674</ele>
        <time>2019-09-01T10:59:49Z</time>
      </trkpt>
      <trkpt lat="44.49862" lon="6.21571">
        <ele>1676.5</ele>
        <time>2019-09-01T10:59:59Z</time>
      </trkpt>
      <trkpt lat="44.49844" lon="6.21587">
        <ele>1679.6</ele>
        <time>2019-09-01T11:00:11Z</time>
      </trkpt>
      <trkpt lat="44.49827" lon="6.21581">
        <ele>1682</ele>
        <time>2019-09-01T11:00:21Z</time>
      </trkpt>
      <trkpt lat="44.4981" lon="6.2157">
        <ele>1684.8</ele>
        <time>2019-09-01T11:00:32Z</time>
      </trkpt>
      <trkpt lat="44.49789" lon="6.2156">
        <ele>1687.6</ele>
        <time>2019-09-01T11:00:44Z</time>
      </trkpt>
      <trkpt lat="44.49766" lon="6.21553">
        <ele>1690.8</ele>
        <time>2019-09-01T11:00:57Z</time>
      </trkpt>
      <trkpt lat="44.49745" lon="6.2155">
        <ele>1693.5</ele>
        <time>2019-09-01T11:01:09Z</time>
      </trkpt>
      <trkpt lat="44.49721" lon="6.21551">
        <ele>1696.2</ele>
        <time>2019-09-01T11:01:22Z</time>
      </trkpt>
      <trkpt lat="44.49701" lon="6.21561">
        <ele>1699.3</ele>
        <time>2019-09-01T11:01:34Z</time>
      </trkpt>
      <trkpt lat="44.497" lon="6.21563">
        <ele>1699.8</ele>
        <time>2019-09-01T11:01:35Z</time>
      </trkpt>
      <trkpt lat="44.49682" lon="6.21592">
        <ele>1705.3</ele>
        <time>2019-09-01T11:01:49Z</time>
      </trkpt>
      <trkpt lat="44.49656" lon="6.21613">
        <ele>1709.1</ele>
        <time>2019-09-01T11:02:04Z</time>
      </trkpt>
      <trkpt lat="44.49636" lon="6.2163">
        <ele>1711.6</ele>
        <time>2019-09-01T11:02:17Z</time>
      </trkpt>
      <trkpt lat="44.49614" lon="6.21647">
        <ele>1713.1</ele>
        <time>2019-09-01T11:02:30Z</time>
      </trkpt>
      <trkpt lat="44.49597" lon="6.21658">
        <ele>1714.3</ele>
        <time>2019-09-01T11:02:41Z</time>
      </trkpt>
      <trkpt lat="44.49595" lon="6.2166">
        <ele>1714.5</ele>
        <time>2019-09-01T11:02:42Z</time>
      </trkpt>
      <trkpt lat="44.49594" lon="6.21662">
        <ele>1714.7</ele>
        <time>2019-09-01T11:02:43Z</time>
      </trkpt>
      <trkpt lat="44.49592" lon="6.21664">
        <ele>1715</ele>
        <time>2019-09-01T11:02:44Z</time>
      </trkpt>
      <trkpt lat="44.49591" lon="6.21666">
        <ele>1715.2</ele>
        <time>2019-09-01T11:02:45Z</time>
      </trkpt>
      <trkpt lat="44.49588" lon="6.2167">
        <ele>1715.5</ele>
        <time>2019-09-01T11:02:47Z</time>
      </trkpt>
      <trkpt lat="44.49575" lon="6.21711">
        <ele>1719.4</ele>
        <time>2019-09-01T11:03:03Z</time>
      </trkpt>
      <trkpt lat="44.49567" lon="6.21737">
        <ele>1722.2</ele>
        <time>2019-09-01T11:03:14Z</time>
      </trkpt>
      <trkpt lat="44.49555" lon="6.21763">
        <ele>1725.4</ele>
        <time>2019-09-01T11:03:25Z</time>
      </trkpt>
      <trkpt lat="44.49554" lon="6.21774">
        <ele>1726.6</ele>
        <time>2019-09-01T11:03:29Z</time>
      </trkpt>
      <trkpt lat="44.49554" lon="6.21806">
        <ele>1730</ele>
        <time>2019-09-01T11:03:41Z</time>
      </trkpt>
      <trkpt lat="44.49559" lon="6.21839">
        <ele>1733.4</ele>
        <time>2019-09-01T11:03:53Z</time>
      </trkpt>
      <trkpt lat="44.49559" lon="6.21842">
        <ele>1733.2</ele>
        <time>2019-09-01T11:03:54Z</time>
      </trkpt>
      <trkpt lat="44.49571" lon="6.21897">
        <ele>1731.2</ele>
        <time>2019-09-01T11:04:13Z</time>
      </trkpt>
      <trkpt lat="44.49578" lon="6.21958">
        <ele>1732.4</ele>
        <time>2019-09-01T11:04:29Z</time>
      </trkpt>
      <trkpt lat="44.49595" lon="6.22029">
        <ele>1728.3</ele>
        <time>2019-09-01T11:04:43Z</time>
      </trkpt>
      <trkpt lat="44.49604" lon="6.221">
        <ele>1725.8</ele>
        <time>2019-09-01T11:04:57Z</time>
      </trkpt>
      <trkpt lat="44.49609" lon="6.22147">
        <ele>1723</ele>
        <time>2019-09-01T11:05:09Z</time>
      </trkpt>
      <trkpt lat="44.49609" lon="6.22149">
        <ele>1722.9</ele>
        <time>2019-09-01T11:05:14Z</time>
      </trkpt>
      <trkpt lat="44.49611" lon="6.22159">
        <ele>1722.1</ele>
        <time>2019-09-01T11:05:23Z</time>
      </trkpt>
      <trkpt lat="44.49614" lon="6.22171">
        <ele>1719.5</ele>
        <time>2019-09-01T11:05:33Z</time>
      </trkpt>
      <trkpt lat="44.49607" lon="6.22135">
        <ele>1723.8</ele>
        <time>2019-09-01T11:12:18Z</time>
      </trkpt>
      <trkpt lat="44.49604" lon="6.22072">
        <ele>1726.1</ele>
        <time>2019-09-01T11:12:33Z</time>
      </trkpt>
      <trkpt lat="44.49588" lon="6.22001">
        <ele>1729.4</ele>
        <time>2019-09-01T11:12:53Z</time>
      </trkpt>
      <trkpt lat="44.49578" lon="6.21944">
        <ele>1733</ele>
        <time>2019-09-01T11:13:09Z</time>
      </trkpt>
      <trkpt lat="44.49574" lon="6.21914">
        <ele>1730.7</ele>
        <time>2019-09-01T11:13:23Z</time>
      </trkpt>
      <trkpt lat="44.49571" lon="6.21905">
        <ele>1730.7</ele>
        <time>2019-09-01T11:13:49Z</time>
      </trkpt>
      <trkpt lat="44.49561" lon="6.21848">
        <ele>1732.9</ele>
        <time>2019-09-01T11:14:04Z</time>
      </trkpt>
      <trkpt lat="44.49554" lon="6.2179">
        <ele>1728.3</ele>
        <time>2019-09-01T11:14:17Z</time>
      </trkpt>
      <trkpt lat="44.49554" lon="6.21783">
        <ele>1727.5</ele>
        <time>2019-09-01T11:14:18Z</time>
      </trkpt>
      <trkpt lat="44.49554" lon="6.21776">
        <ele>1726.8</ele>
        <time>2019-09-01T11:14:19Z</time>
      </trkpt>
      <trkpt lat="44.49556" lon="6.2177">
        <ele>1726.1</ele>
        <time>2019-09-01T11:14:20Z</time>
      </trkpt>
      <trkpt lat="44.49563" lon="6.21744">
        <ele>1723.1</ele>
        <time>2019-09-01T11:14:24Z</time>
      </trkpt>
      <trkpt lat="44.49578" lon="6.21708">
        <ele>1719</ele>
        <time>2019-09-01T11:14:30Z</time>
      </trkpt>
      <trkpt lat="44.49582" lon="6.21694">
        <ele>1717.9</ele>
        <time>2019-09-01T11:14:32Z</time>
      </trkpt>
      <trkpt lat="44.49588" lon="6.21674">
        <ele>1715.9</ele>
        <time>2019-09-01T11:14:35Z</time>
      </trkpt>
      <trkpt lat="44.4959" lon="6.21669">
        <ele>1715.4</ele>
        <time>2019-09-01T11:14:36Z</time>
      </trkpt>
      <trkpt lat="44.49593" lon="6.21664">
        <ele>1715</ele>
        <time>2019-09-01T11:14:37Z</time>
      </trkpt>
      <trkpt lat="44.49597" lon="6.21661">
        <ele>1714.6</ele>
        <time>2019-09-01T11:14:38Z</time>
      </trkpt>
      <trkpt lat="44.49601" lon="6.21658">
        <ele>1714.3</ele>
        <time>2019-09-01T11:14:39Z</time>
      </trkpt>
      <trkpt lat="44.49605" lon="6.21655">
        <ele>1714</ele>
        <time>2019-09-01T11:14:40Z</time>
      </trkpt>
      <trkpt lat="44.49608" lon="6.21652">
        <ele>1713.8</ele>
        <time>2019-09-01T11:14:41Z</time>
      </trkpt>
      <trkpt lat="44.4964" lon="6.21629">
        <ele>1711.5</ele>
        <time>2019-09-01T11:14:49Z</time>
      </trkpt>
      <trkpt lat="44.49682" lon="6.21594">
        <ele>1705.5</ele>
        <time>2019-09-01T11:14:58Z</time>
      </trkpt>
      <trkpt lat="44.49686" lon="6.21589">
        <ele>1704.8</ele>
        <time>2019-09-01T11:14:59Z</time>
      </trkpt>
      <trkpt lat="44.49694" lon="6.21578">
        <ele>1703</ele>
        <time>2019-09-01T11:15:01Z</time>
      </trkpt>
      <trkpt lat="44.49709" lon="6.21556">
        <ele>1698.1</ele>
        <time>2019-09-01T11:15:06Z</time>
      </trkpt>
      <trkpt lat="44.49731" lon="6.21553">
        <ele>1695.6</ele>
        <time>2019-09-01T11:15:11Z</time>
      </trkpt>
      <trkpt lat="44.49755" lon="6.21553">
        <ele>1692.7</ele>
        <time>2019-09-01T11:15:15Z</time>
      </trkpt>
      <trkpt lat="44.49786" lon="6.2156">
        <ele>1688.1</ele>
        <time>2019-09-01T11:15:20Z</time>
      </trkpt>
      <trkpt lat="44.49806" lon="6.21569">
        <ele>1685.4</ele>
        <time>2019-09-01T11:15:24Z</time>
      </trkpt>
      <trkpt lat="44.49825" lon="6.21579">
        <ele>1682.4</ele>
        <time>2019-09-01T11:15:28Z</time>
      </trkpt>
      <trkpt lat="44.49838" lon="6.21586">
        <ele>1680.5</ele>
        <time>2019-09-01T11:15:31Z</time>
      </trkpt>
      <trkpt lat="44.49842" lon="6.21587">
        <ele>1679.8</ele>
        <time>2019-09-01T11:15:32Z</time>
      </trkpt>
      <trkpt lat="44.49847" lon="6.21585">
        <ele>1679.1</ele>
        <time>2019-09-01T11:15:33Z</time>
      </trkpt>
      <trkpt lat="44.49852" lon="6.21582">
        <ele>1678.2</ele>
        <time>2019-09-01T11:15:34Z</time>
      </trkpt>
      <trkpt lat="44.49857" lon="6.21577">
        <ele>1677.3</ele>
        <time>2019-09-01T11:15:35Z</time>
      </trkpt>
      <trkpt lat="44.49862" lon="6.21572">
        <ele>1676.5</ele>
        <time>2019-09-01T11:15:36Z</time>
      </trkpt>
      <trkpt lat="44.49866" lon="6.21566">
        <ele>1675.7</ele>
        <time>2019-09-01T11:15:37Z</time>
      </trkpt>
      <trkpt lat="44.49885" lon="6.21532">
        <ele>1671.6</ele>
        <time>2019-09-01T11:15:42Z</time>
      </trkpt>
      <trkpt lat="44.49891" lon="6.2152">
        <ele>1669.8</ele>
        <time>2019-09-01T11:15:44Z</time>
      </trkpt>
      <trkpt lat="44.49895" lon="6.21515">
        <ele>1668.9</ele>
        <time>2019-09-01T11:15:45Z</time>
      </trkpt>
      <trkpt lat="44.49898" lon="6.21511">
        <ele>1668</ele>
        <time>2019-09-01T11:15:46Z</time>
      </trkpt>
      <trkpt lat="44.49902" lon="6.21507">
        <ele>1667.2</ele>
        <time>2019-09-01T11:15:47Z</time>
      </trkpt>
      <trkpt lat="44.49906" lon="6.21504">
        <ele>1666.5</ele>
        <time>2019-09-01T11:15:48Z</time>
      </trkpt>
      <trkpt lat="44.49911" lon="6.21502">
        <ele>1665.8</ele>
        <time>2019-09-01T11:15:49Z</time>
      </trkpt>
      <trkpt lat="44.49917" lon="6.21501">
        <ele>1665.1</ele>
        <time>2019-09-01T11:15:50Z</time>
      </trkpt>
      <trkpt lat="44.49922" lon="6.21501">
        <ele>1664.3</ele>
        <time>2019-09-01T11:15:51Z</time>
      </trkpt>
      <trkpt lat="44.49927" lon="6.21501">
        <ele>1663.5</ele>
        <time>2019-09-01T11:15:52Z</time>
      </trkpt>
      <trkpt lat="44.49933" lon="6.21502">
        <ele>1662.8</ele>
        <time>2019-09-01T11:15:53Z</time>
      </trkpt>
      <trkpt lat="44.49939" lon="6.21504">
        <ele>1662.1</ele>
        <time>2019-09-01T11:15:54Z</time>
      </trkpt>
      <trkpt lat="44.49944" lon="6.21507">
        <ele>1661.6</ele>
        <time>2019-09-01T11:15:55Z</time>
      </trkpt>
      <trkpt lat="44.4995" lon="6.21511">
        <ele>1661.1</ele>
        <time>2019-09-01T11:15:56Z</time>
      </trkpt>
      <trkpt lat="44.49955" lon="6.21514">
        <ele>1660.7</ele>
        <time>2019-09-01T11:15:57Z</time>
      </trkpt>
      <trkpt lat="44.49993" lon="6.21534">
        <ele>1657.4</ele>
        <time>2019-09-01T11:16:03Z</time>
      </trkpt>
      <trkpt lat="44.50021" lon="6.21547">
        <ele>1653.7</ele>
        <time>2019-09-01T11:16:07Z</time>
      </trkpt>
      <trkpt lat="44.50036" lon="6.21556">
        <ele>1651.5</ele>
        <time>2019-09-01T11:16:10Z</time>
      </trkpt>
      <trkpt lat="44.50055" lon="6.21565">
        <ele>1648.7</ele>
        <time>2019-09-01T11:16:15Z</time>
      </trkpt>
      <trkpt lat="44.50063" lon="6.21568">
        <ele>1647.5</ele>
        <time>2019-09-01T11:16:17Z</time>
      </trkpt>
      <trkpt lat="44.50068" lon="6.21569">
        <ele>1646.8</ele>
        <time>2019-09-01T11:16:18Z</time>
      </trkpt>
      <trkpt lat="44.50072" lon="6.2157">
        <ele>1646</ele>
        <time>2019-09-01T11:16:19Z</time>
      </trkpt>
      <trkpt lat="44.50077" lon="6.21569">
        <ele>1645.1</ele>
        <time>2019-09-01T11:16:20Z</time>
      </trkpt>
      <trkpt lat="44.50082" lon="6.21567">
        <ele>1644.1</ele>
        <time>2019-09-01T11:16:21Z</time>
      </trkpt>
      <trkpt lat="44.50087" lon="6.21564">
        <ele>1643</ele>
        <time>2019-09-01T11:16:22Z</time>
      </trkpt>
      <trkpt lat="44.50091" lon="6.2156">
        <ele>1641.9</ele>
        <time>2019-09-01T11:16:23Z</time>
      </trkpt>
      <trkpt lat="44.50095" lon="6.21554">
        <ele>1640.9</ele>
        <time>2019-09-01T11:16:24Z</time>
      </trkpt>
      <trkpt lat="44.50098" lon="6.21548">
        <ele>1640.2</ele>
        <time>2019-09-01T11:16:25Z</time>
      </trkpt>
      <trkpt lat="44.50101" lon="6.21541">
        <ele>1639.6</ele>
        <time>2019-09-01T11:16:26Z</time>
      </trkpt>
      <trkpt lat="44.50103" lon="6.21533">
        <ele>1639.2</ele>
        <time>2019-09-01T11:16:27Z</time>
      </trkpt>
      <trkpt lat="44.50105" lon="6.21525">
        <ele>1638.7</ele>
        <time>2019-09-01T11:16:28Z</time>
      </trkpt>
      <trkpt lat="44.50106" lon="6.21516">
        <ele>1638.2</ele>
        <time>2019-09-01T11:16:29Z</time>
      </trkpt>
      <trkpt lat="44.50107" lon="6.21507">
        <ele>1637.8</ele>
        <time>2019-09-01T11:16:30Z</time>
      </trkpt>
      <trkpt lat="44.50107" lon="6.21499">
        <ele>1637.4</ele>
        <time>2019-09-01T11:16:31Z</time>
      </trkpt>
      <trkpt lat="44.50107" lon="6.21481">
        <ele>1636.1</ele>
        <time>2019-09-01T11:16:33Z</time>
      </trkpt>
      <trkpt lat="44.50107" lon="6.21473">
        <ele>1635.5</ele>
        <time>2019-09-01T11:16:34Z</time>
      </trkpt>
      <trkpt lat="44.50108" lon="6.21447">
        <ele>1633.5</ele>
        <time>2019-09-01T11:16:37Z</time>
      </trkpt>
      <trkpt lat="44.5011" lon="6.2139">
        <ele>1630.1</ele>
        <time>2019-09-01T11:16:44Z</time>
      </trkpt>
      <trkpt lat="44.5011" lon="6.21376">
        <ele>1629.1</ele>
        <time>2019-09-01T11:16:46Z</time>
      </trkpt>
      <trkpt lat="44.50109" lon="6.21369">
        <ele>1628.6</ele>
        <time>2019-09-01T11:16:47Z</time>
      </trkpt>
      <trkpt lat="44.50107" lon="6.21362">
        <ele>1628.1</ele>
        <time>2019-09-01T11:16:48Z</time>
      </trkpt>
      <trkpt lat="44.50105" lon="6.21355">
        <ele>1627.3</ele>
        <time>2019-09-01T11:16:49Z</time>
      </trkpt>
      <trkpt lat="44.50103" lon="6.21347">
        <ele>1626.5</ele>
        <time>2019-09-01T11:16:50Z</time>
      </trkpt>
      <trkpt lat="44.50092" lon="6.21318">
        <ele>1623.5</ele>
        <time>2019-09-01T11:16:54Z</time>
      </trkpt>
      <trkpt lat="44.50074" lon="6.21286">
        <ele>1620.6</ele>
        <time>2019-09-01T11:16:59Z</time>
      </trkpt>
      <trkpt lat="44.50067" lon="6.21275">
        <ele>1619.8</ele>
        <time>2019-09-01T11:17:01Z</time>
      </trkpt>
      <trkpt lat="44.50064" lon="6.21269">
        <ele>1619.1</ele>
        <time>2019-09-01T11:17:02Z</time>
      </trkpt>
      <trkpt lat="44.50061" lon="6.21262">
        <ele>1618.3</ele>
        <time>2019-09-01T11:17:03Z</time>
      </trkpt>
      <trkpt lat="44.50043" lon="6.2121">
        <ele>1611.4</ele>
        <time>2019-09-01T11:17:09Z</time>
      </trkpt>
      <trkpt lat="44.5004" lon="6.21201">
        <ele>1610.3</ele>
        <time>2019-09-01T11:17:10Z</time>
      </trkpt>
      <trkpt lat="44.50033" lon="6.21171">
        <ele>1606.7</ele>
        <time>2019-09-01T11:17:13Z</time>
      </trkpt>
      <trkpt lat="44.50031" lon="6.21161">
        <ele>1605.7</ele>
        <time>2019-09-01T11:17:14Z</time>
      </trkpt>
      <trkpt lat="44.50029" lon="6.21142">
        <ele>1603.9</ele>
        <time>2019-09-01T11:17:16Z</time>
      </trkpt>
      <trkpt lat="44.50026" lon="6.21107">
        <ele>1601.7</ele>
        <time>2019-09-01T11:17:20Z</time>
      </trkpt>
      <trkpt lat="44.50023" lon="6.21082">
        <ele>1598.8</ele>
        <time>2019-09-01T11:17:24Z</time>
      </trkpt>
      <trkpt lat="44.50017" lon="6.21066">
        <ele>1597.4</ele>
        <time>2019-09-01T11:17:27Z</time>
      </trkpt>
      <trkpt lat="44.50008" lon="6.21048">
        <ele>1596.5</ele>
        <time>2019-09-01T11:17:30Z</time>
      </trkpt>
      <trkpt lat="44.49984" lon="6.21016">
        <ele>1591.9</ele>
        <time>2019-09-01T11:17:38Z</time>
      </trkpt>
      <trkpt lat="44.4997" lon="6.21">
        <ele>1588.3</ele>
        <time>2019-09-01T11:17:43Z</time>
      </trkpt>
      <trkpt lat="44.49962" lon="6.20975">
        <ele>1584</ele>
        <time>2019-09-01T11:17:48Z</time>
      </trkpt>
      <trkpt lat="44.49956" lon="6.20931">
        <ele>1581.5</ele>
        <time>2019-09-01T11:17:56Z</time>
      </trkpt>
      <trkpt lat="44.49952" lon="6.20901">
        <ele>1578.6</ele>
        <time>2019-09-01T11:18:01Z</time>
      </trkpt>
      <trkpt lat="44.49951" lon="6.20875">
        <ele>1576.9</ele>
        <time>2019-09-01T11:18:05Z</time>
      </trkpt>
      <trkpt lat="44.49949" lon="6.20844">
        <ele>1574.5</ele>
        <time>2019-09-01T11:18:10Z</time>
      </trkpt>
      <trkpt lat="44.49947" lon="6.2082">
        <ele>1571.8</ele>
        <time>2019-09-01T11:18:14Z</time>
      </trkpt>
      <trkpt lat="44.4994" lon="6.20779">
        <ele>1567.4</ele>
        <time>2019-09-01T11:18:21Z</time>
      </trkpt>
      <trkpt lat="44.49936" lon="6.20741">
        <ele>1562.9</ele>
        <time>2019-09-01T11:18:27Z</time>
      </trkpt>
      <trkpt lat="44.49936" lon="6.20701">
        <ele>1557.8</ele>
        <time>2019-09-01T11:18:32Z</time>
      </trkpt>
      <trkpt lat="44.49939" lon="6.20674">
        <ele>1554.4</ele>
        <time>2019-09-01T11:18:36Z</time>
      </trkpt>
      <trkpt lat="44.4994" lon="6.20654">
        <ele>1552.3</ele>
        <time>2019-09-01T11:18:39Z</time>
      </trkpt>
      <trkpt lat="44.49941" lon="6.20647">
        <ele>1551.5</ele>
        <time>2019-09-01T11:18:40Z</time>
      </trkpt>
      <trkpt lat="44.49942" lon="6.2064">
        <ele>1550.7</ele>
        <time>2019-09-01T11:18:41Z</time>
      </trkpt>
      <trkpt lat="44.49949" lon="6.20594">
        <ele>1546.6</ele>
        <time>2019-09-01T11:18:47Z</time>
      </trkpt>
      <trkpt lat="44.49955" lon="6.20564">
        <ele>1544.8</ele>
        <time>2019-09-01T11:18:51Z</time>
      </trkpt>
      <trkpt lat="44.49963" lon="6.20536">
        <ele>1541.7</ele>
        <time>2019-09-01T11:18:55Z</time>
      </trkpt>
      <trkpt lat="44.49971" lon="6.20509">
        <ele>1538.9</ele>
        <time>2019-09-01T11:18:59Z</time>
      </trkpt>
      <trkpt lat="44.49979" lon="6.20486">
        <ele>1536.2</ele>
        <time>2019-09-01T11:19:03Z</time>
      </trkpt>
      <trkpt lat="44.49989" lon="6.20458">
        <ele>1531.9</ele>
        <time>2019-09-01T11:19:10Z</time>
      </trkpt>
      <trkpt lat="44.50004" lon="6.20405">
        <ele>1524.6</ele>
        <time>2019-09-01T11:19:19Z</time>
      </trkpt>
      <trkpt lat="44.50017" lon="6.20361">
        <ele>1518</ele>
        <time>2019-09-01T11:19:25Z</time>
      </trkpt>
      <trkpt lat="44.50026" lon="6.20335">
        <ele>1514.9</ele>
        <time>2019-09-01T11:19:29Z</time>
      </trkpt>
      <trkpt lat="44.50033" lon="6.20317">
        <ele>1512.9</ele>
        <time>2019-09-01T11:19:32Z</time>
      </trkpt>
      <trkpt lat="44.50041" lon="6.20299">
        <ele>1510.3</ele>
        <time>2019-09-01T11:19:35Z</time>
      </trkpt>
      <trkpt lat="44.50064" lon="6.2026">
        <ele>1502.8</ele>
        <time>2019-09-01T11:19:41Z</time>
      </trkpt>
      <trkpt lat="44.50081" lon="6.2024">
        <ele>1499</ele>
        <time>2019-09-01T11:19:45Z</time>
      </trkpt>
      <trkpt lat="44.50094" lon="6.20228">
        <ele>1495.5</ele>
        <time>2019-09-01T11:19:48Z</time>
      </trkpt>
      <trkpt lat="44.50099" lon="6.20225">
        <ele>1494.9</ele>
        <time>2019-09-01T11:19:49Z</time>
      </trkpt>
      <trkpt lat="44.50104" lon="6.20224">
        <ele>1494.9</ele>
        <time>2019-09-01T11:19:50Z</time>
      </trkpt>
      <trkpt lat="44.50124" lon="6.20223">
        <ele>1493.4</ele>
        <time>2019-09-01T11:19:54Z</time>
      </trkpt>
      <trkpt lat="44.50132" lon="6.20224">
        <ele>1492.7</ele>
        <time>2019-09-01T11:19:56Z</time>
      </trkpt>
      <trkpt lat="44.50136" lon="6.20226">
        <ele>1492.6</ele>
        <time>2019-09-01T11:19:57Z</time>
      </trkpt>
      <trkpt lat="44.5014" lon="6.20228">
        <ele>1492.3</ele>
        <time>2019-09-01T11:19:58Z</time>
      </trkpt>
      <trkpt lat="44.50148" lon="6.20233">
        <ele>1491.2</ele>
        <time>2019-09-01T11:20:00Z</time>
      </trkpt>
      <trkpt lat="44.50151" lon="6.20237">
        <ele>1491.1</ele>
        <time>2019-09-01T11:20:01Z</time>
      </trkpt>
      <trkpt lat="44.50154" lon="6.20241">
        <ele>1491.1</ele>
        <time>2019-09-01T11:20:02Z</time>
      </trkpt>
      <trkpt lat="44.50171" lon="6.20257">
        <ele>1488.2</ele>
        <time>2019-09-01T11:20:09Z</time>
      </trkpt>
      <trkpt lat="44.50173" lon="6.20256">
        <ele>1486.7</ele>
        <time>2019-09-01T11:20:10Z</time>
      </trkpt>
      <trkpt lat="44.50174" lon="6.20253">
        <ele>1485.3</ele>
        <time>2019-09-01T11:20:11Z</time>
      </trkpt>
      <trkpt lat="44.50175" lon="6.2025">
        <ele>1484.2</ele>
        <time>2019-09-01T11:20:12Z</time>
      </trkpt>
      <trkpt lat="44.50175" lon="6.20247">
        <ele>1483.4</ele>
        <time>2019-09-01T11:20:13Z</time>
      </trkpt>
      <trkpt lat="44.50173" lon="6.20243">
        <ele>1482.9</ele>
        <time>2019-09-01T11:20:14Z</time>
      </trkpt>
      <trkpt lat="44.50172" lon="6.20239">
        <ele>1482.7</ele>
        <time>2019-09-01T11:20:15Z</time>
      </trkpt>
      <trkpt lat="44.5017" lon="6.20235">
        <ele>1482.8</ele>
        <time>2019-09-01T11:20:16Z</time>
      </trkpt>
      <trkpt lat="44.50153" lon="6.20202">
        <ele>1478</ele>
        <time>2019-09-01T11:20:23Z</time>
      </trkpt>
      <trkpt lat="44.50149" lon="6.20198">
        <ele>1477.6</ele>
        <time>2019-09-01T11:20:24Z</time>
      </trkpt>
      <trkpt lat="44.50139" lon="6.20188">
        <ele>1477.5</ele>
        <time>2019-09-01T11:20:26Z</time>
      </trkpt>
      <trkpt lat="44.50133" lon="6.20184">
        <ele>1476.8</ele>
        <time>2019-09-01T11:20:27Z</time>
      </trkpt>
      <trkpt lat="44.50128" lon="6.20181">
        <ele>1476.1</ele>
        <time>2019-09-01T11:20:28Z</time>
      </trkpt>
      <trkpt lat="44.50116" lon="6.20173">
        <ele>1474.6</ele>
        <time>2019-09-01T11:20:31Z</time>
      </trkpt>
      <trkpt lat="44.50111" lon="6.2017">
        <ele>1474.2</ele>
        <time>2019-09-01T11:20:32Z</time>
      </trkpt>
      <trkpt lat="44.50106" lon="6.20168">
        <ele>1473.7</ele>
        <time>2019-09-01T11:20:33Z</time>
      </trkpt>
      <trkpt lat="44.50101" lon="6.20167">
        <ele>1473.4</ele>
        <time>2019-09-01T11:20:34Z</time>
      </trkpt>
      <trkpt lat="44.50096" lon="6.20167">
        <ele>1473.8</ele>
        <time>2019-09-01T11:20:35Z</time>
      </trkpt>
      <trkpt lat="44.50091" lon="6.20168">
        <ele>1474</ele>
        <time>2019-09-01T11:20:36Z</time>
      </trkpt>
      <trkpt lat="44.50081" lon="6.20168">
        <ele>1474.1</ele>
        <time>2019-09-01T11:20:38Z</time>
      </trkpt>
      <trkpt lat="44.50076" lon="6.20168">
        <ele>1473.8</ele>
        <time>2019-09-01T11:20:39Z</time>
      </trkpt>
      <trkpt lat="44.50071" lon="6.20169">
        <ele>1473.7</ele>
        <time>2019-09-01T11:20:40Z</time>
      </trkpt>
      <trkpt lat="44.50067" lon="6.2017">
        <ele>1473.7</ele>
        <time>2019-09-01T11:20:41Z</time>
      </trkpt>
      <trkpt lat="44.50063" lon="6.20172">
        <ele>1473.8</ele>
        <time>2019-09-01T11:20:42Z</time>
      </trkpt>
      <trkpt lat="44.50055" lon="6.20174">
        <ele>1473.6</ele>
        <time>2019-09-01T11:20:44Z</time>
      </trkpt>
      <trkpt lat="44.50051" lon="6.20174">
        <ele>1472.7</ele>
        <time>2019-09-01T11:20:45Z</time>
      </trkpt>
      <trkpt lat="44.50045" lon="6.20172">
        <ele>1471.4</ele>
        <time>2019-09-01T11:20:46Z</time>
      </trkpt>
      <trkpt lat="44.5004" lon="6.2017">
        <ele>1469.9</ele>
        <time>2019-09-01T11:20:47Z</time>
      </trkpt>
      <trkpt lat="44.50035" lon="6.20166">
        <ele>1468.3</ele>
        <time>2019-09-01T11:20:48Z</time>
      </trkpt>
      <trkpt lat="44.5003" lon="6.20162">
        <ele>1466.6</ele>
        <time>2019-09-01T11:20:49Z</time>
      </trkpt>
      <trkpt lat="44.50025" lon="6.20157">
        <ele>1464.8</ele>
        <time>2019-09-01T11:20:50Z</time>
      </trkpt>
      <trkpt lat="44.50021" lon="6.20152">
        <ele>1463.1</ele>
        <time>2019-09-01T11:20:51Z</time>
      </trkpt>
      <trkpt lat="44.5" lon="6.20123">
        <ele>1456.9</ele>
        <time>2019-09-01T11:20:57Z</time>
      </trkpt>
      <trkpt lat="44.5" lon="6.20119">
        <ele>1456.5</ele>
        <time>2019-09-01T11:20:58Z</time>
      </trkpt>
      <trkpt lat="44.5" lon="6.20113">
        <ele>1456.1</ele>
        <time>2019-09-01T11:20:59Z</time>
      </trkpt>
      <trkpt lat="44.5" lon="6.20106">
        <ele>1455.8</ele>
        <time>2019-09-01T11:21:00Z</time>
      </trkpt>
      <trkpt lat="44.50001" lon="6.201">
        <ele>1455.6</ele>
        <time>2019-09-01T11:21:01Z</time>
      </trkpt>
      <trkpt lat="44.50001" lon="6.20094">
        <ele>1455.4</ele>
        <time>2019-09-01T11:21:02Z</time>
      </trkpt>
      <trkpt lat="44.50001" lon="6.20088">
        <ele>1455.1</ele>
        <time>2019-09-01T11:21:03Z</time>
      </trkpt>
      <trkpt lat="44.5" lon="6.20082">
        <ele>1455</ele>
        <time>2019-09-01T11:21:04Z</time>
      </trkpt>
      <trkpt lat="44.49998" lon="6.20076">
        <ele>1454.9</ele>
        <time>2019-09-01T11:21:05Z</time>
      </trkpt>
      <trkpt lat="44.49995" lon="6.2007">
        <ele>1454.8</ele>
        <time>2019-09-01T11:21:06Z</time>
      </trkpt>
      <trkpt lat="44.49992" lon="6.20064">
        <ele>1454.7</ele>
        <time>2019-09-01T11:21:07Z</time>
      </trkpt>
      <trkpt lat="44.49988" lon="6.20059">
        <ele>1454.6</ele>
        <time>2019-09-01T11:21:08Z</time>
      </trkpt>
      <trkpt lat="44.49985" lon="6.20055">
        <ele>1454.4</ele>
        <time>2019-09-01T11:21:09Z</time>
      </trkpt>
      <trkpt lat="44.49981" lon="6.20052">
        <ele>1454</ele>
        <time>2019-09-01T11:21:10Z</time>
      </trkpt>
      <trkpt lat="44.49977" lon="6.20049">
        <ele>1453.5</ele>
        <time>2019-09-01T11:21:11Z</time>
      </trkpt>
      <trkpt lat="44.49972" lon="6.20046">
        <ele>1453</ele>
        <time>2019-09-01T11:21:12Z</time>
      </trkpt>
      <trkpt lat="44.49967" lon="6.20042">
        <ele>1452.2</ele>
        <time>2019-09-01T11:21:13Z</time>
      </trkpt>
      <trkpt lat="44.49933" lon="6.2002">
        <ele>1446.5</ele>
        <time>2019-09-01T11:21:19Z</time>
      </trkpt>
      <trkpt lat="44.49927" lon="6.20017">
        <ele>1445.5</ele>
        <time>2019-09-01T11:21:20Z</time>
      </trkpt>
      <trkpt lat="44.49921" lon="6.20014">
        <ele>1444.5</ele>
        <time>2019-09-01T11:21:21Z</time>
      </trkpt>
      <trkpt lat="44.49914" lon="6.20012">
        <ele>1443.4</ele>
        <time>2019-09-01T11:21:22Z</time>
      </trkpt>
      <trkpt lat="44.49907" lon="6.2001">
        <ele>1442.4</ele>
        <time>2019-09-01T11:21:23Z</time>
      </trkpt>
      <trkpt lat="44.49886" lon="6.20006">
        <ele>1439.4</ele>
        <time>2019-09-01T11:21:27Z</time>
      </trkpt>
      <trkpt lat="44.4988" lon="6.20005">
        <ele>1438.5</ele>
        <time>2019-09-01T11:21:28Z</time>
      </trkpt>
      <trkpt lat="44.49863" lon="6.20003">
        <ele>1435.6</ele>
        <time>2019-09-01T11:21:31Z</time>
      </trkpt>
      <trkpt lat="44.49825" lon="6.20002">
        <ele>1429.8</ele>
        <time>2019-09-01T11:21:37Z</time>
      </trkpt>
      <trkpt lat="44.49801" lon="6.2">
        <ele>1426.7</ele>
        <time>2019-09-01T11:21:41Z</time>
      </trkpt>
      <trkpt lat="44.49773" lon="6.19995">
        <ele>1423.8</ele>
        <time>2019-09-01T11:21:46Z</time>
      </trkpt>
      <trkpt lat="44.49745" lon="6.1999">
        <ele>1418.9</ele>
        <time>2019-09-01T11:21:51Z</time>
      </trkpt>
      <trkpt lat="44.49727" lon="6.19988">
        <ele>1415.9</ele>
        <time>2019-09-01T11:21:55Z</time>
      </trkpt>
      <trkpt lat="44.4971" lon="6.19989">
        <ele>1413.5</ele>
        <time>2019-09-01T11:22:00Z</time>
      </trkpt>
      <trkpt lat="44.49702" lon="6.1999">
        <ele>1412.3</ele>
        <time>2019-09-01T11:22:05Z</time>
      </trkpt>
      <trkpt lat="44.49701" lon="6.1999">
        <ele>1412.3</ele>
        <time>2019-09-01T11:22:09Z</time>
      </trkpt>
      <trkpt lat="44.49691" lon="6.19996">
        <ele>1411.6</ele>
        <time>2019-09-01T11:23:27Z</time>
      </trkpt>
      <trkpt lat="44.49671" lon="6.20003">
        <ele>1410.9</ele>
        <time>2019-09-01T11:23:35Z</time>
      </trkpt>
      <trkpt lat="44.49669" lon="6.20001">
        <ele>1411</ele>
        <time>2019-09-01T11:23:36Z</time>
      </trkpt>
      <trkpt lat="44.49668" lon="6.19997">
        <ele>1410.6</ele>
        <time>2019-09-01T11:23:37Z</time>
      </trkpt>
      <trkpt lat="44.49668" lon="6.19993">
        <ele>1410.1</ele>
        <time>2019-09-01T11:23:38Z</time>
      </trkpt>
      <trkpt lat="44.49668" lon="6.19989">
        <ele>1409.5</ele>
        <time>2019-09-01T11:23:39Z</time>
      </trkpt>
      <trkpt lat="44.4967" lon="6.19985">
        <ele>1409</ele>
        <time>2019-09-01T11:23:40Z</time>
      </trkpt>
      <trkpt lat="44.49672" lon="6.1998">
        <ele>1408.6</ele>
        <time>2019-09-01T11:23:41Z</time>
      </trkpt>
      <trkpt lat="44.49675" lon="6.19975">
        <ele>1408.3</ele>
        <time>2019-09-01T11:23:42Z</time>
      </trkpt>
      <trkpt lat="44.49679" lon="6.1997">
        <ele>1407.9</ele>
        <time>2019-09-01T11:23:43Z</time>
      </trkpt>
      <trkpt lat="44.4969" lon="6.19957">
        <ele>1407.1</ele>
        <time>2019-09-01T11:23:46Z</time>
      </trkpt>
      <trkpt lat="44.49714" lon="6.19934">
        <ele>1406.5</ele>
        <time>2019-09-01T11:23:52Z</time>
      </trkpt>
      <trkpt lat="44.49716" lon="6.19929">
        <ele>1406.2</ele>
        <time>2019-09-01T11:23:53Z</time>
      </trkpt>
      <trkpt lat="44.49718" lon="6.19924">
        <ele>1405.6</ele>
        <time>2019-09-01T11:23:54Z</time>
      </trkpt>
      <trkpt lat="44.49718" lon="6.19919">
        <ele>1404.9</ele>
        <time>2019-09-01T11:23:55Z</time>
      </trkpt>
      <trkpt lat="44.49717" lon="6.19913">
        <ele>1404.3</ele>
        <time>2019-09-01T11:23:56Z</time>
      </trkpt>
      <trkpt lat="44.49714" lon="6.19909">
        <ele>1403.9</ele>
        <time>2019-09-01T11:23:57Z</time>
      </trkpt>
      <trkpt lat="44.49709" lon="6.19905">
        <ele>1403.4</ele>
        <time>2019-09-01T11:23:58Z</time>
      </trkpt>
      <trkpt lat="44.49703" lon="6.19904">
        <ele>1402.8</ele>
        <time>2019-09-01T11:23:59Z</time>
      </trkpt>
      <trkpt lat="44.49697" lon="6.19903">
        <ele>1402.3</ele>
        <time>2019-09-01T11:24:00Z</time>
      </trkpt>
      <trkpt lat="44.49691" lon="6.19901">
        <ele>1401.8</ele>
        <time>2019-09-01T11:24:01Z</time>
      </trkpt>
      <trkpt lat="44.49686" lon="6.199">
        <ele>1401.4</ele>
        <time>2019-09-01T11:24:02Z</time>
      </trkpt>
      <trkpt lat="44.49669" lon="6.19898">
        <ele>1400.5</ele>
        <time>2019-09-01T11:24:05Z</time>
      </trkpt>
      <trkpt lat="44.49662" lon="6.19898">
        <ele>1400.2</ele>
        <time>2019-09-01T11:24:06Z</time>
      </trkpt>
      <trkpt lat="44.49642" lon="6.19906">
        <ele>1398.6</ele>
        <time>2019-09-01T11:24:09Z</time>
      </trkpt>
      <trkpt lat="44.49636" lon="6.1991">
        <ele>1398</ele>
        <time>2019-09-01T11:24:10Z</time>
      </trkpt>
      <trkpt lat="44.49619" lon="6.19923">
        <ele>1396.2</ele>
        <time>2019-09-01T11:24:13Z</time>
      </trkpt>
      <trkpt lat="44.49615" lon="6.19929">
        <ele>1395.4</ele>
        <time>2019-09-01T11:24:14Z</time>
      </trkpt>
      <trkpt lat="44.49591" lon="6.19966">
        <ele>1391.1</ele>
        <time>2019-09-01T11:24:20Z</time>
      </trkpt>
      <trkpt lat="44.4957" lon="6.20005">
        <ele>1386.8</ele>
        <time>2019-09-01T11:24:25Z</time>
      </trkpt>
      <trkpt lat="44.49556" lon="6.20031">
        <ele>1384.7</ele>
        <time>2019-09-01T11:24:29Z</time>
      </trkpt>
      <trkpt lat="44.49555" lon="6.20038">
        <ele>1384</ele>
        <time>2019-09-01T11:24:30Z</time>
      </trkpt>
      <trkpt lat="44.49553" lon="6.20044">
        <ele>1383.3</ele>
        <time>2019-09-01T11:24:31Z</time>
      </trkpt>
      <trkpt lat="44.49553" lon="6.20051">
        <ele>1382.6</ele>
        <time>2019-09-01T11:24:32Z</time>
      </trkpt>
      <trkpt lat="44.49552" lon="6.2006">
        <ele>1381.8</ele>
        <time>2019-09-01T11:24:33Z</time>
      </trkpt>
      <trkpt lat="44.49552" lon="6.20069">
        <ele>1381.1</ele>
        <time>2019-09-01T11:24:34Z</time>
      </trkpt>
      <trkpt lat="44.49553" lon="6.20078">
        <ele>1380.4</ele>
        <time>2019-09-01T11:24:35Z</time>
      </trkpt>
      <trkpt lat="44.49553" lon="6.20094">
        <ele>1378.9</ele>
        <time>2019-09-01T11:24:37Z</time>
      </trkpt>
      <trkpt lat="44.49554" lon="6.20126">
        <ele>1375.5</ele>
        <time>2019-09-01T11:24:43Z</time>
      </trkpt>
      <trkpt lat="44.49554" lon="6.2013">
        <ele>1375</ele>
        <time>2019-09-01T11:24:48Z</time>
      </trkpt>
      <trkpt lat="44.49554" lon="6.20129">
        <ele>1375</ele>
        <time>2019-09-01T11:24:49Z</time>
      </trkpt>
      <trkpt lat="44.49549" lon="6.20137">
        <ele>1374.2</ele>
        <time>2019-09-01T11:24:58Z</time>
      </trkpt>
      <trkpt lat="44.49516" lon="6.20177">
        <ele>1368.5</ele>
        <time>2019-09-01T11:25:07Z</time>
      </trkpt>
      <trkpt lat="44.49494" lon="6.2019">
        <ele>1366.2</ele>
        <time>2019-09-01T11:25:11Z</time>
      </trkpt>
      <trkpt lat="44.49478" lon="6.20193">
        <ele>1364.5</ele>
        <time>2019-09-01T11:25:15Z</time>
      </trkpt>
      <trkpt lat="44.49474" lon="6.20193">
        <ele>1364.4</ele>
        <time>2019-09-01T11:25:16Z</time>
      </trkpt>
      <trkpt lat="44.49461" lon="6.20198">
        <ele>1362.1</ele>
        <time>2019-09-01T11:25:21Z</time>
      </trkpt>
      <trkpt lat="44.49461" lon="6.20202">
        <ele>1361.7</ele>
        <time>2019-09-01T11:25:22Z</time>
      </trkpt>
      <trkpt lat="44.49461" lon="6.20207">
        <ele>1361.3</ele>
        <time>2019-09-01T11:25:23Z</time>
      </trkpt>
      <trkpt lat="44.49462" lon="6.20213">
        <ele>1361</ele>
        <time>2019-09-01T11:25:24Z</time>
      </trkpt>
      <trkpt lat="44.49464" lon="6.20221">
        <ele>1360.7</ele>
        <time>2019-09-01T11:25:25Z</time>
      </trkpt>
      <trkpt lat="44.49466" lon="6.20228">
        <ele>1360.8</ele>
        <time>2019-09-01T11:25:26Z</time>
      </trkpt>
      <trkpt lat="44.49466" lon="6.20236">
        <ele>1360.8</ele>
        <time>2019-09-01T11:25:27Z</time>
      </trkpt>
      <trkpt lat="44.49466" lon="6.20244">
        <ele>1360.7</ele>
        <time>2019-09-01T11:25:28Z</time>
      </trkpt>
      <trkpt lat="44.49465" lon="6.20252">
        <ele>1360.3</ele>
        <time>2019-09-01T11:25:29Z</time>
      </trkpt>
      <trkpt lat="44.49464" lon="6.20259">
        <ele>1359.9</ele>
        <time>2019-09-01T11:25:30Z</time>
      </trkpt>
      <trkpt lat="44.4946" lon="6.20286">
        <ele>1358.5</ele>
        <time>2019-09-01T11:25:34Z</time>
      </trkpt>
      <trkpt lat="44.49459" lon="6.20306">
        <ele>1357.6</ele>
        <time>2019-09-01T11:25:37Z</time>
      </trkpt>
      <trkpt lat="44.49467" lon="6.20381">
        <ele>1353.1</ele>
        <time>2019-09-01T11:25:47Z</time>
      </trkpt>
      <trkpt lat="44.49466" lon="6.20418">
        <ele>1350.2</ele>
        <time>2019-09-01T11:25:52Z</time>
      </trkpt>
      <trkpt lat="44.49465" lon="6.20423">
        <ele>1349.6</ele>
        <time>2019-09-01T11:25:53Z</time>
      </trkpt>
      <trkpt lat="44.49463" lon="6.20428">
        <ele>1348.9</ele>
        <time>2019-09-01T11:25:54Z</time>
      </trkpt>
      <trkpt lat="44.4946" lon="6.20433">
        <ele>1348.2</ele>
        <time>2019-09-01T11:25:55Z</time>
      </trkpt>
      <trkpt lat="44.49457" lon="6.20437">
        <ele>1347.6</ele>
        <time>2019-09-01T11:25:56Z</time>
      </trkpt>
      <trkpt lat="44.49452" lon="6.20438">
        <ele>1347</ele>
        <time>2019-09-01T11:25:57Z</time>
      </trkpt>
      <trkpt lat="44.49446" lon="6.20439">
        <ele>1346.5</ele>
        <time>2019-09-01T11:25:58Z</time>
      </trkpt>
      <trkpt lat="44.4944" lon="6.20438">
        <ele>1345.8</ele>
        <time>2019-09-01T11:25:59Z</time>
      </trkpt>
      <trkpt lat="44.49433" lon="6.20437">
        <ele>1344.9</ele>
        <time>2019-09-01T11:26:00Z</time>
      </trkpt>
      <trkpt lat="44.49405" lon="6.20435">
        <ele>1340.8</ele>
        <time>2019-09-01T11:26:06Z</time>
      </trkpt>
      <trkpt lat="44.49401" lon="6.20436">
        <ele>1340.1</ele>
        <time>2019-09-01T11:26:07Z</time>
      </trkpt>
      <trkpt lat="44.49396" lon="6.20438">
        <ele>1339.4</ele>
        <time>2019-09-01T11:26:08Z</time>
      </trkpt>
      <trkpt lat="44.49392" lon="6.20441">
        <ele>1338.6</ele>
        <time>2019-09-01T11:26:09Z</time>
      </trkpt>
      <trkpt lat="44.49389" lon="6.20446">
        <ele>1337.9</ele>
        <time>2019-09-01T11:26:10Z</time>
      </trkpt>
      <trkpt lat="44.49386" lon="6.20451">
        <ele>1336.9</ele>
        <time>2019-09-01T11:26:11Z</time>
      </trkpt>
      <trkpt lat="44.49384" lon="6.20457">
        <ele>1336</ele>
        <time>2019-09-01T11:26:12Z</time>
      </trkpt>
      <trkpt lat="44.49383" lon="6.20463">
        <ele>1335.2</ele>
        <time>2019-09-01T11:26:13Z</time>
      </trkpt>
      <trkpt lat="44.49382" lon="6.20469">
        <ele>1334.4</ele>
        <time>2019-09-01T11:26:14Z</time>
      </trkpt>
      <trkpt lat="44.49379" lon="6.20481">
        <ele>1332.9</ele>
        <time>2019-09-01T11:26:16Z</time>
      </trkpt>
      <trkpt lat="44.49377" lon="6.20487">
        <ele>1331.9</ele>
        <time>2019-09-01T11:26:17Z</time>
      </trkpt>
      <trkpt lat="44.49374" lon="6.20492">
        <ele>1330.7</ele>
        <time>2019-09-01T11:26:18Z</time>
      </trkpt>
      <trkpt lat="44.4937" lon="6.20496">
        <ele>1329.4</ele>
        <time>2019-09-01T11:26:19Z</time>
      </trkpt>
      <trkpt lat="44.49366" lon="6.205">
        <ele>1328.2</ele>
        <time>2019-09-01T11:26:20Z</time>
      </trkpt>
      <trkpt lat="44.49363" lon="6.20505">
        <ele>1327.3</ele>
        <time>2019-09-01T11:26:21Z</time>
      </trkpt>
      <trkpt lat="44.49361" lon="6.2051">
        <ele>1326.4</ele>
        <time>2019-09-01T11:26:22Z</time>
      </trkpt>
      <trkpt lat="44.49359" lon="6.20515">
        <ele>1325.5</ele>
        <time>2019-09-01T11:26:23Z</time>
      </trkpt>
      <trkpt lat="44.49358" lon="6.2052">
        <ele>1324.9</ele>
        <time>2019-09-01T11:26:24Z</time>
      </trkpt>
      <trkpt lat="44.49358" lon="6.20525">
        <ele>1324.5</ele>
        <time>2019-09-01T11:26:25Z</time>
      </trkpt>
      <trkpt lat="44.49357" lon="6.20531">
        <ele>1323.9</ele>
        <time>2019-09-01T11:26:26Z</time>
      </trkpt>
      <trkpt lat="44.49357" lon="6.20536">
        <ele>1323</ele>
        <time>2019-09-01T11:26:27Z</time>
      </trkpt>
      <trkpt lat="44.49353" lon="6.20553">
        <ele>1319.4</ele>
        <time>2019-09-01T11:26:31Z</time>
      </trkpt>
      <trkpt lat="44.49352" lon="6.20557">
        <ele>1318.2</ele>
        <time>2019-09-01T11:26:36Z</time>
      </trkpt>
      <trkpt lat="44.49352" lon="6.20557">
        <ele>1318.2</ele>
        <time>2019-09-01T11:26:38Z</time>
      </trkpt>
      <trkpt lat="44.49345" lon="6.20551">
        <ele>1315.5</ele>
        <time>2019-09-01T11:27:23Z</time>
      </trkpt>
      <trkpt lat="44.49343" lon="6.20547">
        <ele>1315.2</ele>
        <time>2019-09-01T11:27:24Z</time>
      </trkpt>
      <trkpt lat="44.49342" lon="6.20541">
        <ele>1315.3</ele>
        <time>2019-09-01T11:27:25Z</time>
      </trkpt>
      <trkpt lat="44.49341" lon="6.20533">
        <ele>1316</ele>
        <time>2019-09-01T11:27:26Z</time>
      </trkpt>
      <trkpt lat="44.49341" lon="6.20524">
        <ele>1316.8</ele>
        <time>2019-09-01T11:27:27Z</time>
      </trkpt>
      <trkpt lat="44.4934" lon="6.20515">
        <ele>1317.2</ele>
        <time>2019-09-01T11:27:28Z</time>
      </trkpt>
      <trkpt lat="44.49337" lon="6.20499">
        <ele>1317.4</ele>
        <time>2019-09-01T11:27:30Z</time>
      </trkpt>
      <trkpt lat="44.49334" lon="6.20493">
        <ele>1317.2</ele>
        <time>2019-09-01T11:27:31Z</time>
      </trkpt>
      <trkpt lat="44.49328" lon="6.20475">
        <ele>1316.1</ele>
        <time>2019-09-01T11:27:37Z</time>
      </trkpt>
      <trkpt lat="44.49327" lon="6.20474">
        <ele>1316</ele>
        <time>2019-09-01T11:27:38Z</time>
      </trkpt>
      <trkpt lat="44.49327" lon="6.20473">
        <ele>1315.7</ele>
        <time>2019-09-01T11:27:42Z</time>
      </trkpt>
      <trkpt lat="44.49322" lon="6.20467">
        <ele>1314.5</ele>
        <time>2019-09-01T11:27:54Z</time>
      </trkpt>
      <trkpt lat="44.4931" lon="6.20418">
        <ele>1315.4</ele>
        <time>2019-09-01T11:28:06Z</time>
      </trkpt>
      <trkpt lat="44.49309" lon="6.20411">
        <ele>1315.7</ele>
        <time>2019-09-01T11:28:07Z</time>
      </trkpt>
      <trkpt lat="44.49308" lon="6.20405">
        <ele>1315.9</ele>
        <time>2019-09-01T11:28:08Z</time>
      </trkpt>
      <trkpt lat="44.49306" lon="6.20399">
        <ele>1315.9</ele>
        <time>2019-09-01T11:28:09Z</time>
      </trkpt>
      <trkpt lat="44.49294" lon="6.20376">
        <ele>1314.1</ele>
        <time>2019-09-01T11:28:14Z</time>
      </trkpt>
      <trkpt lat="44.49276" lon="6.20357">
        <ele>1311.4</ele>
        <time>2019-09-01T11:28:18Z</time>
      </trkpt>
      <trkpt lat="44.49265" lon="6.20347">
        <ele>1310</ele>
        <time>2019-09-01T11:28:21Z</time>
      </trkpt>
      <trkpt lat="44.49247" lon="6.20335">
        <ele>1308</ele>
        <time>2019-09-01T11:28:26Z</time>
      </trkpt>
      <trkpt lat="44.4923" lon="6.20322">
        <ele>1306.6</ele>
        <time>2019-09-01T11:28:31Z</time>
      </trkpt>
      <trkpt lat="44.49204" lon="6.2031">
        <ele>1301.4</ele>
        <time>2019-09-01T11:28:43Z</time>
      </trkpt>
      <trkpt lat="44.49204" lon="6.2031">
        <ele>1301.5</ele>
        <time>2019-09-01T11:28:46Z</time>
      </trkpt>
      <trkpt lat="44.49201" lon="6.20297">
        <ele>1302</ele>
        <time>2019-09-01T11:30:17Z</time>
      </trkpt>
      <trkpt lat="44.49199" lon="6.20294">
        <ele>1301.7</ele>
        <time>2019-09-01T11:30:18Z</time>
      </trkpt>
      <trkpt lat="44.49197" lon="6.20289">
        <ele>1301.4</ele>
        <time>2019-09-01T11:30:19Z</time>
      </trkpt>
      <trkpt lat="44.49194" lon="6.20284">
        <ele>1301</ele>
        <time>2019-09-01T11:30:20Z</time>
      </trkpt>
      <trkpt lat="44.4919" lon="6.20279">
        <ele>1300.2</ele>
        <time>2019-09-01T11:30:21Z</time>
      </trkpt>
      <trkpt lat="44.49187" lon="6.20275">
        <ele>1299.1</ele>
        <time>2019-09-01T11:30:22Z</time>
      </trkpt>
      <trkpt lat="44.49159" lon="6.20243">
        <ele>1293.6</ele>
        <time>2019-09-01T11:30:31Z</time>
      </trkpt>
      <trkpt lat="44.49151" lon="6.20233">
        <ele>1291.9</ele>
        <time>2019-09-01T11:30:35Z</time>
      </trkpt>
      <trkpt lat="44.49131" lon="6.2022">
        <ele>1287</ele>
        <time>2019-09-01T11:30:44Z</time>
      </trkpt>
      <trkpt lat="44.49127" lon="6.2022">
        <ele>1285.5</ele>
        <time>2019-09-01T11:30:46Z</time>
      </trkpt>
      <trkpt lat="44.49122" lon="6.20224">
        <ele>1283.1</ele>
        <time>2019-09-01T11:30:54Z</time>
      </trkpt>
      <trkpt lat="44.49133" lon="6.20191">
        <ele>1289.4</ele>
        <time>2019-09-01T11:37:34Z</time>
      </trkpt>
      <trkpt lat="44.49109" lon="6.20131">
        <ele>1284.8</ele>
        <time>2019-09-01T11:37:42Z</time>
      </trkpt>
      <trkpt lat="44.49087" lon="6.20081">
        <ele>1281.9</ele>
        <time>2019-09-01T11:37:47Z</time>
      </trkpt>
      <trkpt lat="44.49065" lon="6.20041">
        <ele>1280.2</ele>
        <time>2019-09-01T11:37:51Z</time>
      </trkpt>
      <trkpt lat="44.49041" lon="6.20003">
        <ele>1278.5</ele>
        <time>2019-09-01T11:37:55Z</time>
      </trkpt>
      <trkpt lat="44.49011" lon="6.19951">
        <ele>1276.4</ele>
        <time>2019-09-01T11:38:01Z</time>
      </trkpt>
      <trkpt lat="44.4899" lon="6.1991">
        <ele>1274.5</ele>
        <time>2019-09-01T11:38:09Z</time>
      </trkpt>
      <trkpt lat="44.48984" lon="6.19907">
        <ele>1272.9</ele>
        <time>2019-09-01T11:38:16Z</time>
      </trkpt>
      <trkpt lat="44.48981" lon="6.199">
        <ele>1272.9</ele>
        <time>2019-09-01T11:38:30Z</time>
      </trkpt>
      <trkpt lat="44.48958" lon="6.19866">
        <ele>1271</ele>
        <time>2019-09-01T11:38:38Z</time>
      </trkpt>
      <trkpt lat="44.48902" lon="6.19812">
        <ele>1265.2</ele>
        <time>2019-09-01T11:38:47Z</time>
      </trkpt>
      <trkpt lat="44.48888" lon="6.19801">
        <ele>1263.3</ele>
        <time>2019-09-01T11:38:49Z</time>
      </trkpt>
      <trkpt lat="44.48882" lon="6.19796">
        <ele>1262.6</ele>
        <time>2019-09-01T11:38:50Z</time>
      </trkpt>
      <trkpt lat="44.48863" lon="6.19785">
        <ele>1259.7</ele>
        <time>2019-09-01T11:38:53Z</time>
      </trkpt>
      <trkpt lat="44.48847" lon="6.19775">
        <ele>1258.5</ele>
        <time>2019-09-01T11:38:56Z</time>
      </trkpt>
      <trkpt lat="44.48836" lon="6.19766">
        <ele>1257.8</ele>
        <time>2019-09-01T11:38:59Z</time>
      </trkpt>
      <trkpt lat="44.48833" lon="6.19767">
        <ele>1256.8</ele>
        <time>2019-09-01T11:39:00Z</time>
      </trkpt>
      <trkpt lat="44.4883" lon="6.19769">
        <ele>1255.5</ele>
        <time>2019-09-01T11:39:01Z</time>
      </trkpt>
      <trkpt lat="44.48829" lon="6.19773">
        <ele>1254.3</ele>
        <time>2019-09-01T11:39:02Z</time>
      </trkpt>
      <trkpt lat="44.48829" lon="6.19777">
        <ele>1253.2</ele>
        <time>2019-09-01T11:39:03Z</time>
      </trkpt>
      <trkpt lat="44.48831" lon="6.19782">
        <ele>1252.7</ele>
        <time>2019-09-01T11:39:04Z</time>
      </trkpt>
      <trkpt lat="44.48834" lon="6.19787">
        <ele>1252.4</ele>
        <time>2019-09-01T11:39:05Z</time>
      </trkpt>
      <trkpt lat="44.48838" lon="6.19793">
        <ele>1252.3</ele>
        <time>2019-09-01T11:39:06Z</time>
      </trkpt>
      <trkpt lat="44.48863" lon="6.19828">
        <ele>1249.8</ele>
        <time>2019-09-01T11:39:12Z</time>
      </trkpt>
      <trkpt lat="44.48866" lon="6.19835">
        <ele>1249.4</ele>
        <time>2019-09-01T11:39:13Z</time>
      </trkpt>
      <trkpt lat="44.48868" lon="6.19842">
        <ele>1248.8</ele>
        <time>2019-09-01T11:39:14Z</time>
      </trkpt>
      <trkpt lat="44.48876" lon="6.19882">
        <ele>1244.6</ele>
        <time>2019-09-01T11:39:19Z</time>
      </trkpt>
      <trkpt lat="44.48881" lon="6.1991">
        <ele>1240.9</ele>
        <time>2019-09-01T11:39:23Z</time>
      </trkpt>
      <trkpt lat="44.48885" lon="6.1994">
        <ele>1238.4</ele>
        <time>2019-09-01T11:39:29Z</time>
      </trkpt>
      <trkpt lat="44.48884" lon="6.19944">
        <ele>1237.7</ele>
        <time>2019-09-01T11:39:30Z</time>
      </trkpt>
      <trkpt lat="44.48883" lon="6.19947">
        <ele>1236.5</ele>
        <time>2019-09-01T11:39:31Z</time>
      </trkpt>
      <trkpt lat="44.4888" lon="6.1995">
        <ele>1235.1</ele>
        <time>2019-09-01T11:39:32Z</time>
      </trkpt>
      <trkpt lat="44.48878" lon="6.19952">
        <ele>1233.9</ele>
        <time>2019-09-01T11:39:33Z</time>
      </trkpt>
      <trkpt lat="44.48876" lon="6.19953">
        <ele>1232.9</ele>
        <time>2019-09-01T11:39:34Z</time>
      </trkpt>
      <trkpt lat="44.48875" lon="6.19953">
        <ele>1232.4</ele>
        <time>2019-09-01T11:39:35Z</time>
      </trkpt>
      <trkpt lat="44.48875" lon="6.19954">
        <ele>1232.2</ele>
        <time>2019-09-01T11:39:39Z</time>
      </trkpt>
      <trkpt lat="44.48869" lon="6.19947">
        <ele>1231.8</ele>
        <time>2019-09-01T11:40:03Z</time>
      </trkpt>
      <trkpt lat="44.48862" lon="6.19937">
        <ele>1231.3</ele>
        <time>2019-09-01T11:40:06Z</time>
      </trkpt>
      <trkpt lat="44.48826" lon="6.19886">
        <ele>1228.8</ele>
        <time>2019-09-01T11:40:17Z</time>
      </trkpt>
      <trkpt lat="44.48823" lon="6.19881">
        <ele>1228.9</ele>
        <time>2019-09-01T11:40:18Z</time>
      </trkpt>
      <trkpt lat="44.48819" lon="6.19877">
        <ele>1228.7</ele>
        <time>2019-09-01T11:40:19Z</time>
      </trkpt>
      <trkpt lat="44.48815" lon="6.19873">
        <ele>1228.3</ele>
        <time>2019-09-01T11:40:20Z</time>
      </trkpt>
      <trkpt lat="44.4881" lon="6.1987">
        <ele>1227.7</ele>
        <time>2019-09-01T11:40:21Z</time>
      </trkpt>
      <trkpt lat="44.48805" lon="6.19868">
        <ele>1226.9</ele>
        <time>2019-09-01T11:40:22Z</time>
      </trkpt>
      <trkpt lat="44.48799" lon="6.19866">
        <ele>1225.9</ele>
        <time>2019-09-01T11:40:23Z</time>
      </trkpt>
      <trkpt lat="44.48774" lon="6.19852">
        <ele>1222.6</ele>
        <time>2019-09-01T11:40:29Z</time>
      </trkpt>
      <trkpt lat="44.48762" lon="6.19835">
        <ele>1221.5</ele>
        <time>2019-09-01T11:40:34Z</time>
      </trkpt>
      <trkpt lat="44.48758" lon="6.1983">
        <ele>1221.1</ele>
        <time>2019-09-01T11:40:36Z</time>
      </trkpt>
      <trkpt lat="44.48756" lon="6.1983">
        <ele>1220.4</ele>
        <time>2019-09-01T11:40:37Z</time>
      </trkpt>
      <trkpt lat="44.48754" lon="6.19831">
        <ele>1219.5</ele>
        <time>2019-09-01T11:40:38Z</time>
      </trkpt>
      <trkpt lat="44.48751" lon="6.19841">
        <ele>1217.3</ele>
        <time>2019-09-01T11:40:42Z</time>
      </trkpt>
      <trkpt lat="44.48787" lon="6.19888">
        <ele>1219.6</ele>
        <time>2019-09-01T11:40:57Z</time>
      </trkpt>
      <trkpt lat="44.48802" lon="6.19917">
        <ele>1218.7</ele>
        <time>2019-09-01T11:41:09Z</time>
      </trkpt>
      <trkpt lat="44.4881" lon="6.19955">
        <ele>1214</ele>
        <time>2019-09-01T11:41:23Z</time>
      </trkpt>
      <trkpt lat="44.4881" lon="6.19955">
        <ele>1213.9</ele>
        <time>2019-09-01T11:41:26Z</time>
      </trkpt>
      <trkpt lat="44.48801" lon="6.19915">
        <ele>1218.9</ele>
        <time>2019-09-01T11:43:56Z</time>
      </trkpt>
      <trkpt lat="44.48776" lon="6.19879">
        <ele>1218.2</ele>
        <time>2019-09-01T11:44:34Z</time>
      </trkpt>
      <trkpt lat="44.4875" lon="6.19832">
        <ele>1218.2</ele>
        <time>2019-09-01T11:45:21Z</time>
      </trkpt>
      <trkpt lat="44.4875" lon="6.19832">
        <ele>1218.3</ele>
        <time>2019-09-01T11:45:23Z</time>
      </trkpt>
      <trkpt lat="44.48754" lon="6.19819">
        <ele>1221.4</ele>
        <time>2019-09-01T11:45:54Z</time>
      </trkpt>
      <trkpt lat="44.48752" lon="6.19815">
        <ele>1221.5</ele>
        <time>2019-09-01T11:45:55Z</time>
      </trkpt>
      <trkpt lat="44.4875" lon="6.1981">
        <ele>1221.3</ele>
        <time>2019-09-01T11:45:56Z</time>
      </trkpt>
      <trkpt lat="44.48708" lon="6.19749">
        <ele>1217</ele>
        <time>2019-09-01T11:46:06Z</time>
      </trkpt>
      <trkpt lat="44.4869" lon="6.1973">
        <ele>1215.2</ele>
        <time>2019-09-01T11:46:10Z</time>
      </trkpt>
      <trkpt lat="44.48683" lon="6.19727">
        <ele>1214.5</ele>
        <time>2019-09-01T11:46:11Z</time>
      </trkpt>
      <trkpt lat="44.48677" lon="6.19725">
        <ele>1213.7</ele>
        <time>2019-09-01T11:46:12Z</time>
      </trkpt>
      <trkpt lat="44.48671" lon="6.19722">
        <ele>1212.9</ele>
        <time>2019-09-01T11:46:13Z</time>
      </trkpt>
      <trkpt lat="44.48665" lon="6.19719">
        <ele>1212.1</ele>
        <time>2019-09-01T11:46:14Z</time>
      </trkpt>
      <trkpt lat="44.4866" lon="6.19717">
        <ele>1211</ele>
        <time>2019-09-01T11:46:15Z</time>
      </trkpt>
      <trkpt lat="44.48643" lon="6.19704">
        <ele>1207.6</ele>
        <time>2019-09-01T11:46:21Z</time>
      </trkpt>
      <trkpt lat="44.48639" lon="6.197">
        <ele>1207.2</ele>
        <time>2019-09-01T11:46:23Z</time>
      </trkpt>
      <trkpt lat="44.48632" lon="6.19673">
        <ele>1207.4</ele>
        <time>2019-09-01T11:46:29Z</time>
      </trkpt>
      <trkpt lat="44.48629" lon="6.19667">
        <ele>1207.2</ele>
        <time>2019-09-01T11:46:30Z</time>
      </trkpt>
      <trkpt lat="44.48588" lon="6.19602">
        <ele>1200.6</ele>
        <time>2019-09-01T11:46:39Z</time>
      </trkpt>
      <trkpt lat="44.48565" lon="6.1956">
        <ele>1198.6</ele>
        <time>2019-09-01T11:46:44Z</time>
      </trkpt>
      <trkpt lat="44.48546" lon="6.19525">
        <ele>1194.8</ele>
        <time>2019-09-01T11:46:49Z</time>
      </trkpt>
      <trkpt lat="44.48543" lon="6.19518">
        <ele>1194.1</ele>
        <time>2019-09-01T11:46:50Z</time>
      </trkpt>
      <trkpt lat="44.48541" lon="6.19511">
        <ele>1193.6</ele>
        <time>2019-09-01T11:46:51Z</time>
      </trkpt>
      <trkpt lat="44.4854" lon="6.19503">
        <ele>1193.2</ele>
        <time>2019-09-01T11:46:52Z</time>
      </trkpt>
      <trkpt lat="44.4854" lon="6.19494">
        <ele>1192.7</ele>
        <time>2019-09-01T11:46:53Z</time>
      </trkpt>
      <trkpt lat="44.4854" lon="6.19484">
        <ele>1192.3</ele>
        <time>2019-09-01T11:46:54Z</time>
      </trkpt>
      <trkpt lat="44.48541" lon="6.19474">
        <ele>1191.9</ele>
        <time>2019-09-01T11:46:55Z</time>
      </trkpt>
      <trkpt lat="44.48543" lon="6.19423">
        <ele>1188.3</ele>
        <time>2019-09-01T11:47:00Z</time>
      </trkpt>
      <trkpt lat="44.48544" lon="6.19414">
        <ele>1187.9</ele>
        <time>2019-09-01T11:47:01Z</time>
      </trkpt>
      <trkpt lat="44.48545" lon="6.19405">
        <ele>1187.6</ele>
        <time>2019-09-01T11:47:02Z</time>
      </trkpt>
      <trkpt lat="44.48547" lon="6.19396">
        <ele>1187.6</ele>
        <time>2019-09-01T11:47:03Z</time>
      </trkpt>
      <trkpt lat="44.4855" lon="6.19387">
        <ele>1187.7</ele>
        <time>2019-09-01T11:47:04Z</time>
      </trkpt>
      <trkpt lat="44.48559" lon="6.19359">
        <ele>1187.2</ele>
        <time>2019-09-01T11:47:07Z</time>
      </trkpt>
      <trkpt lat="44.48585" lon="6.19285">
        <ele>1182.5</ele>
        <time>2019-09-01T11:47:16Z</time>
      </trkpt>
      <trkpt lat="44.48601" lon="6.1926">
        <ele>1179</ele>
        <time>2019-09-01T11:47:20Z</time>
      </trkpt>
      <trkpt lat="44.48626" lon="6.19234">
        <ele>1174.8</ele>
        <time>2019-09-01T11:47:25Z</time>
      </trkpt>
      <trkpt lat="44.48632" lon="6.1923">
        <ele>1174.7</ele>
        <time>2019-09-01T11:47:26Z</time>
      </trkpt>
      <trkpt lat="44.4865" lon="6.19223">
        <ele>1174</ele>
        <time>2019-09-01T11:47:29Z</time>
      </trkpt>
      <trkpt lat="44.48655" lon="6.19219">
        <ele>1173.4</ele>
        <time>2019-09-01T11:47:30Z</time>
      </trkpt>
      <trkpt lat="44.48661" lon="6.19214">
        <ele>1172.9</ele>
        <time>2019-09-01T11:47:31Z</time>
      </trkpt>
      <trkpt lat="44.48665" lon="6.19207">
        <ele>1172.1</ele>
        <time>2019-09-01T11:47:32Z</time>
      </trkpt>
      <trkpt lat="44.48668" lon="6.19198">
        <ele>1171.3</ele>
        <time>2019-09-01T11:47:33Z</time>
      </trkpt>
      <trkpt lat="44.48671" lon="6.19188">
        <ele>1171.1</ele>
        <time>2019-09-01T11:47:34Z</time>
      </trkpt>
      <trkpt lat="44.48673" lon="6.19178">
        <ele>1171</ele>
        <time>2019-09-01T11:47:35Z</time>
      </trkpt>
      <trkpt lat="44.48682" lon="6.19139">
        <ele>1169.9</ele>
        <time>2019-09-01T11:47:39Z</time>
      </trkpt>
      <trkpt lat="44.48691" lon="6.19114">
        <ele>1168.4</ele>
        <time>2019-09-01T11:47:42Z</time>
      </trkpt>
      <trkpt lat="44.48695" lon="6.19107">
        <ele>1168</ele>
        <time>2019-09-01T11:47:43Z</time>
      </trkpt>
      <trkpt lat="44.48699" lon="6.19101">
        <ele>1167.5</ele>
        <time>2019-09-01T11:47:44Z</time>
      </trkpt>
      <trkpt lat="44.48704" lon="6.19096">
        <ele>1167.3</ele>
        <time>2019-09-01T11:47:45Z</time>
      </trkpt>
      <trkpt lat="44.4871" lon="6.19091">
        <ele>1167.4</ele>
        <time>2019-09-01T11:47:46Z</time>
      </trkpt>
      <trkpt lat="44.48742" lon="6.19046">
        <ele>1166.4</ele>
        <time>2019-09-01T11:47:54Z</time>
      </trkpt>
      <trkpt lat="44.48763" lon="6.19001">
        <ele>1163.9</ele>
        <time>2019-09-01T11:48:05Z</time>
      </trkpt>
      <trkpt lat="44.48789" lon="6.18957">
        <ele>1161.9</ele>
        <time>2019-09-01T11:48:14Z</time>
      </trkpt>
      <trkpt lat="44.48846" lon="6.18895">
        <ele>1160</ele>
        <time>2019-09-01T11:48:26Z</time>
      </trkpt>
      <trkpt lat="44.48849" lon="6.18888">
        <ele>1159.7</ele>
        <time>2019-09-01T11:48:27Z</time>
      </trkpt>
      <trkpt lat="44.48852" lon="6.18881">
        <ele>1159.4</ele>
        <time>2019-09-01T11:48:28Z</time>
      </trkpt>
      <trkpt lat="44.48854" lon="6.18872">
        <ele>1158.9</ele>
        <time>2019-09-01T11:48:29Z</time>
      </trkpt>
      <trkpt lat="44.48855" lon="6.18863">
        <ele>1158</ele>
        <time>2019-09-01T11:48:30Z</time>
      </trkpt>
      <trkpt lat="44.48856" lon="6.18854">
        <ele>1157.4</ele>
        <time>2019-09-01T11:48:31Z</time>
      </trkpt>
      <trkpt lat="44.48861" lon="6.18829">
        <ele>1156</ele>
        <time>2019-09-01T11:48:34Z</time>
      </trkpt>
      <trkpt lat="44.48863" lon="6.18822">
        <ele>1155.4</ele>
        <time>2019-09-01T11:48:35Z</time>
      </trkpt>
      <trkpt lat="44.48865" lon="6.18815">
        <ele>1155</ele>
        <time>2019-09-01T11:48:36Z</time>
      </trkpt>
      <trkpt lat="44.48868" lon="6.18808">
        <ele>1154.9</ele>
        <time>2019-09-01T11:48:37Z</time>
      </trkpt>
      <trkpt lat="44.48872" lon="6.18802">
        <ele>1155</ele>
        <time>2019-09-01T11:48:38Z</time>
      </trkpt>
      <trkpt lat="44.48888" lon="6.18758">
        <ele>1154.6</ele>
        <time>2019-09-01T11:48:44Z</time>
      </trkpt>
      <trkpt lat="44.48891" lon="6.18721">
        <ele>1153.2</ele>
        <time>2019-09-01T11:48:53Z</time>
      </trkpt>
      <trkpt lat="44.48891" lon="6.18721">
        <ele>1153.2</ele>
        <time>2019-09-01T11:48:56Z</time>
      </trkpt>
      <trkpt lat="44.48885" lon="6.18715">
        <ele>1152.6</ele>
        <time>2019-09-01T11:49:58Z</time>
      </trkpt>
      <trkpt lat="44.48881" lon="6.18713">
        <ele>1152.2</ele>
        <time>2019-09-01T11:49:59Z</time>
      </trkpt>
      <trkpt lat="44.48868" lon="6.18706">
        <ele>1150.7</ele>
        <time>2019-09-01T11:50:02Z</time>
      </trkpt>
      <trkpt lat="44.48863" lon="6.18703">
        <ele>1150.4</ele>
        <time>2019-09-01T11:50:03Z</time>
      </trkpt>
      <trkpt lat="44.48858" lon="6.18698">
        <ele>1149.9</ele>
        <time>2019-09-01T11:50:04Z</time>
      </trkpt>
      <trkpt lat="44.48853" lon="6.18693">
        <ele>1149.1</ele>
        <time>2019-09-01T11:50:05Z</time>
      </trkpt>
      <trkpt lat="44.48849" lon="6.18688">
        <ele>1148.5</ele>
        <time>2019-09-01T11:50:06Z</time>
      </trkpt>
      <trkpt lat="44.48845" lon="6.18682">
        <ele>1148.1</ele>
        <time>2019-09-01T11:50:07Z</time>
      </trkpt>
      <trkpt lat="44.48842" lon="6.18677">
        <ele>1147.9</ele>
        <time>2019-09-01T11:50:08Z</time>
      </trkpt>
      <trkpt lat="44.48839" lon="6.1867">
        <ele>1147.8</ele>
        <time>2019-09-01T11:50:09Z</time>
      </trkpt>
      <trkpt lat="44.48833" lon="6.18656">
        <ele>1147.2</ele>
        <time>2019-09-01T11:50:11Z</time>
      </trkpt>
      <trkpt lat="44.48831" lon="6.18648">
        <ele>1146.8</ele>
        <time>2019-09-01T11:50:12Z</time>
      </trkpt>
      <trkpt lat="44.48826" lon="6.18631">
        <ele>1145.9</ele>
        <time>2019-09-01T11:50:14Z</time>
      </trkpt>
      <trkpt lat="44.48806" lon="6.18584">
        <ele>1141</ele>
        <time>2019-09-01T11:50:20Z</time>
      </trkpt>
      <trkpt lat="44.48803" lon="6.18577">
        <ele>1140.1</ele>
        <time>2019-09-01T11:50:21Z</time>
      </trkpt>
      <trkpt lat="44.48795" lon="6.18558">
        <ele>1137.6</ele>
        <time>2019-09-01T11:50:25Z</time>
      </trkpt>
      <trkpt lat="44.48793" lon="6.18556">
        <ele>1137.2</ele>
        <time>2019-09-01T11:50:26Z</time>
      </trkpt>
      <trkpt lat="44.4879" lon="6.18556">
        <ele>1136.7</ele>
        <time>2019-09-01T11:50:27Z</time>
      </trkpt>
      <trkpt lat="44.48787" lon="6.18559">
        <ele>1136.4</ele>
        <time>2019-09-01T11:50:28Z</time>
      </trkpt>
      <trkpt lat="44.48786" lon="6.18563">
        <ele>1136.4</ele>
        <time>2019-09-01T11:50:29Z</time>
      </trkpt>
      <trkpt lat="44.48787" lon="6.18569">
        <ele>1136.6</ele>
        <time>2019-09-01T11:50:30Z</time>
      </trkpt>
      <trkpt lat="44.48789" lon="6.18576">
        <ele>1137.1</ele>
        <time>2019-09-01T11:50:31Z</time>
      </trkpt>
      <trkpt lat="44.48791" lon="6.18584">
        <ele>1137.8</ele>
        <time>2019-09-01T11:50:32Z</time>
      </trkpt>
      <trkpt lat="44.48792" lon="6.18591">
        <ele>1138.1</ele>
        <time>2019-09-01T11:50:33Z</time>
      </trkpt>
      <trkpt lat="44.48794" lon="6.18598">
        <ele>1138.4</ele>
        <time>2019-09-01T11:50:34Z</time>
      </trkpt>
      <trkpt lat="44.48794" lon="6.18605">
        <ele>1138.5</ele>
        <time>2019-09-01T11:50:35Z</time>
      </trkpt>
      <trkpt lat="44.48794" lon="6.18613">
        <ele>1138.4</ele>
        <time>2019-09-01T11:50:36Z</time>
      </trkpt>
      <trkpt lat="44.48792" lon="6.18621">
        <ele>1137.6</ele>
        <time>2019-09-01T11:50:37Z</time>
      </trkpt>
      <trkpt lat="44.48788" lon="6.18628">
        <ele>1136.6</ele>
        <time>2019-09-01T11:50:38Z</time>
      </trkpt>
      <trkpt lat="44.48784" lon="6.18636">
        <ele>1135.4</ele>
        <time>2019-09-01T11:50:39Z</time>
      </trkpt>
      <trkpt lat="44.48779" lon="6.18643">
        <ele>1133.8</ele>
        <time>2019-09-01T11:50:40Z</time>
      </trkpt>
      <trkpt lat="44.48763" lon="6.18661">
        <ele>1129.9</ele>
        <time>2019-09-01T11:50:43Z</time>
      </trkpt>
      <trkpt lat="44.48717" lon="6.18689">
        <ele>1125.7</ele>
        <time>2019-09-01T11:50:49Z</time>
      </trkpt>
      <trkpt lat="44.48691" lon="6.18711">
        <ele>1124.4</ele>
        <time>2019-09-01T11:50:53Z</time>
      </trkpt>
      <trkpt lat="44.48676" lon="6.18724">
        <ele>1122.9</ele>
        <time>2019-09-01T11:50:56Z</time>
      </trkpt>
      <trkpt lat="44.48633" lon="6.18756">
        <ele>1117.9</ele>
        <time>2019-09-01T11:51:06Z</time>
      </trkpt>
      <trkpt lat="44.48628" lon="6.18761">
        <ele>1117</ele>
        <time>2019-09-01T11:51:12Z</time>
      </trkpt>
      <trkpt lat="44.48628" lon="6.18761">
        <ele>1117</ele>
        <time>2019-09-01T11:51:13Z</time>
      </trkpt>
      <trkpt lat="44.48625" lon="6.18764">
        <ele>1116.4</ele>
        <time>2019-09-01T11:51:33Z</time>
      </trkpt>
      <trkpt lat="44.48623" lon="6.18769">
        <ele>1115.9</ele>
        <time>2019-09-01T11:51:35Z</time>
      </trkpt>
      <trkpt lat="44.48623" lon="6.18773">
        <ele>1115.6</ele>
        <time>2019-09-01T11:51:36Z</time>
      </trkpt>
      <trkpt lat="44.48607" lon="6.18813">
        <ele>1114</ele>
        <time>2019-09-01T11:51:44Z</time>
      </trkpt>
      <trkpt lat="44.48604" lon="6.18818">
        <ele>1113.9</ele>
        <time>2019-09-01T11:51:45Z</time>
      </trkpt>
      <trkpt lat="44.48555" lon="6.18895">
        <ele>1112.4</ele>
        <time>2019-09-01T11:51:58Z</time>
      </trkpt>
      <trkpt lat="44.48517" lon="6.18937">
        <ele>1111</ele>
        <time>2019-09-01T11:52:07Z</time>
      </trkpt>
      <trkpt lat="44.4851" lon="6.18943">
        <ele>1110.3</ele>
        <time>2019-09-01T11:52:09Z</time>
      </trkpt>
      <trkpt lat="44.48485" lon="6.1895">
        <ele>1107</ele>
        <time>2019-09-01T11:52:16Z</time>
      </trkpt>
      <trkpt lat="44.48451" lon="6.18939">
        <ele>1102.5</ele>
        <time>2019-09-01T11:52:23Z</time>
      </trkpt>
      <trkpt lat="44.48446" lon="6.18936">
        <ele>1101.8</ele>
        <time>2019-09-01T11:52:24Z</time>
      </trkpt>
      <trkpt lat="44.48442" lon="6.18931">
        <ele>1101.2</ele>
        <time>2019-09-01T11:52:25Z</time>
      </trkpt>
      <trkpt lat="44.48433" lon="6.18924">
        <ele>1100.1</ele>
        <time>2019-09-01T11:52:27Z</time>
      </trkpt>
      <trkpt lat="44.48429" lon="6.1892">
        <ele>1099.4</ele>
        <time>2019-09-01T11:52:28Z</time>
      </trkpt>
      <trkpt lat="44.48423" lon="6.18918">
        <ele>1098.7</ele>
        <time>2019-09-01T11:52:29Z</time>
      </trkpt>
      <trkpt lat="44.48417" lon="6.18916">
        <ele>1098</ele>
        <time>2019-09-01T11:52:30Z</time>
      </trkpt>
      <trkpt lat="44.4841" lon="6.18915">
        <ele>1097.3</ele>
        <time>2019-09-01T11:52:31Z</time>
      </trkpt>
      <trkpt lat="44.48404" lon="6.18915">
        <ele>1096.6</ele>
        <time>2019-09-01T11:52:32Z</time>
      </trkpt>
      <trkpt lat="44.48398" lon="6.18917">
        <ele>1096</ele>
        <time>2019-09-01T11:52:33Z</time>
      </trkpt>
      <trkpt lat="44.48392" lon="6.18919">
        <ele>1095.5</ele>
        <time>2019-09-01T11:52:34Z</time>
      </trkpt>
      <trkpt lat="44.48387" lon="6.18922">
        <ele>1094.8</ele>
        <time>2019-09-01T11:52:35Z</time>
      </trkpt>
      <trkpt lat="44.48381" lon="6.18926">
        <ele>1093.8</ele>
        <time>2019-09-01T11:52:36Z</time>
      </trkpt>
      <trkpt lat="44.48375" lon="6.18931">
        <ele>1093</ele>
        <time>2019-09-01T11:52:37Z</time>
      </trkpt>
      <trkpt lat="44.48369" lon="6.18936">
        <ele>1092.3</ele>
        <time>2019-09-01T11:52:38Z</time>
      </trkpt>
      <trkpt lat="44.48344" lon="6.18961">
        <ele>1090.1</ele>
        <time>2019-09-01T11:52:42Z</time>
      </trkpt>
      <trkpt lat="44.48301" lon="6.19007">
        <ele>1089.4</ele>
        <time>2019-09-01T11:52:49Z</time>
      </trkpt>
      <trkpt lat="44.48247" lon="6.19071">
        <ele>1086.7</ele>
        <time>2019-09-01T11:53:00Z</time>
      </trkpt>
      <trkpt lat="44.48238" lon="6.19084">
        <ele>1085.7</ele>
        <time>2019-09-01T11:53:02Z</time>
      </trkpt>
      <trkpt lat="44.48234" lon="6.19092">
        <ele>1085.1</ele>
        <time>2019-09-01T11:53:03Z</time>
      </trkpt>
      <trkpt lat="44.4823" lon="6.191">
        <ele>1084.4</ele>
        <time>2019-09-01T11:53:04Z</time>
      </trkpt>
      <trkpt lat="44.48207" lon="6.1916">
        <ele>1081.3</ele>
        <time>2019-09-01T11:53:11Z</time>
      </trkpt>
      <trkpt lat="44.48193" lon="6.19193">
        <ele>1078.9</ele>
        <time>2019-09-01T11:53:16Z</time>
      </trkpt>
      <trkpt lat="44.48162" lon="6.19272">
        <ele>1073.7</ele>
        <time>2019-09-01T11:53:26Z</time>
      </trkpt>
      <trkpt lat="44.48154" lon="6.19298">
        <ele>1071.9</ele>
        <time>2019-09-01T11:53:30Z</time>
      </trkpt>
      <trkpt lat="44.48148" lon="6.1932">
        <ele>1070.4</ele>
        <time>2019-09-01T11:53:35Z</time>
      </trkpt>
      <trkpt lat="44.48145" lon="6.19321">
        <ele>1070.1</ele>
        <time>2019-09-01T11:53:36Z</time>
      </trkpt>
      <trkpt lat="44.48141" lon="6.19319">
        <ele>1069.8</ele>
        <time>2019-09-01T11:53:37Z</time>
      </trkpt>
      <trkpt lat="44.48138" lon="6.19315">
        <ele>1069.3</ele>
        <time>2019-09-01T11:53:38Z</time>
      </trkpt>
      <trkpt lat="44.48134" lon="6.1931">
        <ele>1068.7</ele>
        <time>2019-09-01T11:53:39Z</time>
      </trkpt>
      <trkpt lat="44.48131" lon="6.19304">
        <ele>1068.4</ele>
        <time>2019-09-01T11:53:40Z</time>
      </trkpt>
      <trkpt lat="44.48123" lon="6.19293">
        <ele>1067.8</ele>
        <time>2019-09-01T11:53:42Z</time>
      </trkpt>
      <trkpt lat="44.48112" lon="6.19282">
        <ele>1067.5</ele>
        <time>2019-09-01T11:53:44Z</time>
      </trkpt>
      <trkpt lat="44.4809" lon="6.19267">
        <ele>1064.2</ele>
        <time>2019-09-01T11:53:48Z</time>
      </trkpt>
      <trkpt lat="44.48074" lon="6.19258">
        <ele>1061.9</ele>
        <time>2019-09-01T11:53:51Z</time>
      </trkpt>
      <trkpt lat="44.48054" lon="6.19247">
        <ele>1059.3</ele>
        <time>2019-09-01T11:53:55Z</time>
      </trkpt>
      <trkpt lat="44.48035" lon="6.19237">
        <ele>1053.9</ele>
        <time>2019-09-01T11:53:59Z</time>
      </trkpt>
      <trkpt lat="44.48016" lon="6.19218">
        <ele>1047.9</ele>
        <time>2019-09-01T11:54:05Z</time>
      </trkpt>
      <trkpt lat="44.48013" lon="6.19208">
        <ele>1047</ele>
        <time>2019-09-01T11:54:07Z</time>
      </trkpt>
      <trkpt lat="44.48013" lon="6.19202">
        <ele>1047.2</ele>
        <time>2019-09-01T11:54:08Z</time>
      </trkpt>
      <trkpt lat="44.48013" lon="6.19196">
        <ele>1047.8</ele>
        <time>2019-09-01T11:54:09Z</time>
      </trkpt>
      <trkpt lat="44.48015" lon="6.19189">
        <ele>1048</ele>
        <time>2019-09-01T11:54:10Z</time>
      </trkpt>
      <trkpt lat="44.48016" lon="6.1917">
        <ele>1047.4</ele>
        <time>2019-09-01T11:54:13Z</time>
      </trkpt>
      <trkpt lat="44.48016" lon="6.19163">
        <ele>1046.9</ele>
        <time>2019-09-01T11:54:14Z</time>
      </trkpt>
      <trkpt lat="44.48016" lon="6.19157">
        <ele>1046.4</ele>
        <time>2019-09-01T11:54:15Z</time>
      </trkpt>
      <trkpt lat="44.48016" lon="6.19151">
        <ele>1046</ele>
        <time>2019-09-01T11:54:16Z</time>
      </trkpt>
      <trkpt lat="44.48017" lon="6.19144">
        <ele>1045.9</ele>
        <time>2019-09-01T11:54:17Z</time>
      </trkpt>
      <trkpt lat="44.48018" lon="6.19139">
        <ele>1045.9</ele>
        <time>2019-09-01T11:54:18Z</time>
      </trkpt>
      <trkpt lat="44.4802" lon="6.19134">
        <ele>1046</ele>
        <time>2019-09-01T11:54:19Z</time>
      </trkpt>
      <trkpt lat="44.48023" lon="6.19129">
        <ele>1046.3</ele>
        <time>2019-09-01T11:54:20Z</time>
      </trkpt>
      <trkpt lat="44.48025" lon="6.19125">
        <ele>1046.8</ele>
        <time>2019-09-01T11:54:21Z</time>
      </trkpt>
      <trkpt lat="44.48032" lon="6.1911">
        <ele>1047</ele>
        <time>2019-09-01T11:54:25Z</time>
      </trkpt>
      <trkpt lat="44.48031" lon="6.19107">
        <ele>1046.1</ele>
        <time>2019-09-01T11:54:26Z</time>
      </trkpt>
      <trkpt lat="44.48029" lon="6.19105">
        <ele>1045.2</ele>
        <time>2019-09-01T11:54:27Z</time>
      </trkpt>
      <trkpt lat="44.48026" lon="6.19105">
        <ele>1044.2</ele>
        <time>2019-09-01T11:54:28Z</time>
      </trkpt>
      <trkpt lat="44.48023" lon="6.19106">
        <ele>1043.4</ele>
        <time>2019-09-01T11:54:29Z</time>
      </trkpt>
      <trkpt lat="44.4802" lon="6.19109">
        <ele>1042.8</ele>
        <time>2019-09-01T11:54:30Z</time>
      </trkpt>
      <trkpt lat="44.48017" lon="6.19112">
        <ele>1042.2</ele>
        <time>2019-09-01T11:54:31Z</time>
      </trkpt>
      <trkpt lat="44.48014" lon="6.19116">
        <ele>1041.6</ele>
        <time>2019-09-01T11:54:32Z</time>
      </trkpt>
      <trkpt lat="44.48011" lon="6.19121">
        <ele>1041</ele>
        <time>2019-09-01T11:54:33Z</time>
      </trkpt>
      <trkpt lat="44.48007" lon="6.19126">
        <ele>1040.6</ele>
        <time>2019-09-01T11:54:34Z</time>
      </trkpt>
      <trkpt lat="44.47993" lon="6.19151">
        <ele>1037.7</ele>
        <time>2019-09-01T11:54:39Z</time>
      </trkpt>
      <trkpt lat="44.47991" lon="6.19157">
        <ele>1037.3</ele>
        <time>2019-09-01T11:54:40Z</time>
      </trkpt>
      <trkpt lat="44.4799" lon="6.19162">
        <ele>1037.3</ele>
        <time>2019-09-01T11:54:41Z</time>
      </trkpt>
      <trkpt lat="44.4799" lon="6.19168">
        <ele>1037.5</ele>
        <time>2019-09-01T11:54:42Z</time>
      </trkpt>
      <trkpt lat="44.4799" lon="6.19173">
        <ele>1037.7</ele>
        <time>2019-09-01T11:54:43Z</time>
      </trkpt>
      <trkpt lat="44.4799" lon="6.19177">
        <ele>1037.9</ele>
        <time>2019-09-01T11:54:44Z</time>
      </trkpt>
      <trkpt lat="44.47989" lon="6.19184">
        <ele>1037.7</ele>
        <time>2019-09-01T11:54:46Z</time>
      </trkpt>
      <trkpt lat="44.47988" lon="6.19187">
        <ele>1037</ele>
        <time>2019-09-01T11:54:47Z</time>
      </trkpt>
      <trkpt lat="44.47985" lon="6.19188">
        <ele>1036.1</ele>
        <time>2019-09-01T11:54:48Z</time>
      </trkpt>
      <trkpt lat="44.47983" lon="6.19188">
        <ele>1035</ele>
        <time>2019-09-01T11:54:49Z</time>
      </trkpt>
      <trkpt lat="44.47981" lon="6.19187">
        <ele>1034</ele>
        <time>2019-09-01T11:54:50Z</time>
      </trkpt>
      <trkpt lat="44.47979" lon="6.19183">
        <ele>1033</ele>
        <time>2019-09-01T11:54:51Z</time>
      </trkpt>
      <trkpt lat="44.47977" lon="6.19178">
        <ele>1032.3</ele>
        <time>2019-09-01T11:54:52Z</time>
      </trkpt>
      <trkpt lat="44.47977" lon="6.19171">
        <ele>1032</ele>
        <time>2019-09-01T11:54:53Z</time>
      </trkpt>
      <trkpt lat="44.47977" lon="6.19164">
        <ele>1031.6</ele>
        <time>2019-09-01T11:54:54Z</time>
      </trkpt>
      <trkpt lat="44.47977" lon="6.19156">
        <ele>1031.3</ele>
        <time>2019-09-01T11:54:55Z</time>
      </trkpt>
      <trkpt lat="44.47978" lon="6.19148">
        <ele>1031</ele>
        <time>2019-09-01T11:54:56Z</time>
      </trkpt>
      <trkpt lat="44.47981" lon="6.19113">
        <ele>1028.7</ele>
        <time>2019-09-01T11:55:02Z</time>
      </trkpt>
      <trkpt lat="44.47988" lon="6.19095">
        <ele>1028.2</ele>
        <time>2019-09-01T11:55:07Z</time>
      </trkpt>
      <trkpt lat="44.4799" lon="6.19091">
        <ele>1028.4</ele>
        <time>2019-09-01T11:55:08Z</time>
      </trkpt>
      <trkpt lat="44.47996" lon="6.19058">
        <ele>1022.5</ele>
        <time>2019-09-01T11:55:16Z</time>
      </trkpt>
      <trkpt lat="44.47994" lon="6.19057">
        <ele>1021.6</ele>
        <time>2019-09-01T11:55:17Z</time>
      </trkpt>
      <trkpt lat="44.47991" lon="6.19058">
        <ele>1021.1</ele>
        <time>2019-09-01T11:55:18Z</time>
      </trkpt>
      <trkpt lat="44.47987" lon="6.19062">
        <ele>1020.9</ele>
        <time>2019-09-01T11:55:19Z</time>
      </trkpt>
      <trkpt lat="44.47984" lon="6.19067">
        <ele>1021</ele>
        <time>2019-09-01T11:55:20Z</time>
      </trkpt>
      <trkpt lat="44.4798" lon="6.19073">
        <ele>1021</ele>
        <time>2019-09-01T11:55:21Z</time>
      </trkpt>
      <trkpt lat="44.47975" lon="6.1908">
        <ele>1020.5</ele>
        <time>2019-09-01T11:55:22Z</time>
      </trkpt>
      <trkpt lat="44.4797" lon="6.19086">
        <ele>1019.7</ele>
        <time>2019-09-01T11:55:23Z</time>
      </trkpt>
      <trkpt lat="44.47941" lon="6.19119">
        <ele>1014</ele>
        <time>2019-09-01T11:55:29Z</time>
      </trkpt>
      <trkpt lat="44.4793" lon="6.19131">
        <ele>1012.3</ele>
        <time>2019-09-01T11:55:31Z</time>
      </trkpt>
      <trkpt lat="44.47906" lon="6.19153">
        <ele>1007.9</ele>
        <time>2019-09-01T11:55:36Z</time>
      </trkpt>
      <trkpt lat="44.47888" lon="6.19171">
        <ele>1002.8</ele>
        <time>2019-09-01T11:55:41Z</time>
      </trkpt>
      <trkpt lat="44.47866" lon="6.19167">
        <ele>1001.5</ele>
        <time>2019-09-01T11:55:49Z</time>
      </trkpt>
      <trkpt lat="44.47866" lon="6.19155">
        <ele>1000.4</ele>
        <time>2019-09-01T11:55:51Z</time>
      </trkpt>
      <trkpt lat="44.47867" lon="6.19149">
        <ele>999.9</ele>
        <time>2019-09-01T11:55:52Z</time>
      </trkpt>
      <trkpt lat="44.47868" lon="6.19141">
        <ele>999.5</ele>
        <time>2019-09-01T11:55:53Z</time>
      </trkpt>
      <trkpt lat="44.47871" lon="6.19133">
        <ele>999.1</ele>
        <time>2019-09-01T11:55:54Z</time>
      </trkpt>
      <trkpt lat="44.47873" lon="6.19125">
        <ele>998.5</ele>
        <time>2019-09-01T11:55:55Z</time>
      </trkpt>
      <trkpt lat="44.4789" lon="6.19079">
        <ele>994.5</ele>
        <time>2019-09-01T11:56:01Z</time>
      </trkpt>
      <trkpt lat="44.47903" lon="6.19041">
        <ele>991.4</ele>
        <time>2019-09-01T11:56:06Z</time>
      </trkpt>
      <trkpt lat="44.47908" lon="6.1902">
        <ele>990.9</ele>
        <time>2019-09-01T11:56:09Z</time>
      </trkpt>
      <trkpt lat="44.47908" lon="6.19013">
        <ele>991</ele>
        <time>2019-09-01T11:56:10Z</time>
      </trkpt>
      <trkpt lat="44.47908" lon="6.18992">
        <ele>990</ele>
        <time>2019-09-01T11:56:14Z</time>
      </trkpt>
      <trkpt lat="44.47906" lon="6.1899">
        <ele>989.1</ele>
        <time>2019-09-01T11:56:15Z</time>
      </trkpt>
      <trkpt lat="44.47903" lon="6.18989">
        <ele>987.9</ele>
        <time>2019-09-01T11:56:16Z</time>
      </trkpt>
      <trkpt lat="44.47899" lon="6.1899">
        <ele>986.7</ele>
        <time>2019-09-01T11:56:17Z</time>
      </trkpt>
      <trkpt lat="44.47895" lon="6.18994">
        <ele>985.6</ele>
        <time>2019-09-01T11:56:18Z</time>
      </trkpt>
      <trkpt lat="44.4789" lon="6.18999">
        <ele>984.5</ele>
        <time>2019-09-01T11:56:19Z</time>
      </trkpt>
      <trkpt lat="44.47876" lon="6.19012">
        <ele>982.3</ele>
        <time>2019-09-01T11:56:22Z</time>
      </trkpt>
      <trkpt lat="44.47871" lon="6.19016">
        <ele>981.5</ele>
        <time>2019-09-01T11:56:23Z</time>
      </trkpt>
      <trkpt lat="44.47866" lon="6.19018">
        <ele>980.6</ele>
        <time>2019-09-01T11:56:24Z</time>
      </trkpt>
      <trkpt lat="44.47846" lon="6.19025">
        <ele>977.9</ele>
        <time>2019-09-01T11:56:28Z</time>
      </trkpt>
      <trkpt lat="44.47836" lon="6.1903">
        <ele>976.7</ele>
        <time>2019-09-01T11:56:30Z</time>
      </trkpt>
      <trkpt lat="44.4783" lon="6.19034">
        <ele>976.1</ele>
        <time>2019-09-01T11:56:31Z</time>
      </trkpt>
      <trkpt lat="44.47825" lon="6.19038">
        <ele>975.4</ele>
        <time>2019-09-01T11:56:32Z</time>
      </trkpt>
      <trkpt lat="44.47805" lon="6.1906">
        <ele>972.4</ele>
        <time>2019-09-01T11:56:36Z</time>
      </trkpt>
      <trkpt lat="44.47793" lon="6.19079">
        <ele>970.9</ele>
        <time>2019-09-01T11:56:39Z</time>
      </trkpt>
      <trkpt lat="44.47772" lon="6.19101">
        <ele>966.9</ele>
        <time>2019-09-01T11:56:44Z</time>
      </trkpt>
      <trkpt lat="44.47767" lon="6.19103">
        <ele>966</ele>
        <time>2019-09-01T11:56:45Z</time>
      </trkpt>
      <trkpt lat="44.47763" lon="6.19104">
        <ele>965</ele>
        <time>2019-09-01T11:56:46Z</time>
      </trkpt>
      <trkpt lat="44.47758" lon="6.19105">
        <ele>963.8</ele>
        <time>2019-09-01T11:56:47Z</time>
      </trkpt>
      <trkpt lat="44.47752" lon="6.19105">
        <ele>962.4</ele>
        <time>2019-09-01T11:56:48Z</time>
      </trkpt>
      <trkpt lat="44.47746" lon="6.19103">
        <ele>960.9</ele>
        <time>2019-09-01T11:56:49Z</time>
      </trkpt>
      <trkpt lat="44.4774" lon="6.19101">
        <ele>959.8</ele>
        <time>2019-09-01T11:56:50Z</time>
      </trkpt>
      <trkpt lat="44.47735" lon="6.19098">
        <ele>959</ele>
        <time>2019-09-01T11:56:51Z</time>
      </trkpt>
      <trkpt lat="44.47731" lon="6.19094">
        <ele>958.8</ele>
        <time>2019-09-01T11:56:52Z</time>
      </trkpt>
      <trkpt lat="44.47727" lon="6.19089">
        <ele>959</ele>
        <time>2019-09-01T11:56:53Z</time>
      </trkpt>
      <trkpt lat="44.47723" lon="6.19084">
        <ele>959.9</ele>
        <time>2019-09-01T11:56:54Z</time>
      </trkpt>
      <trkpt lat="44.47719" lon="6.19077">
        <ele>957.7</ele>
        <time>2019-09-01T11:56:55Z</time>
      </trkpt>
      <trkpt lat="44.47716" lon="6.1907">
        <ele>955.7</ele>
        <time>2019-09-01T11:56:56Z</time>
      </trkpt>
      <trkpt lat="44.47706" lon="6.19045">
        <ele>951.6</ele>
        <time>2019-09-01T11:57:00Z</time>
      </trkpt>
      <trkpt lat="44.47704" lon="6.19039">
        <ele>951.4</ele>
        <time>2019-09-01T11:57:01Z</time>
      </trkpt>
      <trkpt lat="44.47703" lon="6.19033">
        <ele>951.3</ele>
        <time>2019-09-01T11:57:02Z</time>
      </trkpt>
      <trkpt lat="44.47702" lon="6.19028">
        <ele>951.4</ele>
        <time>2019-09-01T11:57:03Z</time>
      </trkpt>
      <trkpt lat="44.47702" lon="6.19022">
        <ele>950.6</ele>
        <time>2019-09-01T11:57:04Z</time>
      </trkpt>
      <trkpt lat="44.47703" lon="6.19016">
        <ele>950</ele>
        <time>2019-09-01T11:57:05Z</time>
      </trkpt>
      <trkpt lat="44.47704" lon="6.1901">
        <ele>949.5</ele>
        <time>2019-09-01T11:57:06Z</time>
      </trkpt>
      <trkpt lat="44.47705" lon="6.19005">
        <ele>949.2</ele>
        <time>2019-09-01T11:57:07Z</time>
      </trkpt>
      <trkpt lat="44.47707" lon="6.19001">
        <ele>948.9</ele>
        <time>2019-09-01T11:57:08Z</time>
      </trkpt>
      <trkpt lat="44.47709" lon="6.18998">
        <ele>948.5</ele>
        <time>2019-09-01T11:57:09Z</time>
      </trkpt>
      <trkpt lat="44.47712" lon="6.18995">
        <ele>948.1</ele>
        <time>2019-09-01T11:57:10Z</time>
      </trkpt>
      <trkpt lat="44.47715" lon="6.18994">
        <ele>948.1</ele>
        <time>2019-09-01T11:57:11Z</time>
      </trkpt>
      <trkpt lat="44.4772" lon="6.18994">
        <ele>948.7</ele>
        <time>2019-09-01T11:57:12Z</time>
      </trkpt>
      <trkpt lat="44.47724" lon="6.18995">
        <ele>949.2</ele>
        <time>2019-09-01T11:57:13Z</time>
      </trkpt>
      <trkpt lat="44.47729" lon="6.18996">
        <ele>949.4</ele>
        <time>2019-09-01T11:57:14Z</time>
      </trkpt>
      <trkpt lat="44.47734" lon="6.18997">
        <ele>949.4</ele>
        <time>2019-09-01T11:57:15Z</time>
      </trkpt>
      <trkpt lat="44.47739" lon="6.18997">
        <ele>948.9</ele>
        <time>2019-09-01T11:57:16Z</time>
      </trkpt>
      <trkpt lat="44.47745" lon="6.18994">
        <ele>947.8</ele>
        <time>2019-09-01T11:57:17Z</time>
      </trkpt>
      <trkpt lat="44.4775" lon="6.18989">
        <ele>946.1</ele>
        <time>2019-09-01T11:57:18Z</time>
      </trkpt>
      <trkpt lat="44.47754" lon="6.18982">
        <ele>945.6</ele>
        <time>2019-09-01T11:57:19Z</time>
      </trkpt>
      <trkpt lat="44.47758" lon="6.18975">
        <ele>945</ele>
        <time>2019-09-01T11:57:20Z</time>
      </trkpt>
      <trkpt lat="44.47762" lon="6.18969">
        <ele>944.2</ele>
        <time>2019-09-01T11:57:21Z</time>
      </trkpt>
      <trkpt lat="44.47766" lon="6.18964">
        <ele>943.3</ele>
        <time>2019-09-01T11:57:22Z</time>
      </trkpt>
      <trkpt lat="44.47772" lon="6.18961">
        <ele>943</ele>
        <time>2019-09-01T11:57:23Z</time>
      </trkpt>
      <trkpt lat="44.47778" lon="6.18958">
        <ele>943.1</ele>
        <time>2019-09-01T11:57:24Z</time>
      </trkpt>
      <trkpt lat="44.47783" lon="6.18954">
        <ele>942.8</ele>
        <time>2019-09-01T11:57:25Z</time>
      </trkpt>
      <trkpt lat="44.47788" lon="6.1895">
        <ele>942.2</ele>
        <time>2019-09-01T11:57:26Z</time>
      </trkpt>
      <trkpt lat="44.47792" lon="6.18945">
        <ele>941.5</ele>
        <time>2019-09-01T11:57:27Z</time>
      </trkpt>
      <trkpt lat="44.47795" lon="6.1894">
        <ele>941.6</ele>
        <time>2019-09-01T11:57:28Z</time>
      </trkpt>
      <trkpt lat="44.47797" lon="6.18934">
        <ele>941.6</ele>
        <time>2019-09-01T11:57:29Z</time>
      </trkpt>
      <trkpt lat="44.47797" lon="6.18926">
        <ele>940.8</ele>
        <time>2019-09-01T11:57:30Z</time>
      </trkpt>
      <trkpt lat="44.47796" lon="6.18919">
        <ele>939.4</ele>
        <time>2019-09-01T11:57:31Z</time>
      </trkpt>
      <trkpt lat="44.47793" lon="6.18912">
        <ele>937.8</ele>
        <time>2019-09-01T11:57:32Z</time>
      </trkpt>
      <trkpt lat="44.47789" lon="6.18905">
        <ele>936.6</ele>
        <time>2019-09-01T11:57:33Z</time>
      </trkpt>
      <trkpt lat="44.47785" lon="6.18899">
        <ele>935.8</ele>
        <time>2019-09-01T11:57:34Z</time>
      </trkpt>
      <trkpt lat="44.47781" lon="6.18894">
        <ele>935.2</ele>
        <time>2019-09-01T11:57:35Z</time>
      </trkpt>
      <trkpt lat="44.47777" lon="6.18889">
        <ele>934.8</ele>
        <time>2019-09-01T11:57:36Z</time>
      </trkpt>
      <trkpt lat="44.47774" lon="6.18884">
        <ele>933.3</ele>
        <time>2019-09-01T11:57:37Z</time>
      </trkpt>
      <trkpt lat="44.47772" lon="6.18879">
        <ele>932.2</ele>
        <time>2019-09-01T11:57:38Z</time>
      </trkpt>
      <trkpt lat="44.4777" lon="6.18873">
        <ele>931.3</ele>
        <time>2019-09-01T11:57:39Z</time>
      </trkpt>
      <trkpt lat="44.47769" lon="6.18866">
        <ele>930.7</ele>
        <time>2019-09-01T11:57:40Z</time>
      </trkpt>
      <trkpt lat="44.47767" lon="6.18858">
        <ele>929.5</ele>
        <time>2019-09-01T11:57:41Z</time>
      </trkpt>
      <trkpt lat="44.47767" lon="6.18851">
        <ele>927.3</ele>
        <time>2019-09-01T11:57:42Z</time>
      </trkpt>
      <trkpt lat="44.47767" lon="6.18843">
        <ele>925.3</ele>
        <time>2019-09-01T11:57:43Z</time>
      </trkpt>
      <trkpt lat="44.47767" lon="6.18836">
        <ele>923.3</ele>
        <time>2019-09-01T11:57:44Z</time>
      </trkpt>
      <trkpt lat="44.47767" lon="6.18829">
        <ele>921.3</ele>
        <time>2019-09-01T11:57:45Z</time>
      </trkpt>
      <trkpt lat="44.47765" lon="6.18822">
        <ele>919.9</ele>
        <time>2019-09-01T11:57:46Z</time>
      </trkpt>
      <trkpt lat="44.47763" lon="6.18816">
        <ele>919</ele>
        <time>2019-09-01T11:57:47Z</time>
      </trkpt>
      <trkpt lat="44.4776" lon="6.18811">
        <ele>918.8</ele>
        <time>2019-09-01T11:57:48Z</time>
      </trkpt>
      <trkpt lat="44.47758" lon="6.18807">
        <ele>919</ele>
        <time>2019-09-01T11:57:49Z</time>
      </trkpt>
      <trkpt lat="44.47756" lon="6.18805">
        <ele>919.3</ele>
        <time>2019-09-01T11:57:50Z</time>
      </trkpt>
      <trkpt lat="44.47754" lon="6.18802">
        <ele>919</ele>
        <time>2019-09-01T11:57:51Z</time>
      </trkpt>
      <trkpt lat="44.47751" lon="6.18796">
        <ele>919</ele>
        <time>2019-09-01T11:57:54Z</time>
      </trkpt>
      <trkpt lat="44.47749" lon="6.18795">
        <ele>919</ele>
        <time>2019-09-01T11:57:55Z</time>
      </trkpt>
      <trkpt lat="44.47746" lon="6.18796">
        <ele>918.9</ele>
        <time>2019-09-01T11:57:56Z</time>
      </trkpt>
      <trkpt lat="44.47737" lon="6.18795">
        <ele>918.1</ele>
        <time>2019-09-01T11:58:00Z</time>
      </trkpt>
      <trkpt lat="44.47713" lon="6.18797">
        <ele>914.6</ele>
        <time>2019-09-01T11:58:09Z</time>
      </trkpt>
      <trkpt lat="44.47711" lon="6.18798">
        <ele>913.7</ele>
        <time>2019-09-01T11:58:10Z</time>
      </trkpt>
      <trkpt lat="44.47707" lon="6.18801">
        <ele>911.6</ele>
        <time>2019-09-01T11:58:18Z</time>
      </trkpt>
      <trkpt lat="44.47712" lon="6.1882">
        <ele>909.4</ele>
        <time>2019-09-01T11:59:28Z</time>
      </trkpt>
      <trkpt lat="44.47721" lon="6.1888">
        <ele>906.8</ele>
        <time>2019-09-01T11:59:40Z</time>
      </trkpt>
      <trkpt lat="44.47716" lon="6.18887">
        <ele>905</ele>
        <time>2019-09-01T11:59:42Z</time>
      </trkpt>
      <trkpt lat="44.47712" lon="6.18889">
        <ele>904.4</ele>
        <time>2019-09-01T11:59:43Z</time>
      </trkpt>
      <trkpt lat="44.47707" lon="6.18891">
        <ele>904.2</ele>
        <time>2019-09-01T11:59:44Z</time>
      </trkpt>
      <trkpt lat="44.47685" lon="6.18894">
        <ele>901.2</ele>
        <time>2019-09-01T11:59:49Z</time>
      </trkpt>
      <trkpt lat="44.4768" lon="6.18894">
        <ele>900.2</ele>
        <time>2019-09-01T11:59:50Z</time>
      </trkpt>
      <trkpt lat="44.47676" lon="6.18895">
        <ele>899.6</ele>
        <time>2019-09-01T11:59:51Z</time>
      </trkpt>
      <trkpt lat="44.47651" lon="6.18905">
        <ele>895.9</ele>
        <time>2019-09-01T11:59:56Z</time>
      </trkpt>
      <trkpt lat="44.47647" lon="6.18907">
        <ele>895.4</ele>
        <time>2019-09-01T11:59:57Z</time>
      </trkpt>
      <trkpt lat="44.47643" lon="6.1891">
        <ele>895.3</ele>
        <time>2019-09-01T11:59:58Z</time>
      </trkpt>
      <trkpt lat="44.4764" lon="6.18914">
        <ele>895.5</ele>
        <time>2019-09-01T11:59:59Z</time>
      </trkpt>
      <trkpt lat="44.47637" lon="6.18919">
        <ele>895.2</ele>
        <time>2019-09-01T12:00:00Z</time>
      </trkpt>
      <trkpt lat="44.47636" lon="6.18924">
        <ele>894.3</ele>
        <time>2019-09-01T12:00:01Z</time>
      </trkpt>
      <trkpt lat="44.47635" lon="6.1893">
        <ele>893.9</ele>
        <time>2019-09-01T12:00:02Z</time>
      </trkpt>
      <trkpt lat="44.47634" lon="6.18936">
        <ele>893.8</ele>
        <time>2019-09-01T12:00:03Z</time>
      </trkpt>
      <trkpt lat="44.47635" lon="6.18943">
        <ele>894</ele>
        <time>2019-09-01T12:00:04Z</time>
      </trkpt>
      <trkpt lat="44.47635" lon="6.18951">
        <ele>893.8</ele>
        <time>2019-09-01T12:00:05Z</time>
      </trkpt>
      <trkpt lat="44.47635" lon="6.1896">
        <ele>893.2</ele>
        <time>2019-09-01T12:00:06Z</time>
      </trkpt>
      <trkpt lat="44.47635" lon="6.18969">
        <ele>892.5</ele>
        <time>2019-09-01T12:00:07Z</time>
      </trkpt>
      <trkpt lat="44.47634" lon="6.18977">
        <ele>892.6</ele>
        <time>2019-09-01T12:00:08Z</time>
      </trkpt>
      <trkpt lat="44.47633" lon="6.18985">
        <ele>893.2</ele>
        <time>2019-09-01T12:00:09Z</time>
      </trkpt>
      <trkpt lat="44.4763" lon="6.18992">
        <ele>893</ele>
        <time>2019-09-01T12:00:10Z</time>
      </trkpt>
      <trkpt lat="44.47628" lon="6.18999">
        <ele>892.3</ele>
        <time>2019-09-01T12:00:11Z</time>
      </trkpt>
      <trkpt lat="44.47614" lon="6.19028">
        <ele>889.4</ele>
        <time>2019-09-01T12:00:16Z</time>
      </trkpt>
      <trkpt lat="44.476" lon="6.19046">
        <ele>884</ele>
        <time>2019-09-01T12:00:22Z</time>
      </trkpt>
      <trkpt lat="44.47598" lon="6.19045">
        <ele>882.6</ele>
        <time>2019-09-01T12:00:23Z</time>
      </trkpt>
      <trkpt lat="44.47596" lon="6.19043">
        <ele>881.6</ele>
        <time>2019-09-01T12:00:24Z</time>
      </trkpt>
      <trkpt lat="44.47595" lon="6.19039">
        <ele>881</ele>
        <time>2019-09-01T12:00:25Z</time>
      </trkpt>
      <trkpt lat="44.47595" lon="6.19035">
        <ele>881</ele>
        <time>2019-09-01T12:00:26Z</time>
      </trkpt>
      <trkpt lat="44.47595" lon="6.19031">
        <ele>881.3</ele>
        <time>2019-09-01T12:00:27Z</time>
      </trkpt>
      <trkpt lat="44.47597" lon="6.19027">
        <ele>881.8</ele>
        <time>2019-09-01T12:00:28Z</time>
      </trkpt>
      <trkpt lat="44.47599" lon="6.19023">
        <ele>881.5</ele>
        <time>2019-09-01T12:00:29Z</time>
      </trkpt>
      <trkpt lat="44.47602" lon="6.19018">
        <ele>881.1</ele>
        <time>2019-09-01T12:00:30Z</time>
      </trkpt>
      <trkpt lat="44.47604" lon="6.19013">
        <ele>880.6</ele>
        <time>2019-09-01T12:00:31Z</time>
      </trkpt>
      <trkpt lat="44.47608" lon="6.19002">
        <ele>879.3</ele>
        <time>2019-09-01T12:00:33Z</time>
      </trkpt>
      <trkpt lat="44.47613" lon="6.18983">
        <ele>878.6</ele>
        <time>2019-09-01T12:00:36Z</time>
      </trkpt>
      <trkpt lat="44.47613" lon="6.18976">
        <ele>877.7</ele>
        <time>2019-09-01T12:00:37Z</time>
      </trkpt>
      <trkpt lat="44.47612" lon="6.18969">
        <ele>877</ele>
        <time>2019-09-01T12:00:38Z</time>
      </trkpt>
      <trkpt lat="44.47611" lon="6.18962">
        <ele>876.7</ele>
        <time>2019-09-01T12:00:39Z</time>
      </trkpt>
      <trkpt lat="44.4761" lon="6.18954">
        <ele>876.3</ele>
        <time>2019-09-01T12:00:40Z</time>
      </trkpt>
      <trkpt lat="44.47608" lon="6.18947">
        <ele>875.6</ele>
        <time>2019-09-01T12:00:41Z</time>
      </trkpt>
      <trkpt lat="44.47601" lon="6.18922">
        <ele>872.3</ele>
        <time>2019-09-01T12:00:45Z</time>
      </trkpt>
      <trkpt lat="44.476" lon="6.18915">
        <ele>871.7</ele>
        <time>2019-09-01T12:00:46Z</time>
      </trkpt>
      <trkpt lat="44.47598" lon="6.18898">
        <ele>869.3</ele>
        <time>2019-09-01T12:00:49Z</time>
      </trkpt>
      <trkpt lat="44.47598" lon="6.18894">
        <ele>868.8</ele>
        <time>2019-09-01T12:00:50Z</time>
      </trkpt>
      <trkpt lat="44.476" lon="6.18874">
        <ele>865.4</ele>
        <time>2019-09-01T12:00:55Z</time>
      </trkpt>
      <trkpt lat="44.47629" lon="6.18841">
        <ele>864.8</ele>
        <time>2019-09-01T12:01:08Z</time>
      </trkpt>
      <trkpt lat="44.47629" lon="6.18839">
        <ele>864.2</ele>
        <time>2019-09-01T12:01:09Z</time>
      </trkpt>
      <trkpt lat="44.47629" lon="6.18836">
        <ele>863.6</ele>
        <time>2019-09-01T12:01:10Z</time>
      </trkpt>
      <trkpt lat="44.47628" lon="6.18834">
        <ele>862.9</ele>
        <time>2019-09-01T12:01:11Z</time>
      </trkpt>
      <trkpt lat="44.47627" lon="6.18833">
        <ele>862.4</ele>
        <time>2019-09-01T12:01:12Z</time>
      </trkpt>
      <trkpt lat="44.47625" lon="6.18834">
        <ele>862</ele>
        <time>2019-09-01T12:01:13Z</time>
      </trkpt>
      <trkpt lat="44.47622" lon="6.18836">
        <ele>862</ele>
        <time>2019-09-01T12:01:14Z</time>
      </trkpt>
      <trkpt lat="44.4762" lon="6.18838">
        <ele>862.1</ele>
        <time>2019-09-01T12:01:15Z</time>
      </trkpt>
      <trkpt lat="44.47591" lon="6.18862">
        <ele>858.8</ele>
        <time>2019-09-01T12:01:25Z</time>
      </trkpt>
      <trkpt lat="44.47588" lon="6.18868">
        <ele>858.7</ele>
        <time>2019-09-01T12:01:26Z</time>
      </trkpt>
      <trkpt lat="44.47585" lon="6.18874">
        <ele>858.8</ele>
        <time>2019-09-01T12:01:27Z</time>
      </trkpt>
      <trkpt lat="44.47579" lon="6.18896">
        <ele>857.3</ele>
        <time>2019-09-01T12:01:30Z</time>
      </trkpt>
      <trkpt lat="44.47578" lon="6.18905">
        <ele>856.4</ele>
        <time>2019-09-01T12:01:31Z</time>
      </trkpt>
      <trkpt lat="44.47571" lon="6.18946">
        <ele>852.8</ele>
        <time>2019-09-01T12:01:36Z</time>
      </trkpt>
      <trkpt lat="44.47569" lon="6.18953">
        <ele>852</ele>
        <time>2019-09-01T12:01:37Z</time>
      </trkpt>
      <trkpt lat="44.47566" lon="6.1896">
        <ele>851</ele>
        <time>2019-09-01T12:01:38Z</time>
      </trkpt>
      <trkpt lat="44.47563" lon="6.18967">
        <ele>850</ele>
        <time>2019-09-01T12:01:39Z</time>
      </trkpt>
      <trkpt lat="44.47559" lon="6.18973">
        <ele>849</ele>
        <time>2019-09-01T12:01:40Z</time>
      </trkpt>
      <trkpt lat="44.47555" lon="6.18978">
        <ele>848.3</ele>
        <time>2019-09-01T12:01:41Z</time>
      </trkpt>
      <trkpt lat="44.47551" lon="6.18984">
        <ele>847.4</ele>
        <time>2019-09-01T12:01:42Z</time>
      </trkpt>
      <trkpt lat="44.47543" lon="6.18996">
        <ele>846</ele>
        <time>2019-09-01T12:01:44Z</time>
      </trkpt>
      <trkpt lat="44.4754" lon="6.19002">
        <ele>845.5</ele>
        <time>2019-09-01T12:01:45Z</time>
      </trkpt>
      <trkpt lat="44.47539" lon="6.19009">
        <ele>844.7</ele>
        <time>2019-09-01T12:01:46Z</time>
      </trkpt>
      <trkpt lat="44.47538" lon="6.19017">
        <ele>844.4</ele>
        <time>2019-09-01T12:01:47Z</time>
      </trkpt>
      <trkpt lat="44.47539" lon="6.19025">
        <ele>844.8</ele>
        <time>2019-09-01T12:01:48Z</time>
      </trkpt>
      <trkpt lat="44.4754" lon="6.19033">
        <ele>845.1</ele>
        <time>2019-09-01T12:01:49Z</time>
      </trkpt>
      <trkpt lat="44.47541" lon="6.1904">
        <ele>845.5</ele>
        <time>2019-09-01T12:01:50Z</time>
      </trkpt>
      <trkpt lat="44.47543" lon="6.19047">
        <ele>845.7</ele>
        <time>2019-09-01T12:01:51Z</time>
      </trkpt>
      <trkpt lat="44.4754" lon="6.1908">
        <ele>843.9</ele>
        <time>2019-09-01T12:02:00Z</time>
      </trkpt>
      <trkpt lat="44.47536" lon="6.19085">
        <ele>842.2</ele>
        <time>2019-09-01T12:02:07Z</time>
      </trkpt>
      <trkpt lat="44.47531" lon="6.19065">
        <ele>840.2</ele>
        <time>2019-09-01T12:02:36Z</time>
      </trkpt>
      <trkpt lat="44.47526" lon="6.18996">
        <ele>837.7</ele>
        <time>2019-09-01T12:02:45Z</time>
      </trkpt>
      <trkpt lat="44.47526" lon="6.18986">
        <ele>836</ele>
        <time>2019-09-01T12:02:46Z</time>
      </trkpt>
      <trkpt lat="44.47528" lon="6.18975">
        <ele>834.6</ele>
        <time>2019-09-01T12:02:47Z</time>
      </trkpt>
      <trkpt lat="44.47537" lon="6.18911">
        <ele>831.8</ele>
        <time>2019-09-01T12:02:53Z</time>
      </trkpt>
      <trkpt lat="44.4754" lon="6.18883">
        <ele>830.9</ele>
        <time>2019-09-01T12:02:56Z</time>
      </trkpt>
      <trkpt lat="44.47539" lon="6.18857">
        <ele>829.9</ele>
        <time>2019-09-01T12:02:59Z</time>
      </trkpt>
      <trkpt lat="44.47539" lon="6.1885">
        <ele>829</ele>
        <time>2019-09-01T12:03:00Z</time>
      </trkpt>
      <trkpt lat="44.47537" lon="6.18842">
        <ele>827.9</ele>
        <time>2019-09-01T12:03:01Z</time>
      </trkpt>
      <trkpt lat="44.47535" lon="6.18835">
        <ele>826.7</ele>
        <time>2019-09-01T12:03:02Z</time>
      </trkpt>
      <trkpt lat="44.47533" lon="6.18828">
        <ele>826</ele>
        <time>2019-09-01T12:03:03Z</time>
      </trkpt>
      <trkpt lat="44.47531" lon="6.18822">
        <ele>825.3</ele>
        <time>2019-09-01T12:03:04Z</time>
      </trkpt>
      <trkpt lat="44.47529" lon="6.18817">
        <ele>824.6</ele>
        <time>2019-09-01T12:03:05Z</time>
      </trkpt>
      <trkpt lat="44.47527" lon="6.18811">
        <ele>824.4</ele>
        <time>2019-09-01T12:03:06Z</time>
      </trkpt>
      <trkpt lat="44.47527" lon="6.18804">
        <ele>824.4</ele>
        <time>2019-09-01T12:03:07Z</time>
      </trkpt>
      <trkpt lat="44.47528" lon="6.18796">
        <ele>823.8</ele>
        <time>2019-09-01T12:03:08Z</time>
      </trkpt>
      <trkpt lat="44.47529" lon="6.18788">
        <ele>823.3</ele>
        <time>2019-09-01T12:03:09Z</time>
      </trkpt>
      <trkpt lat="44.4753" lon="6.18779">
        <ele>822.5</ele>
        <time>2019-09-01T12:03:10Z</time>
      </trkpt>
      <trkpt lat="44.4753" lon="6.18769">
        <ele>822</ele>
        <time>2019-09-01T12:03:11Z</time>
      </trkpt>
      <trkpt lat="44.47529" lon="6.18759">
        <ele>821.1</ele>
        <time>2019-09-01T12:03:12Z</time>
      </trkpt>
      <trkpt lat="44.47528" lon="6.18748">
        <ele>820.1</ele>
        <time>2019-09-01T12:03:13Z</time>
      </trkpt>
      <trkpt lat="44.47526" lon="6.18737">
        <ele>819.8</ele>
        <time>2019-09-01T12:03:14Z</time>
      </trkpt>
      <trkpt lat="44.47523" lon="6.18718">
        <ele>818.9</ele>
        <time>2019-09-01T12:03:16Z</time>
      </trkpt>
      <trkpt lat="44.47509" lon="6.18676">
        <ele>816.6</ele>
        <time>2019-09-01T12:03:21Z</time>
      </trkpt>
      <trkpt lat="44.47502" lon="6.18649">
        <ele>816.1</ele>
        <time>2019-09-01T12:03:25Z</time>
      </trkpt>
      <trkpt lat="44.47501" lon="6.18644">
        <ele>816.1</ele>
        <time>2019-09-01T12:03:26Z</time>
      </trkpt>
      <trkpt lat="44.475" lon="6.18639">
        <ele>815.9</ele>
        <time>2019-09-01T12:03:27Z</time>
      </trkpt>
      <trkpt lat="44.47497" lon="6.18636">
        <ele>814.8</ele>
        <time>2019-09-01T12:03:28Z</time>
      </trkpt>
      <trkpt lat="44.47494" lon="6.18634">
        <ele>813.7</ele>
        <time>2019-09-01T12:03:29Z</time>
      </trkpt>
      <trkpt lat="44.47491" lon="6.18635">
        <ele>812.7</ele>
        <time>2019-09-01T12:03:30Z</time>
      </trkpt>
      <trkpt lat="44.47488" lon="6.18637">
        <ele>812</ele>
        <time>2019-09-01T12:03:31Z</time>
      </trkpt>
      <trkpt lat="44.47486" lon="6.1864">
        <ele>811.3</ele>
        <time>2019-09-01T12:03:32Z</time>
      </trkpt>
      <trkpt lat="44.47485" lon="6.18645">
        <ele>810.4</ele>
        <time>2019-09-01T12:03:33Z</time>
      </trkpt>
      <trkpt lat="44.47486" lon="6.1865">
        <ele>809.7</ele>
        <time>2019-09-01T12:03:34Z</time>
      </trkpt>
      <trkpt lat="44.47487" lon="6.18655">
        <ele>809.3</ele>
        <time>2019-09-01T12:03:35Z</time>
      </trkpt>
      <trkpt lat="44.47488" lon="6.1866">
        <ele>809.2</ele>
        <time>2019-09-01T12:03:36Z</time>
      </trkpt>
      <trkpt lat="44.4749" lon="6.18665">
        <ele>809.4</ele>
        <time>2019-09-01T12:03:37Z</time>
      </trkpt>
      <trkpt lat="44.47493" lon="6.18671">
        <ele>809.4</ele>
        <time>2019-09-01T12:03:38Z</time>
      </trkpt>
      <trkpt lat="44.47503" lon="6.18713">
        <ele>809.1</ele>
        <time>2019-09-01T12:03:43Z</time>
      </trkpt>
      <trkpt lat="44.47504" lon="6.18722">
        <ele>808.9</ele>
        <time>2019-09-01T12:03:44Z</time>
      </trkpt>
      <trkpt lat="44.47504" lon="6.1873">
        <ele>808.5</ele>
        <time>2019-09-01T12:03:45Z</time>
      </trkpt>
      <trkpt lat="44.47504" lon="6.18738">
        <ele>807.8</ele>
        <time>2019-09-01T12:03:46Z</time>
      </trkpt>
      <trkpt lat="44.47503" lon="6.18746">
        <ele>806.7</ele>
        <time>2019-09-01T12:03:47Z</time>
      </trkpt>
      <trkpt lat="44.475" lon="6.18754">
        <ele>805.1</ele>
        <time>2019-09-01T12:03:48Z</time>
      </trkpt>
      <trkpt lat="44.47496" lon="6.18762">
        <ele>804.5</ele>
        <time>2019-09-01T12:03:49Z</time>
      </trkpt>
      <trkpt lat="44.47491" lon="6.18768">
        <ele>803.8</ele>
        <time>2019-09-01T12:03:50Z</time>
      </trkpt>
      <trkpt lat="44.47485" lon="6.18771">
        <ele>803.1</ele>
        <time>2019-09-01T12:03:51Z</time>
      </trkpt>
      <trkpt lat="44.47478" lon="6.18773">
        <ele>802.4</ele>
        <time>2019-09-01T12:03:52Z</time>
      </trkpt>
      <trkpt lat="44.47472" lon="6.18774">
        <ele>801.7</ele>
        <time>2019-09-01T12:03:53Z</time>
      </trkpt>
      <trkpt lat="44.47467" lon="6.18774">
        <ele>801.5</ele>
        <time>2019-09-01T12:03:54Z</time>
      </trkpt>
      <trkpt lat="44.47446" lon="6.18777">
        <ele>800.9</ele>
        <time>2019-09-01T12:03:59Z</time>
      </trkpt>
      <trkpt lat="44.47442" lon="6.18779">
        <ele>800.6</ele>
        <time>2019-09-01T12:04:00Z</time>
      </trkpt>
      <trkpt lat="44.47408" lon="6.18801">
        <ele>797.6</ele>
        <time>2019-09-01T12:04:06Z</time>
      </trkpt>
      <trkpt lat="44.47401" lon="6.18804">
        <ele>797.1</ele>
        <time>2019-09-01T12:04:07Z</time>
      </trkpt>
      <trkpt lat="44.47392" lon="6.18805">
        <ele>796.3</ele>
        <time>2019-09-01T12:04:08Z</time>
      </trkpt>
      <trkpt lat="44.47384" lon="6.18805">
        <ele>795.6</ele>
        <time>2019-09-01T12:04:09Z</time>
      </trkpt>
      <trkpt lat="44.47376" lon="6.18803">
        <ele>794.7</ele>
        <time>2019-09-01T12:04:10Z</time>
      </trkpt>
      <trkpt lat="44.47368" lon="6.18802">
        <ele>793.8</ele>
        <time>2019-09-01T12:04:11Z</time>
      </trkpt>
      <trkpt lat="44.47354" lon="6.188">
        <ele>791.9</ele>
        <time>2019-09-01T12:04:13Z</time>
      </trkpt>
      <trkpt lat="44.47348" lon="6.188">
        <ele>791.2</ele>
        <time>2019-09-01T12:04:14Z</time>
      </trkpt>
      <trkpt lat="44.47341" lon="6.18802">
        <ele>790.9</ele>
        <time>2019-09-01T12:04:15Z</time>
      </trkpt>
      <trkpt lat="44.47328" lon="6.18808">
        <ele>790.7</ele>
        <time>2019-09-01T12:04:17Z</time>
      </trkpt>
      <trkpt lat="44.47315" lon="6.18815">
        <ele>789.3</ele>
        <time>2019-09-01T12:04:19Z</time>
      </trkpt>
      <trkpt lat="44.47308" lon="6.18817">
        <ele>787.2</ele>
        <time>2019-09-01T12:04:20Z</time>
      </trkpt>
      <trkpt lat="44.47301" lon="6.18818">
        <ele>786.7</ele>
        <time>2019-09-01T12:04:21Z</time>
      </trkpt>
      <trkpt lat="44.47294" lon="6.18817">
        <ele>787</ele>
        <time>2019-09-01T12:04:22Z</time>
      </trkpt>
      <trkpt lat="44.47288" lon="6.18816">
        <ele>786.9</ele>
        <time>2019-09-01T12:04:23Z</time>
      </trkpt>
      <trkpt lat="44.47275" lon="6.18816">
        <ele>786.3</ele>
        <time>2019-09-01T12:04:25Z</time>
      </trkpt>
      <trkpt lat="44.47269" lon="6.18818">
        <ele>785.3</ele>
        <time>2019-09-01T12:04:26Z</time>
      </trkpt>
      <trkpt lat="44.47235" lon="6.18832">
        <ele>782.3</ele>
        <time>2019-09-01T12:04:31Z</time>
      </trkpt>
      <trkpt lat="44.47223" lon="6.18836">
        <ele>780.1</ele>
        <time>2019-09-01T12:04:33Z</time>
      </trkpt>
      <trkpt lat="44.47218" lon="6.18838">
        <ele>778.9</ele>
        <time>2019-09-01T12:04:34Z</time>
      </trkpt>
      <trkpt lat="44.47214" lon="6.18841">
        <ele>777.9</ele>
        <time>2019-09-01T12:04:35Z</time>
      </trkpt>
      <trkpt lat="44.4721" lon="6.18845">
        <ele>777.3</ele>
        <time>2019-09-01T12:04:36Z</time>
      </trkpt>
      <trkpt lat="44.47207" lon="6.18851">
        <ele>777.6</ele>
        <time>2019-09-01T12:04:37Z</time>
      </trkpt>
      <trkpt lat="44.47206" lon="6.18859">
        <ele>778.9</ele>
        <time>2019-09-01T12:04:38Z</time>
      </trkpt>
      <trkpt lat="44.47206" lon="6.18867">
        <ele>779.6</ele>
        <time>2019-09-01T12:04:39Z</time>
      </trkpt>
      <trkpt lat="44.47207" lon="6.18876">
        <ele>779.8</ele>
        <time>2019-09-01T12:04:40Z</time>
      </trkpt>
      <trkpt lat="44.47207" lon="6.18884">
        <ele>779.9</ele>
        <time>2019-09-01T12:04:41Z</time>
      </trkpt>
      <trkpt lat="44.47207" lon="6.18891">
        <ele>780.1</ele>
        <time>2019-09-01T12:04:42Z</time>
      </trkpt>
      <trkpt lat="44.47206" lon="6.18897">
        <ele>780.7</ele>
        <time>2019-09-01T12:04:43Z</time>
      </trkpt>
      <trkpt lat="44.47203" lon="6.18913">
        <ele>781.1</ele>
        <time>2019-09-01T12:04:46Z</time>
      </trkpt>
      <trkpt lat="44.472" lon="6.18917">
        <ele>780.1</ele>
        <time>2019-09-01T12:04:47Z</time>
      </trkpt>
      <trkpt lat="44.47197" lon="6.1892">
        <ele>779</ele>
        <time>2019-09-01T12:04:48Z</time>
      </trkpt>
      <trkpt lat="44.47194" lon="6.1892">
        <ele>777.1</ele>
        <time>2019-09-01T12:04:49Z</time>
      </trkpt>
      <trkpt lat="44.47191" lon="6.18918">
        <ele>775.6</ele>
        <time>2019-09-01T12:04:50Z</time>
      </trkpt>
      <trkpt lat="44.47189" lon="6.18914">
        <ele>774.4</ele>
        <time>2019-09-01T12:04:51Z</time>
      </trkpt>
      <trkpt lat="44.47188" lon="6.18909">
        <ele>773.5</ele>
        <time>2019-09-01T12:04:52Z</time>
      </trkpt>
      <trkpt lat="44.47189" lon="6.18905">
        <ele>773</ele>
        <time>2019-09-01T12:04:53Z</time>
      </trkpt>
      <trkpt lat="44.4719" lon="6.189">
        <ele>773</ele>
        <time>2019-09-01T12:04:54Z</time>
      </trkpt>
      <trkpt lat="44.47192" lon="6.18895">
        <ele>773.4</ele>
        <time>2019-09-01T12:04:55Z</time>
      </trkpt>
      <trkpt lat="44.47194" lon="6.1889">
        <ele>773.8</ele>
        <time>2019-09-01T12:04:56Z</time>
      </trkpt>
      <trkpt lat="44.47195" lon="6.18884">
        <ele>774.2</ele>
        <time>2019-09-01T12:04:57Z</time>
      </trkpt>
      <trkpt lat="44.47195" lon="6.18878">
        <ele>774.2</ele>
        <time>2019-09-01T12:04:58Z</time>
      </trkpt>
      <trkpt lat="44.47195" lon="6.18853">
        <ele>772.6</ele>
        <time>2019-09-01T12:05:02Z</time>
      </trkpt>
      <trkpt lat="44.47195" lon="6.18847">
        <ele>771.8</ele>
        <time>2019-09-01T12:05:03Z</time>
      </trkpt>
      <trkpt lat="44.47197" lon="6.18841">
        <ele>771.4</ele>
        <time>2019-09-01T12:05:04Z</time>
      </trkpt>
      <trkpt lat="44.472" lon="6.18835">
        <ele>771.3</ele>
        <time>2019-09-01T12:05:05Z</time>
      </trkpt>
      <trkpt lat="44.47203" lon="6.1883">
        <ele>770.9</ele>
        <time>2019-09-01T12:05:06Z</time>
      </trkpt>
      <trkpt lat="44.47207" lon="6.18825">
        <ele>770.3</ele>
        <time>2019-09-01T12:05:07Z</time>
      </trkpt>
      <trkpt lat="44.47211" lon="6.1882">
        <ele>769.9</ele>
        <time>2019-09-01T12:05:08Z</time>
      </trkpt>
      <trkpt lat="44.47216" lon="6.18816">
        <ele>769.5</ele>
        <time>2019-09-01T12:05:09Z</time>
      </trkpt>
      <trkpt lat="44.47225" lon="6.18806">
        <ele>768.2</ele>
        <time>2019-09-01T12:05:11Z</time>
      </trkpt>
      <trkpt lat="44.4723" lon="6.18802">
        <ele>768.2</ele>
        <time>2019-09-01T12:05:12Z</time>
      </trkpt>
      <trkpt lat="44.47236" lon="6.18794">
        <ele>768.4</ele>
        <time>2019-09-01T12:05:14Z</time>
      </trkpt>
      <trkpt lat="44.47238" lon="6.18789">
        <ele>768.1</ele>
        <time>2019-09-01T12:05:15Z</time>
      </trkpt>
      <trkpt lat="44.4724" lon="6.18785">
        <ele>767.6</ele>
        <time>2019-09-01T12:05:16Z</time>
      </trkpt>
      <trkpt lat="44.47241" lon="6.18782">
        <ele>767.1</ele>
        <time>2019-09-01T12:05:17Z</time>
      </trkpt>
      <trkpt lat="44.47242" lon="6.18778">
        <ele>766.6</ele>
        <time>2019-09-01T12:05:18Z</time>
      </trkpt>
      <trkpt lat="44.47242" lon="6.18776">
        <ele>766.5</ele>
        <time>2019-09-01T12:05:19Z</time>
      </trkpt>
      <trkpt lat="44.47242" lon="6.18775">
        <ele>766.5</ele>
        <time>2019-09-01T12:05:20Z</time>
      </trkpt>
      <trkpt lat="44.47242" lon="6.18774">
        <ele>766.5</ele>
        <time>2019-09-01T12:05:24Z</time>
      </trkpt>
      <trkpt lat="44.47235" lon="6.18772">
        <ele>765.2</ele>
        <time>2019-09-01T12:05:45Z</time>
      </trkpt>
      <trkpt lat="44.47231" lon="6.18773">
        <ele>764.5</ele>
        <time>2019-09-01T12:05:46Z</time>
      </trkpt>
      <trkpt lat="44.47226" lon="6.18775">
        <ele>763.7</ele>
        <time>2019-09-01T12:05:47Z</time>
      </trkpt>
      <trkpt lat="44.47192" lon="6.18784">
        <ele>758.9</ele>
        <time>2019-09-01T12:05:52Z</time>
      </trkpt>
      <trkpt lat="44.47186" lon="6.18784">
        <ele>757.9</ele>
        <time>2019-09-01T12:05:53Z</time>
      </trkpt>
      <trkpt lat="44.4718" lon="6.18784">
        <ele>756.9</ele>
        <time>2019-09-01T12:05:54Z</time>
      </trkpt>
      <trkpt lat="44.47151" lon="6.18784">
        <ele>752.6</ele>
        <time>2019-09-01T12:05:58Z</time>
      </trkpt>
      <trkpt lat="44.47128" lon="6.18783">
        <ele>749.2</ele>
        <time>2019-09-01T12:06:01Z</time>
      </trkpt>
      <trkpt lat="44.47092" lon="6.18782">
        <ele>744.1</ele>
        <time>2019-09-01T12:06:06Z</time>
      </trkpt>
      <trkpt lat="44.47072" lon="6.18783">
        <ele>741.1</ele>
        <time>2019-09-01T12:06:09Z</time>
      </trkpt>
      <trkpt lat="44.47058" lon="6.18786">
        <ele>739.1</ele>
        <time>2019-09-01T12:06:11Z</time>
      </trkpt>
      <trkpt lat="44.4704" lon="6.18794">
        <ele>735.9</ele>
        <time>2019-09-01T12:06:14Z</time>
      </trkpt>
      <trkpt lat="44.47009" lon="6.18815">
        <ele>730.9</ele>
        <time>2019-09-01T12:06:19Z</time>
      </trkpt>
      <trkpt lat="44.46987" lon="6.18834">
        <ele>727</ele>
        <time>2019-09-01T12:06:23Z</time>
      </trkpt>
      <trkpt lat="44.46963" lon="6.18853">
        <ele>723</ele>
        <time>2019-09-01T12:06:27Z</time>
      </trkpt>
      <trkpt lat="44.46934" lon="6.1887">
        <ele>718.2</ele>
        <time>2019-09-01T12:06:32Z</time>
      </trkpt>
      <trkpt lat="44.46922" lon="6.18875">
        <ele>716.3</ele>
        <time>2019-09-01T12:06:34Z</time>
      </trkpt>
      <trkpt lat="44.46903" lon="6.18885">
        <ele>713.7</ele>
        <time>2019-09-01T12:06:37Z</time>
      </trkpt>
      <trkpt lat="44.46877" lon="6.18904">
        <ele>710.1</ele>
        <time>2019-09-01T12:06:42Z</time>
      </trkpt>
      <trkpt lat="44.46857" lon="6.18924">
        <ele>707.1</ele>
        <time>2019-09-01T12:06:46Z</time>
      </trkpt>
      <trkpt lat="44.4683" lon="6.18955">
        <ele>702.3</ele>
        <time>2019-09-01T12:06:51Z</time>
      </trkpt>
      <trkpt lat="44.46807" lon="6.18988">
        <ele>698.9</ele>
        <time>2019-09-01T12:06:56Z</time>
      </trkpt>
      <trkpt lat="44.46789" lon="6.19014">
        <ele>695.8</ele>
        <time>2019-09-01T12:07:00Z</time>
      </trkpt>
      <trkpt lat="44.46772" lon="6.19034">
        <ele>693.7</ele>
        <time>2019-09-01T12:07:04Z</time>
      </trkpt>
      <trkpt lat="44.46769" lon="6.19039">
        <ele>692.8</ele>
        <time>2019-09-01T12:07:05Z</time>
      </trkpt>
      <trkpt lat="44.46766" lon="6.19045">
        <ele>692</ele>
        <time>2019-09-01T12:07:06Z</time>
      </trkpt>
      <trkpt lat="44.46763" lon="6.19052">
        <ele>691.2</ele>
        <time>2019-09-01T12:07:07Z</time>
      </trkpt>
      <trkpt lat="44.46761" lon="6.19059">
        <ele>690.6</ele>
        <time>2019-09-01T12:07:08Z</time>
      </trkpt>
      <trkpt lat="44.4676" lon="6.19067">
        <ele>689.9</ele>
        <time>2019-09-01T12:07:09Z</time>
      </trkpt>
      <trkpt lat="44.46759" lon="6.19075">
        <ele>689.3</ele>
        <time>2019-09-01T12:07:10Z</time>
      </trkpt>
      <trkpt lat="44.46758" lon="6.19083">
        <ele>688.6</ele>
        <time>2019-09-01T12:07:11Z</time>
      </trkpt>
      <trkpt lat="44.46752" lon="6.19145">
        <ele>683.8</ele>
        <time>2019-09-01T12:07:17Z</time>
      </trkpt>
      <trkpt lat="44.46738" lon="6.19204">
        <ele>679.4</ele>
        <time>2019-09-01T12:07:23Z</time>
      </trkpt>
      <trkpt lat="44.46729" lon="6.19235">
        <ele>676.6</ele>
        <time>2019-09-01T12:07:26Z</time>
      </trkpt>
      <trkpt lat="44.46717" lon="6.19272">
        <ele>673.7</ele>
        <time>2019-09-01T12:07:30Z</time>
      </trkpt>
      <trkpt lat="44.46704" lon="6.19305">
        <ele>670.4</ele>
        <time>2019-09-01T12:07:34Z</time>
      </trkpt>
      <trkpt lat="44.4669" lon="6.19333">
        <ele>667.7</ele>
        <time>2019-09-01T12:07:38Z</time>
      </trkpt>
      <trkpt lat="44.46669" lon="6.19375">
        <ele>663.1</ele>
        <time>2019-09-01T12:07:44Z</time>
      </trkpt>
      <trkpt lat="44.46653" lon="6.19411">
        <ele>659.9</ele>
        <time>2019-09-01T12:07:49Z</time>
      </trkpt>
      <trkpt lat="44.46639" lon="6.19446">
        <ele>656.9</ele>
        <time>2019-09-01T12:07:54Z</time>
      </trkpt>
      <trkpt lat="44.46629" lon="6.19477">
        <ele>653.8</ele>
        <time>2019-09-01T12:07:59Z</time>
      </trkpt>
      <trkpt lat="44.46626" lon="6.19482">
        <ele>653.4</ele>
        <time>2019-09-01T12:08:00Z</time>
      </trkpt>
      <trkpt lat="44.46624" lon="6.19487">
        <ele>652.9</ele>
        <time>2019-09-01T12:08:01Z</time>
      </trkpt>
      <trkpt lat="44.46623" lon="6.19491">
        <ele>652.6</ele>
        <time>2019-09-01T12:08:02Z</time>
      </trkpt>
      <trkpt lat="44.4662" lon="6.19495">
        <ele>652.3</ele>
        <time>2019-09-01T12:08:03Z</time>
      </trkpt>
      <trkpt lat="44.46604" lon="6.1953">
        <ele>649</ele>
        <time>2019-09-01T12:08:10Z</time>
      </trkpt>
      <trkpt lat="44.46592" lon="6.19558">
        <ele>646.1</ele>
        <time>2019-09-01T12:08:17Z</time>
      </trkpt>
      <trkpt lat="44.46585" lon="6.19573">
        <ele>645.4</ele>
        <time>2019-09-01T12:08:26Z</time>
      </trkpt>
      <trkpt lat="44.46578" lon="6.19589">
        <ele>644</ele>
        <time>2019-09-01T12:08:53Z</time>
      </trkpt>
      <trkpt lat="44.46577" lon="6.19596">
        <ele>643.5</ele>
        <time>2019-09-01T12:08:54Z</time>
      </trkpt>
      <trkpt lat="44.46562" lon="6.19711">
        <ele>640</ele>
        <time>2019-09-01T12:09:06Z</time>
      </trkpt>
      <trkpt lat="44.46556" lon="6.19751">
        <ele>640</ele>
        <time>2019-09-01T12:09:10Z</time>
      </trkpt>
      <trkpt lat="44.4654" lon="6.19876">
        <ele>640</ele>
        <time>2019-09-01T12:09:25Z</time>
      </trkpt>
      <trkpt lat="44.46523" lon="6.19996">
        <ele>640</ele>
        <time>2019-09-01T12:09:42Z</time>
      </trkpt>
      <trkpt lat="44.46522" lon="6.20003">
        <ele>640</ele>
        <time>2019-09-01T12:09:43Z</time>
      </trkpt>
      <trkpt lat="44.46518" lon="6.2003">
        <ele>640</ele>
        <time>2019-09-01T12:09:47Z</time>
      </trkpt>
      <trkpt lat="44.46505" lon="6.20121">
        <ele>641</ele>
        <time>2019-09-01T12:10:03Z</time>
      </trkpt>
      <trkpt lat="44.46495" lon="6.20188">
        <ele>641.6</ele>
        <time>2019-09-01T12:10:21Z</time>
      </trkpt>
      <trkpt lat="44.46495" lon="6.20188">
        <ele>641.6</ele>
        <time>2019-09-01T12:10:23Z</time>
      </trkpt>
      <trkpt lat="44.46497" lon="6.20191">
        <ele>641.8</ele>
        <time>2019-09-01T12:11:24Z</time>
      </trkpt>
      <trkpt lat="44.46498" lon="6.20192">
        <ele>641.8</ele>
        <time>2019-09-01T12:11:25Z</time>
      </trkpt>
      <trkpt lat="44.46499" lon="6.20192">
        <ele>641.9</ele>
        <time>2019-09-01T12:11:26Z</time>
      </trkpt>
      <trkpt lat="44.46503" lon="6.20195">
        <ele>642.2</ele>
        <time>2019-09-01T12:11:29Z</time>
      </trkpt>
      <trkpt lat="44.46514" lon="6.20215">
        <ele>643.7</ele>
        <time>2019-09-01T12:11:48Z</time>
      </trkpt>
      <trkpt lat="44.46515" lon="6.20216">
        <ele>643.9</ele>
        <time>2019-09-01T12:11:53Z</time>
      </trkpt>
      <trkpt lat="44.46517" lon="6.20224">
        <ele>644.4</ele>
        <time>2019-09-01T12:11:59Z</time>
      </trkpt>
      <trkpt lat="44.46539" lon="6.20286">
        <ele>642.9</ele>
        <time>2019-09-01T12:12:11Z</time>
      </trkpt>
      <trkpt lat="44.46568" lon="6.20357">
        <ele>643.1</ele>
        <time>2019-09-01T12:12:25Z</time>
      </trkpt>
      <trkpt lat="44.46578" lon="6.20417">
        <ele>642.8</ele>
        <time>2019-09-01T12:12:36Z</time>
      </trkpt>
      <trkpt lat="44.46572" lon="6.20486">
        <ele>645.2</ele>
        <time>2019-09-01T12:12:49Z</time>
      </trkpt>
      <trkpt lat="44.46572" lon="6.20497">
        <ele>645.4</ele>
        <time>2019-09-01T12:12:51Z</time>
      </trkpt>
      <trkpt lat="44.46558" lon="6.20544">
        <ele>647.7</ele>
        <time>2019-09-01T12:13:02Z</time>
      </trkpt>
      <trkpt lat="44.46543" lon="6.20597">
        <ele>652.8</ele>
        <time>2019-09-01T12:13:14Z</time>
      </trkpt>
      <trkpt lat="44.46559" lon="6.20627">
        <ele>656.7</ele>
        <time>2019-09-01T12:13:22Z</time>
      </trkpt>
      <trkpt lat="44.46566" lon="6.20637">
        <ele>658.6</ele>
        <time>2019-09-01T12:13:25Z</time>
      </trkpt>
      <trkpt lat="44.46576" lon="6.20665">
        <ele>661.3</ele>
        <time>2019-09-01T12:13:32Z</time>
      </trkpt>
      <trkpt lat="44.46574" lon="6.20701">
        <ele>664.2</ele>
        <time>2019-09-01T12:13:40Z</time>
      </trkpt>
      <trkpt lat="44.4659" lon="6.20737">
        <ele>667.6</ele>
        <time>2019-09-01T12:13:50Z</time>
      </trkpt>
      <trkpt lat="44.466" lon="6.20758">
        <ele>669.6</ele>
        <time>2019-09-01T12:13:57Z</time>
      </trkpt>
      <trkpt lat="44.46584" lon="6.20809">
        <ele>670.4</ele>
        <time>2019-09-01T12:14:09Z</time>
      </trkpt>
      <trkpt lat="44.46589" lon="6.20867">
        <ele>675.1</ele>
        <time>2019-09-01T12:14:23Z</time>
      </trkpt>
      <trkpt lat="44.46597" lon="6.20921">
        <ele>679.8</ele>
        <time>2019-09-01T12:14:36Z</time>
      </trkpt>
      <trkpt lat="44.46589" lon="6.20956">
        <ele>681.8</ele>
        <time>2019-09-01T12:14:45Z</time>
      </trkpt>
      <trkpt lat="44.46587" lon="6.20963">
        <ele>682.3</ele>
        <time>2019-09-01T12:14:47Z</time>
      </trkpt>
      <trkpt lat="44.46578" lon="6.21006">
        <ele>684.7</ele>
        <time>2019-09-01T12:14:58Z</time>
      </trkpt>
      <trkpt lat="44.46575" lon="6.21091">
        <ele>686.6</ele>
        <time>2019-09-01T12:15:17Z</time>
      </trkpt>
      <trkpt lat="44.46582" lon="6.21153">
        <ele>689.4</ele>
        <time>2019-09-01T12:15:32Z</time>
      </trkpt>
      <trkpt lat="44.46604" lon="6.21199">
        <ele>693.3</ele>
        <time>2019-09-01T12:15:45Z</time>
      </trkpt>
      <trkpt lat="44.46624" lon="6.21251">
        <ele>695.3</ele>
        <time>2019-09-01T12:15:59Z</time>
      </trkpt>
      <trkpt lat="44.4664" lon="6.21291">
        <ele>696.1</ele>
        <time>2019-09-01T12:16:13Z</time>
      </trkpt>
      <trkpt lat="44.46642" lon="6.21306">
        <ele>696.3</ele>
        <time>2019-09-01T12:16:21Z</time>
      </trkpt>
      <trkpt lat="44.46642" lon="6.21328">
        <ele>697.2</ele>
        <time>2019-09-01T12:16:53Z</time>
      </trkpt>
      <trkpt lat="44.46643" lon="6.21398">
        <ele>696.1</ele>
        <time>2019-09-01T12:17:07Z</time>
      </trkpt>
      <trkpt lat="44.46653" lon="6.21437">
        <ele>694</ele>
        <time>2019-09-01T12:17:15Z</time>
      </trkpt>
      <trkpt lat="44.46655" lon="6.21443">
        <ele>693.4</ele>
        <time>2019-09-01T12:17:16Z</time>
      </trkpt>
      <trkpt lat="44.46686" lon="6.21513">
        <ele>690.1</ele>
        <time>2019-09-01T12:17:28Z</time>
      </trkpt>
      <trkpt lat="44.46709" lon="6.2154">
        <ele>690</ele>
        <time>2019-09-01T12:17:38Z</time>
      </trkpt>
      <trkpt lat="44.46713" lon="6.21541">
        <ele>690.4</ele>
        <time>2019-09-01T12:17:45Z</time>
      </trkpt>
      <trkpt lat="44.46708" lon="6.21535">
        <ele>690.3</ele>
        <time>2019-09-01T12:17:59Z</time>
      </trkpt>
      <trkpt lat="44.46706" lon="6.21533">
        <ele>690.2</ele>
        <time>2019-09-01T12:18:00Z</time>
      </trkpt>
      <trkpt lat="44.46703" lon="6.2153">
        <ele>690.1</ele>
        <time>2019-09-01T12:18:01Z</time>
      </trkpt>
      <trkpt lat="44.46694" lon="6.21523">
        <ele>689.5</ele>
        <time>2019-09-01T12:18:05Z</time>
      </trkpt>
      <trkpt lat="44.46692" lon="6.21524">
        <ele>689.3</ele>
        <time>2019-09-01T12:18:06Z</time>
      </trkpt>
      <trkpt lat="44.4669" lon="6.21528">
        <ele>688.9</ele>
        <time>2019-09-01T12:18:07Z</time>
      </trkpt>
      <trkpt lat="44.46689" lon="6.21533">
        <ele>688.4</ele>
        <time>2019-09-01T12:18:08Z</time>
      </trkpt>
      <trkpt lat="44.46689" lon="6.21539">
        <ele>687.9</ele>
        <time>2019-09-01T12:18:09Z</time>
      </trkpt>
      <trkpt lat="44.46688" lon="6.21546">
        <ele>687.4</ele>
        <time>2019-09-01T12:18:10Z</time>
      </trkpt>
      <trkpt lat="44.46694" lon="6.21619">
        <ele>681.9</ele>
        <time>2019-09-01T12:18:19Z</time>
      </trkpt>
      <trkpt lat="44.46697" lon="6.2165">
        <ele>678.5</ele>
        <time>2019-09-01T12:18:23Z</time>
      </trkpt>
      <trkpt lat="44.467" lon="6.21683">
        <ele>676.3</ele>
        <time>2019-09-01T12:18:29Z</time>
      </trkpt>
      <trkpt lat="44.46717" lon="6.21733">
        <ele>673.6</ele>
        <time>2019-09-01T12:18:37Z</time>
      </trkpt>
      <trkpt lat="44.46755" lon="6.218">
        <ele>675.3</ele>
        <time>2019-09-01T12:18:48Z</time>
      </trkpt>
      <trkpt lat="44.46761" lon="6.21811">
        <ele>676.6</ele>
        <time>2019-09-01T12:18:50Z</time>
      </trkpt>
      <trkpt lat="44.46766" lon="6.2183">
        <ele>678.1</ele>
        <time>2019-09-01T12:18:53Z</time>
      </trkpt>
      <trkpt lat="44.46767" lon="6.21837">
        <ele>678.2</ele>
        <time>2019-09-01T12:18:54Z</time>
      </trkpt>
      <trkpt lat="44.46768" lon="6.21845">
        <ele>677.9</ele>
        <time>2019-09-01T12:18:55Z</time>
      </trkpt>
      <trkpt lat="44.46767" lon="6.21852">
        <ele>677.4</ele>
        <time>2019-09-01T12:18:56Z</time>
      </trkpt>
      <trkpt lat="44.46767" lon="6.2186">
        <ele>676.9</ele>
        <time>2019-09-01T12:18:57Z</time>
      </trkpt>
      <trkpt lat="44.46765" lon="6.21867">
        <ele>676.6</ele>
        <time>2019-09-01T12:18:58Z</time>
      </trkpt>
      <trkpt lat="44.46764" lon="6.21875">
        <ele>676.2</ele>
        <time>2019-09-01T12:18:59Z</time>
      </trkpt>
      <trkpt lat="44.46763" lon="6.21882">
        <ele>675.8</ele>
        <time>2019-09-01T12:19:00Z</time>
      </trkpt>
      <trkpt lat="44.46762" lon="6.2189">
        <ele>675.7</ele>
        <time>2019-09-01T12:19:01Z</time>
      </trkpt>
      <trkpt lat="44.46762" lon="6.21898">
        <ele>676.2</ele>
        <time>2019-09-01T12:19:02Z</time>
      </trkpt>
      <trkpt lat="44.46763" lon="6.21905">
        <ele>676.8</ele>
        <time>2019-09-01T12:19:03Z</time>
      </trkpt>
      <trkpt lat="44.46764" lon="6.21966">
        <ele>672.9</ele>
        <time>2019-09-01T12:19:10Z</time>
      </trkpt>
      <trkpt lat="44.46775" lon="6.22021">
        <ele>675.6</ele>
        <time>2019-09-01T12:19:17Z</time>
      </trkpt>
      <trkpt lat="44.46778" lon="6.22049">
        <ele>676.5</ele>
        <time>2019-09-01T12:19:21Z</time>
      </trkpt>
      <trkpt lat="44.46787" lon="6.22116">
        <ele>679.7</ele>
        <time>2019-09-01T12:19:32Z</time>
      </trkpt>
      <trkpt lat="44.4679" lon="6.22134">
        <ele>680.9</ele>
        <time>2019-09-01T12:19:35Z</time>
      </trkpt>
      <trkpt lat="44.46791" lon="6.2214">
        <ele>681.1</ele>
        <time>2019-09-01T12:19:36Z</time>
      </trkpt>
      <trkpt lat="44.46791" lon="6.22146">
        <ele>680.7</ele>
        <time>2019-09-01T12:19:37Z</time>
      </trkpt>
      <trkpt lat="44.46789" lon="6.22163">
        <ele>678.9</ele>
        <time>2019-09-01T12:19:40Z</time>
      </trkpt>
      <trkpt lat="44.46784" lon="6.22182">
        <ele>677.6</ele>
        <time>2019-09-01T12:19:43Z</time>
      </trkpt>
      <trkpt lat="44.46756" lon="6.22286">
        <ele>674.8</ele>
        <time>2019-09-01T12:19:55Z</time>
      </trkpt>
      <trkpt lat="44.46754" lon="6.22295">
        <ele>674</ele>
        <time>2019-09-01T12:19:56Z</time>
      </trkpt>
      <trkpt lat="44.4675" lon="6.22304">
        <ele>673</ele>
        <time>2019-09-01T12:19:57Z</time>
      </trkpt>
      <trkpt lat="44.46746" lon="6.22313">
        <ele>673</ele>
        <time>2019-09-01T12:19:58Z</time>
      </trkpt>
      <trkpt lat="44.46741" lon="6.22322">
        <ele>673.1</ele>
        <time>2019-09-01T12:19:59Z</time>
      </trkpt>
      <trkpt lat="44.46736" lon="6.2233">
        <ele>673.1</ele>
        <time>2019-09-01T12:20:00Z</time>
      </trkpt>
      <trkpt lat="44.46692" lon="6.22406">
        <ele>669.8</ele>
        <time>2019-09-01T12:20:09Z</time>
      </trkpt>
      <trkpt lat="44.46689" lon="6.22416">
        <ele>669.4</ele>
        <time>2019-09-01T12:20:10Z</time>
      </trkpt>
      <trkpt lat="44.46666" lon="6.22509">
        <ele>668.9</ele>
        <time>2019-09-01T12:20:21Z</time>
      </trkpt>
      <trkpt lat="44.4664" lon="6.22615">
        <ele>670.3</ele>
        <time>2019-09-01T12:20:37Z</time>
      </trkpt>
      <trkpt lat="44.46608" lon="6.22709">
        <ele>671.7</ele>
        <time>2019-09-01T12:20:54Z</time>
      </trkpt>
      <trkpt lat="44.46557" lon="6.22814">
        <ele>670.4</ele>
        <time>2019-09-01T12:21:14Z</time>
      </trkpt>
      <trkpt lat="44.46541" lon="6.22873">
        <ele>669.7</ele>
        <time>2019-09-01T12:21:24Z</time>
      </trkpt>
      <trkpt lat="44.46535" lon="6.22891">
        <ele>669.5</ele>
        <time>2019-09-01T12:21:27Z</time>
      </trkpt>
      <trkpt lat="44.46512" lon="6.2297">
        <ele>667.8</ele>
        <time>2019-09-01T12:21:42Z</time>
      </trkpt>
      <trkpt lat="44.46512" lon="6.2297">
        <ele>667.8</ele>
        <time>2019-09-01T12:21:44Z</time>
      </trkpt>
      <trkpt lat="44.46511" lon="6.22958">
        <ele>667.5</ele>
        <time>2019-09-01T12:21:57Z</time>
      </trkpt>
      <trkpt lat="44.46511" lon="6.22956">
        <ele>667.5</ele>
        <time>2019-09-01T12:21:58Z</time>
      </trkpt>
      <trkpt lat="44.46511" lon="6.22953">
        <ele>667.4</ele>
        <time>2019-09-01T12:21:59Z</time>
      </trkpt>
      <trkpt lat="44.46511" lon="6.2295">
        <ele>667.3</ele>
        <time>2019-09-01T12:22:00Z</time>
      </trkpt>
      <trkpt lat="44.46507" lon="6.22946">
        <ele>666.8</ele>
        <time>2019-09-01T12:22:02Z</time>
      </trkpt>
      <trkpt lat="44.46503" lon="6.22945">
        <ele>666.3</ele>
        <time>2019-09-01T12:22:08Z</time>
      </trkpt>
    </trkseg>
  </trk>
</gpx>